[[{"header":{"parameterUnit":"m.s-1","parameterCategory":1,"la1":30.6,"la2":29.2853,"lo1":-89.7004,"lo2":-87.6739,"dy":0.0162,"dx":0.0183,"nx":112,"ny":82,"refTime":"2025-07-04T00:00:00:Z","depth":0,"parameterNumber":2,"parameterNumberName":"U-component_of_WINDS"},"data":[0.0,0.0,0.0,0.0,0.0,0.0,0.0,0.0,0.0,0.0,0.0,0.0,0.0,0.0,0.0,0.0,0.0,0.0,0.0,0.0,0.0,0.0,0.0,0.0,0.0,0.0,0.0,0.0,0.0,0.0,0.0,0.0,0.0,0.0,0.0,0.0,0.0,0.0,0.0,0.0,0.0,0.0,0.0,0.0,0.0,0.0,0.0,0.0,0.0,0.0,0.0,0.0,0.0,0.0,0.0,0.0,0.0,0.0,0.0,0.0,0.0,0.0,0.0,0.0,0.0,0.0,0.0,0.0,0.0,0.0,0.0,0.0,0.0,0.0,0.0,0.0,0.0,0.0,0.0,0.0,0.0,0.0,0.0,0.0,0.0,0.0,0.0,0.0,0.0,0.0,0.0,1.9669,2.2464,2.3917,2.3277,2.2521,2.0587,1.7037,0.0,0.0,0.0,0.0,0.0,0.0,0.0,0.0,0.0,0.0,0.0,0.0,0.0,0.0,0.0,0.0,0.0,0.0,0.0,0.0,0.0,0.0,0.0,0.0,0.0,0.0,0.0,0.0,0.0,0.0,0.0,0.0,0.0,0.0,0.0,0.0,0.0,0.0,0.0,0.0,0.0,0.0,0.0,0.0,0.0,0.0,0.0,0.0,0.0,0.0,0.0,0.0,0.0,0.0,0.0,0.0,0.0,0.0,0.0,0.0,0.0,0.0,0.0,0.0,0.0,0.0,0.0,0.0,0.0,0.0,0.0,0.0,0.0,0.0,0.0,0.0,0.0,0.0,0.0,0.0,0.0,0.0,0.0,0.0,0.0,0.0,0.0,0.0,0.0,0.0,0.0,0.0,0.0,0.0,0.0,0.0,0.0,0.0,0.0,0.0,0.0,0.0,0.0,0.0,1.7662,2.1969,2.3492,2.3917,2.3277,2.2521,2.0713,1.7499,0.0,0.0,0.0,0.0,0.0,0.0,0.0,0.0,0.0,0.0,0.0,0.0,0.0,0.0,0.0,0.0,0.0,0.0,0.0,0.0,0.0,0.0,0.0,0.0,0.0,0.0,0.0,0.0,0.0,0.0,0.0,0.0,0.0,0.0,0.0,0.0,0.0,0.0,0.0,0.0,0.0,0.0,0.0,0.0,0.0,0.0,0.0,0.0,0.0,0.0,0.0,0.0,0.0,0.0,0.0,0.0,0.0,0.0,0.0,0.0,0.0,0.0,0.0,0.0,0.0,0.0,0.0,0.0,0.0,0.0,0.0,0.0,0.0,0.0,0.0,0.0,0.0,0.0,0.0,0.0,0.0,0.0,0.0,0.0,0.0,0.0,0.0,0.0,0.0,0.0,0.0,0.0,0.0,0.0,0.0,0.0,0.0,0.0,0.0,0.0,0.0,0.0,0.0,1.7392,1.9225,2.3217,2.3988,2.3917,2.3277,2.2521,2.0828,1.7799,1.5671,0.0,0.0,0.0,0.0,0.0,0.0,0.0,0.0,0.0,0.0,0.0,0.0,0.0,0.0,0.0,0.0,0.0,0.0,0.0,0.0,0.0,0.0,0.0,0.0,0.0,0.0,0.0,0.0,0.0,0.0,0.0,0.0,0.0,0.0,0.0,0.0,0.0,0.0,0.0,0.0,0.0,0.0,0.0,0.0,0.0,0.0,0.0,0.0,0.0,0.0,0.0,0.0,0.0,0.0,0.0,0.0,0.0,0.0,0.0,0.0,0.0,0.0,0.0,0.0,0.0,0.0,0.0,0.0,0.0,0.0,0.0,0.0,0.0,0.0,0.0,0.0,0.0,0.0,0.0,0.0,0.0,0.0,0.0,0.0,0.0,0.0,0.0,0.0,0.0,0.0,0.0,0.0,0.0,0.0,0.0,0.0,0.0,0.0,0.0,0.0,0.0,0.0,1.9545,2.0996,2.3896,2.419,2.3917,2.3277,2.2367,2.0657,1.789,1.5522,0.0,0.0,0.0,0.0,0.0,0.0,0.0,0.0,0.0,0.0,0.0,0.0,0.0,0.0,0.0,0.0,0.0,0.0,0.0,0.0,0.0,0.0,0.0,0.0,0.0,0.0,0.0,0.0,0.0,0.0,0.0,0.0,0.0,0.0,0.0,0.0,0.0,0.0,0.0,0.0,0.0,0.0,0.0,0.0,0.0,0.0,0.0,0.0,0.0,0.0,0.0,0.0,0.0,0.0,0.0,0.0,0.0,0.0,0.0,0.0,0.0,0.0,0.0,0.0,0.0,0.0,0.0,0.0,0.0,0.0,0.0,0.0,0.0,0.0,0.0,0.0,0.0,0.0,0.0,0.0,0.0,0.0,0.0,0.0,0.0,0.0,0.0,0.0,0.0,0.0,0.0,0.0,0.0,0.0,0.0,0.0,0.0,0.0,0.0,0.0,0.0,0.0,1.9789,2.2299,2.4025,2.419,2.3917,2.3277,2.1892,2.0039,1.7576,1.4939,0.0,0.0,0.0,0.0,0.0,0.0,0.0,0.0,0.0,0.0,0.0,0.0,0.0,0.0,0.0,0.0,0.0,0.0,0.0,0.0,0.0,0.0,0.0,0.0,0.0,0.0,0.0,0.0,0.0,0.0,0.0,0.0,0.0,0.0,0.0,0.0,0.0,0.0,0.0,0.0,0.0,0.0,0.0,0.0,0.0,0.0,0.0,0.0,0.0,0.0,0.0,0.0,0.0,0.0,0.0,0.0,0.0,0.0,0.0,0.0,0.0,0.0,0.0,0.0,0.0,0.0,0.0,0.0,0.0,0.0,0.0,0.0,0.0,0.0,0.0,0.0,0.0,0.0,0.0,0.0,0.0,0.0,0.0,0.0,0.0,0.0,0.0,0.0,0.0,0.0,0.0,0.0,0.0,0.0,0.0,0.0,0.0,0.0,0.0,0.0,0.0,0.0,1.905,2.1385,0.0,2.419,2.4016,2.3544,2.2389,2.0622,1.8104,0.0,0.0,0.0,0.0,0.0,0.0,0.0,0.0,0.0,0.0,0.0,0.0,0.0,0.0,0.0,0.0,0.0,0.0,0.0,0.0,0.0,0.0,0.0,0.0,0.0,0.0,0.0,0.0,0.0,0.0,0.0,0.0,0.0,0.0,0.0,0.0,0.0,0.0,0.0,0.0,0.0,0.0,0.0,0.0,0.0,0.0,0.0,0.0,0.0,0.0,0.0,0.0,0.0,0.0,0.0,0.0,0.0,0.0,0.0,0.0,0.0,0.0,0.0,0.0,0.0,0.0,0.0,0.0,0.0,0.0,0.0,0.0,0.0,0.0,0.0,0.0,0.0,0.0,0.0,0.0,0.0,0.0,0.0,0.0,0.0,0.0,0.0,0.0,0.0,0.0,0.0,0.0,0.0,0.0,0.0,0.0,0.0,0.0,0.0,0.0,0.0,0.0,1.684,1.9037,2.1353,0.0,2.419,2.4074,2.3714,2.2378,2.0507,1.8106,0.0,0.0,0.0,0.0,0.0,0.0,0.0,0.0,0.0,0.0,0.0,0.0,0.0,0.0,0.0,0.0,0.0,0.0,0.0,0.0,0.0,0.0,0.0,0.0,0.0,0.0,0.0,0.0,0.0,0.0,0.0,0.0,0.0,0.0,0.0,0.0,0.0,0.0,0.0,0.0,0.0,0.0,0.0,0.0,0.0,0.0,0.0,0.0,0.0,0.0,0.0,0.0,0.0,0.0,0.0,0.0,0.0,0.0,0.0,0.0,0.0,0.0,0.0,0.0,0.0,0.0,0.0,0.0,0.0,0.0,0.0,0.0,0.0,0.0,0.0,0.0,0.0,0.0,0.0,0.0,0.0,0.0,0.0,0.0,0.0,0.0,0.0,0.0,0.0,0.0,0.0,0.0,0.0,0.0,0.0,0.0,0.0,0.0,0.0,0.0,0.0,0.0,1.6933,1.9973,2.256,2.4044,2.419,2.4074,2.3735,2.1622,1.9435,0.0,0.0,0.0,0.0,0.0,0.0,0.0,0.0,0.0,0.0,0.0,0.0,0.0,0.0,0.0,0.0,0.0,0.0,0.0,0.0,0.0,0.0,0.0,0.0,0.0,0.0,0.0,0.0,0.0,0.0,0.0,0.0,0.0,0.0,0.0,0.0,0.0,0.0,0.0,0.0,0.0,0.0,0.0,0.0,0.0,0.0,0.0,0.0,0.0,0.0,0.0,0.0,0.0,0.0,0.0,0.0,0.0,0.0,0.0,0.0,0.0,0.0,0.0,0.0,0.0,0.0,0.0,0.0,0.0,0.0,0.0,0.0,0.0,0.0,0.0,0.0,0.0,0.0,0.0,0.0,0.0,0.0,0.0,0.0,0.0,0.0,0.0,0.0,0.0,0.0,0.0,0.0,0.0,0.0,0.0,0.0,0.0,0.0,0.0,0.0,0.0,0.0,0.0,1.7956,2.0521,2.2709,2.4242,2.4284,2.417,2.4074,2.2225,2.0281,1.843,0.0,0.0,0.0,0.0,0.0,0.0,0.0,0.0,0.0,0.0,0.0,0.0,0.0,0.0,0.0,0.0,0.0,0.0,0.0,0.0,0.0,0.0,0.0,0.0,0.0,0.0,0.0,0.0,0.0,0.0,0.0,0.0,0.0,0.0,0.0,0.0,0.0,0.0,0.0,0.0,0.0,0.0,0.0,0.0,0.0,0.0,0.0,0.0,0.0,0.0,0.0,0.0,0.0,0.0,0.0,0.0,0.0,0.0,0.0,0.0,0.0,0.0,0.0,0.0,0.0,0.0,0.0,0.0,0.0,0.0,0.0,0.0,0.0,0.0,0.0,0.0,0.0,0.0,0.0,0.0,0.0,0.0,0.0,0.0,0.0,0.0,0.0,0.0,0.0,0.0,0.0,0.0,0.0,0.0,0.0,0.0,0.0,0.0,0.0,0.0,0.0,0.0,1.8441,2.1053,2.3187,2.4362,2.4321,2.419,2.419,2.2867,2.1152,1.9038,0.0,0.0,0.0,0.0,0.0,0.0,0.0,0.0,0.0,0.0,0.0,0.0,0.0,0.0,0.0,0.0,0.0,0.0,0.0,0.0,0.0,0.0,0.0,0.0,0.0,0.0,0.0,0.0,0.0,0.0,0.0,0.0,0.0,0.0,0.0,0.0,0.0,0.0,0.0,0.0,0.0,0.0,0.0,0.0,0.0,0.0,0.0,0.0,0.0,0.0,0.0,0.0,0.0,0.0,0.0,0.0,0.0,0.0,0.0,0.0,0.0,0.0,0.0,0.0,0.0,0.0,0.0,0.0,0.0,0.0,0.0,0.0,0.0,0.0,0.0,0.0,0.0,0.0,0.0,0.0,0.0,0.0,0.0,0.0,0.0,0.0,0.0,0.0,0.0,0.0,0.0,0.0,0.0,0.0,0.0,0.0,0.0,0.0,0.0,0.0,0.0,0.0,1.865,2.158,2.3775,2.4468,2.4339,2.4209,2.419,2.3474,2.1953,1.9476,0.0,0.0,0.0,0.0,0.0,0.0,0.0,0.0,0.0,0.0,0.0,0.0,0.0,0.0,0.0,0.0,0.0,0.0,0.0,0.0,0.0,0.0,0.0,0.0,0.0,0.0,0.0,0.0,0.0,0.0,0.0,0.0,0.0,0.0,0.0,0.0,0.0,0.0,0.0,0.0,0.0,0.0,0.0,0.0,0.0,0.0,0.0,0.0,0.0,0.0,0.0,0.0,0.0,0.0,0.0,0.0,0.0,0.0,0.0,0.0,2.347,0.0,0.0,0.0,0.0,0.0,0.0,0.0,0.0,0.0,0.0,0.0,0.0,0.0,0.0,0.0,0.0,0.0,0.0,0.0,0.0,0.0,0.0,0.0,0.0,0.0,0.0,0.0,0.0,0.0,0.0,0.0,0.0,0.0,0.0,0.0,0.0,0.0,0.0,0.0,0.0,0.0,1.9657,2.2159,2.3999,2.4666,2.4561,2.4375,2.4209,2.3474,2.2411,2.108,1.8701,0.0,0.0,0.0,0.0,0.0,0.0,0.0,0.0,0.0,0.0,0.0,0.0,0.0,0.0,0.0,0.0,0.0,0.0,0.0,0.0,0.0,0.0,0.0,0.0,0.0,0.0,0.0,0.0,0.0,0.0,0.0,0.0,0.0,0.0,0.0,0.0,0.0,0.0,0.0,0.0,0.0,0.0,0.0,0.0,0.0,0.0,0.0,0.0,0.0,0.0,0.0,0.0,0.0,0.0,0.0,0.0,0.0,0.0,0.0,0.0,2.4687,0.0,0.0,0.0,0.0,0.0,0.0,0.0,0.0,0.0,0.0,0.0,0.0,0.0,0.0,0.0,0.0,0.0,0.0,0.0,0.0,0.0,0.0,0.0,0.0,0.0,0.0,0.0,0.0,0.0,0.0,0.0,0.0,0.0,0.0,0.0,0.0,0.0,0.0,0.0,0.0,2.06,2.2929,2.448,2.4762,2.4623,2.4428,2.4209,2.3823,2.318,2.2282,2.0259,0.0,0.0,0.0,0.0,0.0,0.0,0.0,0.0,0.0,0.0,0.0,0.0,0.0,0.0,0.0,0.0,0.0,0.0,0.0,0.0,0.0,0.0,0.0,0.0,0.0,0.0,0.0,0.0,0.0,0.0,0.0,0.0,0.0,0.0,0.0,0.0,0.0,0.0,0.0,0.0,0.0,0.0,0.0,0.0,0.0,0.0,0.0,0.0,0.0,0.0,0.0,0.0,0.0,3.1381,3.1527,3.1816,3.2422,3.2695,3.2539,2.9648,2.8066,2.7441,2.6855,0.0,0.0,0.0,0.0,0.0,0.0,0.0,0.0,0.0,0.0,0.0,0.0,0.0,0.0,0.0,0.0,0.0,0.0,0.0,0.0,0.0,0.0,0.0,0.0,2.5197,2.6255,2.4139,0.0,0.0,0.0,0.0,0.0,0.0,0.0,0.0,0.0,0.0,0.0,2.1504,2.3677,2.4993,2.4818,2.4654,2.4461,2.4209,2.419,2.3914,2.3254,2.1734,2.015,0.0,0.0,0.0,0.0,0.0,0.0,0.0,0.0,0.0,0.0,0.0,0.0,0.0,0.0,0.0,0.0,0.0,0.0,0.0,0.0,0.0,0.0,0.0,0.0,0.0,0.0,0.0,0.0,0.0,0.0,0.0,0.0,1.5632,1.86,0.0,0.0,0.0,0.0,0.0,0.0,0.0,0.0,0.0,0.0,0.0,0.0,0.0,2.6699,3.0176,3.0173,3.1888,3.5267,3.5267,3.527,3.543,3.8457,3.9844,3.9824,3.9355,0.0,3.4414,3.1445,0.0,0.0,0.0,0.0,0.0,0.0,0.0,0.0,0.0,0.0,0.0,0.0,0.0,0.0,0.0,0.0,0.0,0.0,0.0,0.0,0.0,0.0,2.689,2.6255,2.6928,2.764,0.0,2.4293,2.1312,2.01,1.8754,0.0,0.0,0.0,0.0,0.0,0.0,0.0,2.2408,2.4159,2.5149,2.4832,2.4775,2.4607,2.4228,2.419,2.4153,2.4043,2.3162,2.2155,2.108,1.8922,0.0,0.0,0.0,0.0,0.0,0.0,0.0,0.0,0.0,0.0,0.0,0.0,0.0,0.0,0.0,0.0,0.0,0.0,0.0,0.0,0.0,0.0,0.0,0.0,0.0,0.0,0.0,0.0,0.0,1.5842,1.9323,2.2707,2.3185,2.1925,0.0,0.0,0.0,0.0,0.0,0.0,0.0,0.0,0.0,2.8383,3.0422,3.2226,3.375,3.3769,3.5508,3.8926,3.8926,3.8926,3.8965,4.0508,4.1191,4.1191,4.1191,4.0332,3.8652,3.5195,3.1738,2.8281,0.0,0.0,0.0,0.0,2.0059,2.6875,3.0293,3.3344,3.513,3.156,0.0,0.0,0.0,0.0,0.0,0.0,0.0,2.6621,0.0,0.0,2.9333,2.9448,3.0102,3.0583,3.0121,2.8179,2.5832,0.0,2.2485,2.1119,1.8376,0.0,0.0,0.0,0.0,2.2139,2.3379,2.4562,2.5192,2.4943,2.4842,2.4685,2.4393,2.4247,2.419,2.419,2.3878,2.3271,2.2392,2.0944,1.9149,0.0,0.0,0.0,0.0,0.0,0.0,0.0,0.0,0.0,0.0,0.0,0.0,0.0,0.0,0.0,0.0,0.0,0.0,0.0,0.0,0.0,0.0,0.0,0.0,0.0,0.0,0.0,0.0,1.8816,2.2496,2.4995,2.5303,2.4378,0.0,0.0,0.0,0.0,0.0,0.0,2.6583,2.9981,3.1948,3.2207,3.5547,3.7324,3.7324,3.7324,3.8633,4.1191,4.1191,4.1191,4.1191,4.1191,4.1191,4.1191,4.1191,4.1191,4.0996,3.8398,3.5312,3.1953,2.9355,2.6777,2.4238,2.1621,2.5519,3.2557,3.597,3.6984,3.6219,3.2814,3.3417,3.5493,3.5493,0.0,0.0,0.0,0.0,3.1302,2.961,3.009,3.1198,3.1852,3.2468,3.2737,3.2141,3.1352,2.9852,0.0,2.612,2.4909,2.1532,0.0,0.0,0.0,0.0,2.4082,2.4957,2.5409,2.557,2.5347,2.501,2.4716,2.4528,2.4321,2.419,2.419,2.419,2.3933,2.3327,2.2538,2.1143,1.9087,0.0,0.0,0.0,0.0,0.0,0.0,0.0,0.0,0.0,0.0,0.0,0.0,0.0,0.0,0.0,0.0,0.0,0.0,0.0,0.0,0.0,0.0,0.0,0.0,0.0,0.0,0.0,0.0,0.0,2.5284,2.5303,0.0,0.0,0.0,0.0,2.5034,2.8052,3.0089,3.0583,3.3866,3.5722,3.5742,3.9121,4.0937,4.0937,4.0937,4.1035,4.1191,4.1191,4.1191,4.1191,4.1191,4.1191,4.1191,4.1191,4.1191,4.1191,4.1016,3.8887,3.5723,3.5547,3.5371,3.5195,3.5039,3.5085,3.574,3.9105,4.025,3.97,3.6334,3.5359,3.5493,3.5493,3.2859,0.0,0.0,3.2474,3.5205,3.5089,3.393,3.2795,3.2833,3.2872,3.2891,3.2852,3.2199,3.1083,0.0,2.8294,2.7428,2.6409,0.0,2.6274,2.6217,2.6332,2.6717,2.7601,2.7024,2.6453,2.6263,2.537,2.4716,2.4528,2.4321,2.419,2.419,2.419,2.4171,2.4135,2.3382,2.252,2.1637,1.9216,0.0,0.0,0.0,0.0,0.0,0.0,0.0,0.0,0.0,0.0,0.0,0.0,0.0,0.0,0.0,0.0,0.0,0.0,0.0,0.0,0.0,0.0,0.0,0.0,0.0,0.0,0.0,0.0,2.8321,2.6629,0.0,2.836,2.8571,2.9494,3.1686,3.2994,3.3728,3.3847,3.7354,3.9355,3.9355,4.0547,4.1191,4.1191,4.1191,4.1191,4.1191,4.1191,4.1191,4.1191,4.1191,4.1191,4.1191,4.1191,4.1191,4.1191,4.1191,4.0469,3.9355,3.9355,3.9154,3.8889,3.8889,3.8825,3.8892,4.0085,4.0489,4.0296,3.9104,3.8719,3.8315,3.6161,3.4647,3.3667,3.3667,3.4551,3.5493,3.5493,3.5045,3.4584,3.4584,3.4584,3.443,3.3853,3.3506,3.2814,3.1102,2.964,2.8409,2.7582,2.7448,2.7255,2.6678,2.7082,2.7544,2.7852,2.7621,2.7407,2.7344,2.6397,2.5734,2.5665,2.5001,2.4545,2.441,2.4393,2.4339,2.4227,2.3914,2.34,2.2593,2.1198,1.9161,0.0,0.0,0.0,0.0,0.0,0.0,0.0,0.0,0.0,0.0,0.0,0.0,0.0,0.0,0.0,0.0,0.0,0.0,0.0,0.0,0.0,0.0,0.0,0.0,0.0,0.0,2.6572,2.9994,2.9417,2.9624,3.1896,3.2119,3.3051,3.532,3.6546,3.7199,3.7199,3.973,4.1191,4.1191,4.1191,4.1191,4.1191,4.1191,4.1777,4.293,4.293,4.293,4.293,4.293,4.293,4.293,4.293,4.293,4.293,4.293,4.2839,4.2571,4.1412,4.0771,4.0489,4.0489,4.0489,4.0489,4.0489,4.0489,4.0489,4.0489,4.0489,4.0085,3.7853,3.7199,3.7199,3.7199,3.7199,3.693,3.5795,3.5493,3.5493,3.5493,3.5493,3.5353,3.4757,3.441,3.3872,3.2756,3.1141,2.9717,2.889,2.8736,2.8544,2.7967,2.8371,2.8736,2.8736,2.8486,2.8294,2.8294,2.7362,2.6613,2.6327,2.5561,2.4936,2.453,2.4445,2.4358,2.4227,2.3933,2.3676,2.3419,2.2336,2.0446,1.7697,0.0,0.0,0.0,0.0,0.0,0.0,0.0,0.0,0.0,0.0,0.0,0.0,0.0,0.0,0.0,0.0,0.0,0.0,0.0,0.0,0.0,0.0,0.0,2.4542,2.5077,2.6726,3.0148,3.3474,3.5496,3.5494,3.5495,3.5532,3.5661,3.8661,4.0489,4.0489,4.0953,4.1191,4.1191,4.1191,4.125,4.1367,4.1367,4.3027,4.6308,4.6308,4.6308,4.6308,4.6308,4.6308,4.6308,4.6308,4.6308,4.6308,4.6308,4.6027,4.5278,4.1835,4.0489,4.0489,4.0489,4.0489,4.0489,4.0489,4.0489,4.0489,4.0489,4.0489,4.0489,4.0489,4.0489,4.0489,4.0489,4.0489,3.9738,3.6507,3.5661,3.5641,3.5512,3.5493,3.5493,3.5493,3.4834,3.4218,3.4199,3.2891,3.1487,3.0602,3.0436,3.0417,3.0398,3.0398,0.0,3.0398,2.966,2.914,2.914,2.8236,2.7294,2.646,2.5982,2.5383,2.4603,2.4339,2.4209,2.4209,2.3456,2.34,2.4171,2.2611,2.1013,1.9378,0.0,0.0,0.0,0.0,0.0,0.0,0.0,0.0,0.0,0.0,0.0,0.0,0.0,0.0,0.0,0.0,0.0,0.0,0.0,0.0,0.0,0.0,2.9551,3.2027,3.0427,3.0263,3.3686,3.4916,3.5501,3.5496,3.5495,3.6507,3.8931,3.9969,4.0489,4.0489,4.0953,4.1191,4.1191,4.1191,4.2383,4.4863,4.4902,4.5371,4.6308,4.6308,4.6308,4.6308,4.6308,4.6308,4.6308,4.6308,4.6308,4.6308,4.6308,4.6222,4.5719,4.1966,4.0489,4.0489,4.0489,4.0489,4.0489,4.0489,4.0489,4.0489,4.0489,4.0489,4.0489,4.0489,4.0489,4.0489,4.0489,4.0489,4.0277,3.9354,3.9123,3.8507,3.6084,3.5493,3.5493,3.5493,3.5315,3.4968,3.4314,3.3833,3.3045,3.1583,3.1352,3.1141,3.0494,3.0398,0.0,3.0398,3.0198,3.0044,3.0044,2.9221,2.8583,2.8353,2.7113,2.62,2.582,2.5066,2.4559,2.4409,2.4063,2.3969,2.419,2.2611,2.1582,0.0,0.0,0.0,0.0,0.0,0.0,0.0,0.0,0.0,0.0,0.0,0.0,0.0,0.0,0.0,0.0,0.0,0.0,0.0,0.0,0.0,0.0,2.7891,3.159,3.5012,3.3782,3.3263,3.5262,3.5493,3.5493,3.5493,3.6776,3.8392,4.0335,4.0489,4.0489,4.0489,4.0953,4.1191,4.1191,4.2598,4.4297,4.6289,4.6308,4.6308,4.6308,4.6308,4.6308,4.6308,4.6308,4.6308,4.6308,4.6308,4.6308,4.6308,4.6308,4.6292,0.0,0.0,0.0,0.0,0.0,4.172,4.0489,4.0489,4.0489,4.0489,4.0489,4.0489,4.0489,4.0489,4.0489,4.0489,4.0489,4.0489,4.0489,4.0489,4.0489,4.0008,3.8065,3.6526,3.5493,3.5493,3.5493,3.5353,3.4834,3.4737,0.0,3.2987,3.2449,3.1929,3.1083,3.0948,3.0814,3.0436,3.0398,3.0398,3.0398,2.9948,2.9506,2.9121,2.8134,0.0,0.0,0.0,2.4904,2.4027,2.4118,0.0,0.0,0.0,0.0,0.0,0.0,0.0,0.0,2.1669,2.1687,0.0,0.0,0.0,0.0,0.0,0.0,0.0,0.0,0.0,0.0,0.0,0.0,0.0,0.0,0.0,0.0,2.8744,3.2032,3.507,3.5493,3.5493,3.5493,3.5493,3.5661,3.6026,3.8757,4.0489,4.0489,4.0489,4.0489,4.0489,0.0,0.0,0.0,0.0,4.6308,4.6308,4.6308,4.6308,4.6308,4.6308,4.6308,4.6308,4.6308,4.6308,4.6308,4.6308,4.6308,4.6308,4.6308,4.6308,4.6306,4.6302,4.6015,4.5586,4.5586,4.3682,4.1066,4.1066,0.0,0.0,4.1066,4.1066,4.0989,4.0604,4.0489,4.0489,4.0489,4.0489,4.0489,4.0489,4.0489,4.0489,4.0489,3.8238,3.5988,3.5699,3.5641,3.5622,3.5526,3.5493,3.5257,3.4468,3.3622,3.2776,3.1968,3.1833,3.1564,3.0794,3.059,3.0552,3.0552,0.0,0.0,2.9313,2.8995,2.8198,2.6715,2.6346,2.5458,2.3814,2.4282,2.4301,2.3761,2.5157,2.5968,2.6144,2.6945,2.7466,2.7656,2.4564,2.4246,0.0,0.0,0.0,0.0,0.0,0.0,0.0,0.0,0.0,0.0,0.0,0.0,0.0,0.0,0.0,2.9168,3.2282,3.4724,3.5397,3.5493,3.5493,3.5493,3.5493,3.6565,3.9258,4.0123,4.0489,4.0489,4.0489,4.0489,4.0489,4.0596,4.208,4.5215,4.5957,4.6308,4.6308,4.6308,4.6308,4.6308,0.0,0.0,4.6308,4.6308,4.6308,4.6308,4.6308,4.6308,4.6308,4.6308,4.6308,4.6308,4.6295,4.5998,4.5586,4.5586,4.5182,4.4605,4.4605,4.4605,4.4605,4.4605,4.4605,4.4085,4.1335,4.0489,0.0,4.0489,4.0489,4.0489,4.0489,4.0489,4.0489,4.0489,3.9988,3.8969,3.6911,3.6469,3.6276,3.5641,3.5493,3.5449,3.5276,3.4526,3.366,3.2795,3.2679,3.2602,3.2449,3.1852,3.1448,3.1448,3.0833,3.0321,3.016,2.9463,2.8895,2.8587,2.7752,2.7058,2.6544,2.6648,2.6648,2.6528,2.6827,2.7013,2.7044,2.7381,2.7897,2.8534,2.7015,2.6896,0.0,0.0,0.0,0.0,0.0,0.0,0.0,0.0,0.0,0.0,0.0,2.3334,2.6666,0.0,3.0414,3.2595,3.4378,3.5493,3.5493,3.5493,3.5493,3.5493,3.5493,3.6815,4.0162,4.0489,4.0489,4.0489,4.0489,4.1239,4.2951,4.3047,4.394,4.589,4.6189,4.6308,4.6308,4.6308,4.6308,4.6308,4.6308,4.6308,4.6308,4.6308,4.6308,4.6308,4.6308,4.6308,4.6308,4.6308,4.6308,4.6308,4.6308,4.6163,4.5957,4.5957,4.5796,4.5586,4.5586,4.5586,4.5586,4.5586,4.5586,4.5278,4.3566,4.3047,4.2701,4.0969,4.0489,4.0489,4.0489,4.0489,4.0489,4.0489,4.0489,3.9988,3.8142,3.7757,3.7411,3.6334,3.6103,3.5968,3.557,3.5141,3.4545,3.368,3.3545,3.3391,3.2968,3.2545,3.2295,3.2295,3.191,3.1487,3.1083,2.9852,2.9102,2.9102,2.8166,2.754,2.7457,2.735,2.7354,2.7457,2.7856,2.8299,2.884,2.9379,3.0081,3.0848,3.0194,2.9813,0.0,0.0,0.0,0.0,0.0,0.0,0.0,0.0,2.3034,2.5726,2.6283,2.7341,3.0763,3.1379,3.2282,3.5051,3.5493,3.5493,3.5493,3.5493,3.5738,3.6392,3.6469,3.7526,4.0239,4.0489,4.0489,4.0489,4.1104,4.2681,4.5451,4.5586,4.5586,4.5586,4.5974,4.6219,4.6308,4.6308,4.6308,4.6308,4.6308,4.6308,4.6308,4.6308,4.6308,4.6308,4.6308,4.6308,4.6308,4.6308,4.6308,4.6308,4.6308,4.6308,4.6308,4.6308,4.6053,4.5742,4.5742,4.5677,4.5586,4.5586,4.5586,4.5586,4.5586,4.5586,4.5028,4.2258,4.1008,4.0489,4.0489,4.0489,4.0489,4.0489,4.0489,4.02,3.9123,3.8892,3.8507,3.7219,3.6815,3.6488,3.5853,3.5603,3.5257,3.4564,3.4449,3.4199,3.3506,3.3256,3.3141,3.3141,3.3006,3.2641,3.1987,3.0641,2.9833,2.9833,2.9072,2.8626,2.8626,2.8484,2.8451,2.8626,2.9257,3.003,3.0891,3.1602,3.2275,3.291,3.291,3.2387,1.4998,1.8963,0.0,2.6718,2.7821,2.7582,0.0,0.0,2.9379,2.9744,2.9821,3.0859,3.4301,3.4916,3.5051,3.5435,3.5493,3.5493,3.5493,3.5493,3.6603,3.9585,3.9931,4.0085,4.045,4.0489,4.0489,4.0489,4.3297,4.5201,4.5566,4.5586,4.5586,4.5586,4.5648,4.588,4.6308,4.6308,4.6308,4.6308,4.6308,4.6308,4.6308,4.6308,4.6308,4.6308,4.6308,4.6308,4.6308,4.6308,4.6308,4.6308,4.6308,4.6308,4.6308,4.6308,4.6268,4.6221,4.6221,4.5957,4.5586,4.5586,4.5586,4.5586,4.5586,4.5586,4.5509,4.5124,4.2835,4.0489,4.0489,4.0489,4.0489,4.0489,4.0489,4.0258,3.9431,3.9238,3.8969,3.8046,3.7238,3.668,3.6584,3.5968,3.5468,3.5372,3.5353,3.5334,3.5218,3.4526,3.4045,3.4045,3.3353,3.2852,3.2776,3.2583,3.2468,3.2468,3.2378,3.2308,3.2308,3.2295,3.2276,3.2308,3.2404,3.2494,3.2622,3.2718,3.2814,3.2929,3.3667,3.3825,2.0975,0.0,0.0,0.0,2.9015,2.9903,2.9756,3.1621,3.3359,3.3359,3.3359,3.3801,3.5238,3.5493,3.5493,0.0,3.5493,3.5493,3.5493,3.718,3.82,3.7661,3.7584,3.8354,4.0296,4.0489,4.0489,4.0489,4.3662,4.5586,4.5586,4.5586,4.5586,4.5586,4.5586,4.5688,4.589,4.5901,4.5901,4.5901,4.6167,4.6308,4.6308,4.6308,4.614,4.5901,4.5901,4.604,4.6289,4.6006,4.5901,4.593,4.6195,4.6308,4.6308,4.6308,4.6308,4.6308,4.6308,4.6167,4.6013,4.6013,4.6013,4.5966,4.5692,4.5586,4.5586,4.5586,4.4566,4.3008,4.1008,4.0989,4.1316,4.0662,4.0489,4.0412,4.0065,3.9988,3.9738,3.8911,3.845,3.8046,3.7546,3.6757,3.6199,3.6199,3.5815,3.5493,3.5493,3.518,3.4968,3.4968,3.418,3.366,3.366,3.3179,3.2891,3.2891,3.2891,3.2891,3.2891,3.2891,3.2891,3.2891,3.2891,3.3141,3.366,3.366,3.391,3.443,3.5276,3.558,2.4857,0.0,0.0,2.6664,2.9107,3.0923,3.1663,3.3006,3.4359,3.5301,3.5493,3.5493,3.5493,3.5493,3.5493,3.5493,3.5493,3.5834,3.6757,3.8969,3.9258,3.5911,3.5493,3.6815,4.0162,4.0489,4.0489,4.0489,4.3662,4.5586,4.5586,4.5586,4.5586,4.5586,4.5586,4.5586,4.5586,4.5586,4.5586,4.5603,4.5938,4.6119,4.6119,4.6119,4.593,4.5586,4.5586,4.5783,4.6084,4.5742,4.5586,4.5635,4.5963,4.6119,4.6119,4.6119,4.6192,4.6308,4.6308,4.6308,4.6308,4.6308,4.6308,4.6245,4.5901,4.5783,4.5783,4.5783,4.58,4.5199,4.2566,4.2082,4.2063,4.1178,4.0719,4.0489,4.0489,4.0489,4.0315,3.9738,3.945,3.9104,3.8469,3.7642,3.7065,3.7065,3.6565,3.6026,3.5565,3.5493,3.5493,3.5493,3.4949,3.4564,3.4564,3.3987,3.3622,3.3622,3.3622,3.3641,3.3641,3.3641,3.3641,3.3641,3.3622,3.393,3.4564,3.4776,3.5218,3.5853,3.668,3.7199,0.0,0.0,2.3641,2.6726,2.8281,2.909,2.9118,2.9861,3.1494,3.482,3.5493,3.5493,3.5493,3.5493,3.5493,3.5493,3.5493,3.6642,3.9892,4.0431,3.9258,3.5911,3.5493,3.6815,0.0,4.0489,4.0489,4.0489,4.3662,4.5586,4.5586,4.5586,4.5586,4.5586,4.5586,4.5586,4.5586,4.5586,4.5586,4.5586,4.5601,4.5618,4.5618,4.5618,4.562,4.5586,4.5586,4.5603,4.5618,4.5603,4.5586,4.5603,4.562,4.5618,4.5618,4.5618,4.592,4.6308,4.6308,4.6308,4.6308,4.6308,4.6308,4.6308,4.6289,4.6289,4.6289,4.6289,4.6277,4.6142,4.5603,4.3984,4.2422,4.2197,4.1296,4.0489,4.0489,4.0489,4.0489,4.0469,3.9815,3.9277,3.9258,3.8546,3.7969,3.7969,3.793,3.7334,3.5718,3.5493,3.5493,3.5493,3.5488,3.5468,3.5468,3.5449,3.543,3.543,3.5488,3.5526,3.5526,3.5526,3.5526,3.5526,3.5449,3.543,3.5468,3.6238,3.6642,3.668,3.7565,3.8411,0.0,0.0,2.6265,2.7575,2.9258,3.0925,3.2284,3.2937,3.3682,3.5201,3.5493,3.5493,3.5493,3.3647,3.2859,3.5128,3.5493,3.668,4.0027,4.0489,3.9258,3.5911,3.5493,0.0,0.0,0.0,0.0,4.0489,4.3662,4.5586,4.5586,4.5586,4.5586,4.5586,4.5586,4.5586,4.5586,4.5586,4.5586,4.5586,4.5586,4.5586,4.5586,4.5586,4.5586,4.5586,4.5586,4.5586,4.5586,4.5586,4.5586,4.5586,4.5586,4.5586,4.5586,4.5586,4.5703,4.588,4.6195,4.6308,4.6308,4.6308,4.6308,4.6308,4.6308,4.6308,4.6308,4.6308,4.629,4.6267,4.6111,4.501,4.364,4.2367,4.1771,4.1309,4.0639,4.0489,4.0489,4.0489,4.0277,4.0085,4.0085,3.9411,3.8661,3.8084,3.8007,3.7584,3.6449,3.6315,3.6103,3.5565,3.5493,3.5493,3.5493,3.5545,3.5584,3.5584,3.5641,3.5919,3.6493,3.6541,3.6792,3.739,3.7357,3.7357,3.7357,3.7574,3.77,3.7704,3.8507,3.9008,0.0,2.693,2.8888,3.0213,3.1844,3.3316,3.4043,3.4122,3.4344,3.5297,3.4532,3.3301,3.2071,3.0052,2.9687,3.3109,3.4686,3.668,4.0027,4.0489,3.97,3.7546,3.7296,3.8123,0.0,0.0,0.0,4.0489,4.3662,4.5586,4.5586,4.5586,4.5586,4.5586,4.5586,4.5586,4.5586,4.5586,4.5586,4.5586,4.5586,4.5586,4.5586,4.5586,4.5586,4.5586,4.5586,4.5586,4.5586,4.5586,4.5586,4.5586,4.5586,4.5586,4.5586,4.5586,4.5586,4.5661,4.6136,4.6308,4.6308,4.6308,4.6308,4.6308,4.6308,4.6308,4.6308,4.6308,4.6308,4.6308,4.6308,4.5786,4.496,4.375,4.272,4.1863,4.1212,4.0812,4.0581,4.0581,4.0543,4.0489,4.0489,4.0065,3.9527,3.8969,3.8892,3.8469,3.7315,3.6892,3.6507,3.5988,3.568,3.5493,3.5493,3.5853,3.6059,3.6059,3.6439,3.6928,3.7492,3.7494,3.7759,3.8324,3.8315,3.831,3.831,3.857,3.8679,3.8642,3.9431,3.9758,2.7199,2.9271,3.1421,3.4369,3.5716,3.5881,3.4338,3.3468,3.3461,3.5147,3.2917,2.9552,0.0,0.0,2.636,2.961,3.3147,3.668,4.0027,4.0489,4.0489,0.0,0.0,0.0,0.0,0.0,0.0,4.0758,0.0,4.5586,4.5586,4.5586,4.5586,4.5586,4.5586,4.5586,4.5586,4.5586,4.5586,4.5586,4.5586,4.5586,4.5586,4.5586,4.5586,4.5586,4.5586,4.5586,4.5586,4.5586,4.5586,4.5586,4.5586,4.5586,4.5586,4.5586,4.5586,4.5661,4.6099,4.6289,4.6308,4.6308,4.6308,4.6308,4.6308,4.6308,4.6308,4.6308,4.6308,4.6308,4.6308,4.6308,4.6265,4.6137,4.416,4.2294,4.2183,4.1435,4.0785,4.0773,4.062,4.0489,4.0489,4.0489,4.0489,4.0489,4.0489,3.9912,3.8277,3.7334,3.6815,3.6776,3.6084,3.5641,3.5641,3.6444,3.6972,3.6991,3.7874,3.8421,3.846,3.8478,3.8496,3.8535,3.8487,3.8442,3.8442,3.9267,3.9606,3.9499,4.0308,4.0639,2.4408,2.8694,3.4416,3.7076,3.6997,3.6297,3.6272,3.522,3.4466,3.5321,3.4801,3.2378,0.0,0.0,0.0,2.6456,3.1609,0.0,4.0027,4.0489,0.0,0.0,0.0,4.1489,4.4047,4.4297,0.0,0.0,4.5105,4.5586,4.5586,4.5586,4.5586,4.5586,4.5586,4.5586,4.5586,4.5586,4.5586,4.5586,4.5586,4.5586,4.5586,4.5586,4.5586,4.5586,4.5586,4.5586,4.5586,4.5586,4.5586,4.5586,4.5586,4.5586,4.5586,4.5586,4.5586,4.562,4.5742,4.6013,4.6308,4.6308,4.6308,4.6308,4.6308,4.6308,4.6308,4.6308,4.6308,4.6308,4.6308,4.6308,4.6289,4.6262,4.5735,4.4832,4.3384,4.2384,4.1729,4.1677,4.1024,4.0489,4.0489,4.0489,4.0489,4.0489,4.0489,4.0123,3.9104,3.8757,3.8392,3.7738,3.7488,3.7392,3.7502,3.7781,3.7963,3.802,3.835,3.8834,3.9497,3.9527,3.9824,4.0469,4.0465,4.0461,4.0461,4.0578,4.0628,4.0582,4.0672,4.0677,2.7486,3.1321,3.6058,3.7644,3.712,3.6298,3.6686,3.4936,3.3537,3.4545,3.3971,0.0,0.0,0.0,0.0,0.0,0.0,0.0,3.9961,4.0489,4.0489,0.0,4.1816,0.0,4.5413,4.5586,4.5586,0.0,4.5586,4.5586,4.5586,4.5586,4.5586,4.5586,4.5586,4.5586,4.5586,4.5586,4.5586,4.5586,4.5586,4.5586,4.5586,4.5586,4.5586,4.5586,4.5586,4.5586,4.5586,4.5586,4.5586,4.5586,4.5586,4.5586,4.5586,4.5586,4.5586,4.5586,4.5586,4.5777,4.6027,4.6223,4.6308,4.6308,4.6308,4.6308,4.6308,4.6308,4.6308,4.6308,4.6308,4.6308,4.6308,4.6308,4.6297,4.5991,4.4914,4.3353,4.2039,4.1528,4.0927,4.0489,4.0489,4.0489,4.0489,4.0489,4.0489,4.0335,3.9873,3.9508,3.9104,3.8623,3.8238,3.8046,3.8176,3.8612,3.8899,3.8973,3.9463,3.9961,4.0449,4.0469,4.0703,4.1191,4.1191,4.1191,4.1191,4.1113,4.1055,4.1015,4.1279,4.1338,3.3051,3.5101,3.662,3.6921,3.6541,3.6215,3.6534,3.4082,3.1733,3.1843,0.0,0.0,2.05,0.0,2.1566,2.846,0.0,3.4654,3.8991,4.0117,4.0662,4.1104,4.3778,4.5586,4.5586,4.5586,4.5586,4.5586,4.5586,4.5586,4.5586,4.5586,4.5586,4.5586,4.5586,4.5586,4.5586,4.5586,4.5586,4.5586,4.5586,4.5586,4.5586,4.5586,4.5586,4.5586,4.5586,4.5586,4.5586,4.5586,4.5586,4.5586,4.5586,4.5586,4.5586,4.5586,4.5586,4.5586,4.5586,4.5586,4.5661,4.6059,4.6246,4.6308,4.6308,4.6308,4.6308,4.6308,4.6308,4.6308,4.6308,4.6308,4.6308,4.6308,4.6308,4.6308,4.6308,4.4375,4.2307,4.1141,4.081,4.0658,4.0562,4.0543,4.0543,4.0543,4.0543,4.0543,4.0543,3.9912,3.945,3.945,3.8796,3.8411,3.8522,3.9314,3.982,3.9886,4.071,4.1191,4.1191,4.1191,4.1191,4.1191,4.1191,4.125,4.1367,4.1367,4.1367,4.1387,4.2129,4.2368,3.4793,3.5508,3.581,3.5854,3.6058,3.6625,3.7979,3.5734,0.0,0.0,0.0,2.0841,1.9537,1.9305,0.0,2.4632,0.0,0.0,0.0,0.0,4.1546,0.0,0.0,0.0,0.0,0.0,0.0,0.0,0.0,4.5586,4.5586,4.5586,4.5586,4.5586,4.5586,4.5586,4.5586,4.5586,4.5586,4.5586,4.5586,4.5586,4.5586,4.5586,4.5586,4.5586,4.5586,0.0,4.5586,4.5586,4.5586,4.5586,4.5586,4.5586,4.5586,4.5586,4.5586,4.5586,4.5586,4.5586,4.562,4.5688,4.5971,4.6308,4.6308,4.6308,4.6308,4.6308,4.6308,4.6308,4.6308,4.6308,4.6308,4.6308,4.6308,4.6308,4.6308,4.5332,4.3964,4.2349,4.1879,4.1501,4.0793,4.0677,4.0677,4.0677,4.0716,4.0754,4.0754,4.0485,4.0277,4.0277,4.0273,4.0254,4.0331,4.0598,4.0798,4.0935,4.1091,4.1191,4.1191,4.1191,4.1191,4.1191,4.1191,4.1523,4.2187,4.2187,4.2558,4.3223,4.332,4.331,3.5148,3.5622,3.5622,3.5622,3.5762,3.5545,3.3988,0.0,0.0,0.0,0.0,1.6853,1.8932,0.0,0.0,0.0,0.0,0.0,0.0,0.0,0.0,0.0,0.0,0.0,0.0,0.0,0.0,0.0,0.0,4.5586,4.5586,4.5586,4.5586,4.5586,4.5586,4.5586,4.5586,4.5586,4.5586,4.5586,4.5586,4.5586,4.5586,4.5586,4.5586,4.5586,4.5586,4.5586,4.5586,4.5586,4.5586,4.5586,4.5586,4.5586,4.5586,4.5586,4.5586,4.5586,4.5586,4.5586,4.5586,4.5586,4.575,4.599,4.6223,4.6308,4.6308,4.6308,4.6308,4.6308,4.6308,4.6308,4.6308,4.6308,4.6308,4.6308,4.6308,4.5957,4.5098,4.332,4.2655,4.2179,4.1538,4.1043,4.0737,4.075,4.0773,4.0792,4.0792,4.0715,4.0655,4.0654,4.0716,4.0793,4.0889,4.0947,4.1059,4.119,4.1191,4.1191,4.1191,4.1191,4.1406,4.1816,4.1816,4.2246,4.3086,4.3086,4.3281,4.3711,4.4121,4.4261,3.503,3.5622,3.5622,3.5622,3.5403,3.3952,2.9087,2.5293,0.0,0.0,0.0,1.4537,1.8283,0.0,0.0,0.0,0.0,0.0,0.0,0.0,0.0,0.0,0.0,0.0,0.0,0.0,0.0,0.0,0.0,4.5475,4.5586,4.5586,4.5586,4.5586,4.5586,4.5586,4.5586,4.5586,4.5586,4.5586,4.5586,4.5586,4.5586,4.5586,4.5586,4.5586,4.5586,4.5586,4.5586,4.5586,4.5586,4.5586,4.5586,4.5586,4.5586,4.5586,4.5586,4.5586,4.5586,4.5586,4.5586,4.5586,4.5586,4.5661,4.6034,4.6221,4.6308,4.6308,4.6308,4.6308,4.6308,4.6308,4.6308,4.6308,4.6308,4.6308,4.6308,4.6308,4.582,4.4219,4.3516,4.301,4.2507,4.1696,4.1109,4.1131,4.0984,4.0883,4.0879,4.0898,4.0888,4.0893,4.0858,4.0889,4.0985,4.1029,4.1099,4.119,4.1191,4.1191,4.1191,4.1367,4.1758,4.2383,4.2578,4.3105,4.3984,4.3984,4.4062,4.4277,4.4961,4.5216,3.4844,3.5622,3.5622,3.5622,3.4796,3.2338,2.6057,0.0,0.0,0.0,1.3599,1.4329,1.7365,0.0,0.0,0.0,0.0,0.0,0.0,0.0,0.0,0.0,0.0,0.0,0.0,0.0,0.0,0.0,0.0,4.5142,4.5586,4.5586,4.5586,4.5586,4.5586,4.5586,4.5586,4.5586,4.5586,4.5586,4.5586,4.5586,4.5586,4.5586,4.5586,4.5586,4.5586,4.5586,0.0,4.5586,4.5586,4.5586,4.5586,4.5586,4.5586,4.5586,4.5586,4.5586,4.5586,4.5586,4.5586,4.5586,4.5586,4.5603,4.5648,4.5955,4.6308,4.6308,4.6308,4.6308,4.6308,4.6308,4.6308,4.6308,4.6308,4.6308,4.6308,4.6308,4.6016,4.5058,4.4785,4.4433,4.3609,4.2742,4.2148,4.2174,4.1584,4.1155,4.1155,4.1151,4.1163,4.1166,4.1049,4.0985,4.0985,4.111,4.1189,4.1191,4.1191,4.1191,4.1191,4.1894,4.2324,4.2402,4.3183,4.4004,4.4883,4.4883,4.5293,4.6055,4.6133,4.6112,3.481,3.5622,3.5622,3.5622,3.3916,3.0633,2.4471,0.0,0.0,1.6289,1.4649,1.4311,1.727,1.8128,0.0,0.0,0.0,0.0,0.0,0.0,0.0,0.0,0.0,0.0,0.0,0.0,0.0,0.0,4.4682,4.4806,4.4988,4.5381,4.5586,4.5586,4.5586,4.5586,4.5586,4.5586,4.5586,4.5586,4.5586,4.5586,4.5586,4.5586,4.5586,4.5586,4.5586,4.5586,0.0,4.5586,4.5586,4.5586,4.5586,4.5586,4.5586,4.5586,4.5586,4.5586,4.5586,4.5586,4.5586,4.5586,4.5586,4.5586,4.5586,4.5728,4.5948,4.6221,4.6308,4.6308,4.6308,4.6308,4.6308,4.6308,4.6308,4.6308,4.6308,4.6308,4.6191,4.5859,4.5332,4.4844,4.4492,4.3723,4.315,4.315,4.2893,4.2518,4.1992,4.1927,4.1732,4.1244,4.115,4.1117,4.1117,4.1177,4.1191,4.1191,4.1641,4.1914,4.1914,4.2734,4.3437,4.3945,4.4316,4.4902,4.5781,4.5781,4.5957,4.6308,4.6308,4.6269,3.3508,3.432,3.432,3.432,3.2747,2.9634,0.0,0.0,1.7811,1.7811,1.6153,1.5341,1.7422,1.7811,1.7811,0.0,0.0,0.0,0.0,0.0,0.0,0.0,0.0,0.0,0.0,0.0,0.0,0.0,4.428,4.428,4.428,4.4811,4.5264,4.5586,4.5586,4.5586,4.5586,4.5586,4.5586,4.5586,4.5586,4.5586,4.5586,4.5586,4.5586,4.5586,4.5586,4.5586,0.0,4.5586,4.5586,4.5586,4.5586,4.5586,4.5586,4.5586,4.5586,4.5586,4.5586,4.5586,4.5586,4.5586,4.5586,4.5586,4.5586,4.5586,4.5661,4.6006,4.6195,4.6308,4.6308,4.6308,4.6308,4.6308,4.6308,4.6308,4.6308,4.6308,4.6308,4.6308,4.5801,4.5371,4.5371,4.4668,4.4082,4.4082,4.3867,4.3476,4.2851,4.2773,4.2578,4.1992,4.1933,4.1836,4.1582,4.1797,4.1933,4.1933,4.2461,4.2773,4.2773,4.3613,4.4375,4.498,4.5254,4.5683,4.6308,4.6308,4.6308,4.6308,4.6308,4.6308,3.0429,3.1241,3.1241,3.1241,3.1207,2.9634,0.0,1.9976,1.7811,1.7811,1.7794,1.7755,1.7772,1.7811,1.7811,1.7811,0.0,0.0,0.0,0.0,0.0,0.0,0.0,0.0,0.0,0.0,0.0,4.3513,4.3513,0.0,4.3513,4.3818,4.4497,4.5568,4.5586,4.5586,4.5586,4.5586,4.5586,4.5586,4.5586,4.5586,4.5586,4.5586,4.5586,4.5586,4.5586,4.5586,0.0,4.5586,4.5586,4.5586,4.5586,4.5586,4.5586,4.5586,4.5586,4.5586,4.5586,4.5586,4.5586,4.5586,4.5586,4.5586,4.5586,4.5586,4.5603,4.5603,4.5929,4.6308,4.6308,4.6308,4.6308,4.6308,4.6308,4.6308,4.6308,4.6308,4.6308,4.6308,4.6289,4.6289,4.6289,4.5566,4.498,4.498,4.4258,4.3691,4.3691,4.3691,4.3672,4.3672,4.3672,4.332,4.2461,4.3183,4.3672,4.3672,4.3672,4.3691,4.3691,4.4512,4.498,4.5,4.5859,4.6289,4.6308,4.6308,4.6308,4.6308,4.6308,4.6308,2.7317,2.8112,2.8112,2.8112,2.8112,2.7097,2.3207,1.9976,1.7811,1.7811,1.7811,1.7811,1.7811,1.7811,1.8809,2.187,2.4019,0.0,0.0,0.0,0.0,0.0,0.0,0.0,0.0,0.0,0.0,4.3497,4.3497,4.3497,4.3497,4.3597,4.3804,4.4146,4.4787,4.5283,4.5586,4.5586,4.5586,4.5586,4.5586,4.5586,4.5586,4.5586,4.5586,4.5586,4.5586,4.5586,4.5586,4.5586,4.5586,4.5586,4.5586,4.5586,4.5586,4.5586,4.5586,4.5586,4.5586,4.5586,4.5586,4.5586,4.5586,4.5586,4.5586,4.5586,4.5586,4.5586,4.5948,4.6308,4.6308,4.6308,4.6308,4.6308,4.6308,4.6308,4.6308,4.6308,4.6308,4.6308,4.6308,4.6308,4.6308,4.6074,4.5898,4.5898,4.5644,4.5254,4.4668,4.459,4.4355,4.3769,4.4238,4.4238,4.3359,4.3535,4.3691,4.3691,4.4258,4.459,4.459,4.543,4.5898,4.5898,4.6152,4.6308,4.6308,4.6308,4.6308,4.6308,4.6308,4.6308,0.0,2.4205,2.3342,2.3342,2.3342,2.3156,2.2462,1.9976,1.7811,1.7811,1.7811,1.7811,1.7811,1.7811,1.891,2.226,2.5,0.0,0.0,0.0,0.0,0.0,0.0,0.0,0.0,0.0,4.3497,4.3497,4.3497,4.3497,4.3497,4.3497,4.3497,4.3497,4.4076,4.4516,4.4792,4.5077,4.5203,4.5222,4.5495,4.5586,4.5586,4.5586,4.5586,4.5586,4.5586,4.5586,0.0,4.5586,4.5586,4.5586,4.5586,4.5586,4.5586,4.5586,4.5586,4.5586,4.5586,4.5586,4.5586,4.5586,4.5586,4.5586,4.5586,4.5586,4.5586,4.5586,4.5948,4.6308,4.6308,4.6308,4.6308,4.6308,4.6308,4.6308,4.6308,4.6308,4.6308,4.6308,4.6308,4.6308,4.6308,4.6308,4.6308,4.6308,4.6308,4.6094,4.5566,4.5488,4.5273,4.4746,4.5176,4.5273,4.4726,4.4687,4.4687,4.4687,4.5195,4.5488,4.5488,4.6016,4.6308,4.6308,4.6308,4.6308,4.6308,4.6308,4.6308,4.6308,4.6308,4.6308,0.0,1.9723,1.7811,1.7811,1.7659,1.8234,2.1042,1.9587,0.0,1.7794,1.7811,1.7845,1.7997,1.7941,1.8454,2.0052,2.3866,0.0,0.0,0.0,0.0,0.0,0.0,0.0,0.0,0.0,4.3497,4.3497,4.3497,4.3497,4.3497,4.3497,4.3497,4.3497,4.3497,4.3513,4.3548,4.4213,4.458,4.4624,4.5243,4.5531,4.5531,4.5568,4.5568,0.0,4.5586,4.5586,4.5586,4.5586,4.5586,4.5586,4.5586,4.5586,4.5586,4.5586,4.5586,4.5586,4.5586,4.5586,4.5586,4.5586,4.5586,4.5586,4.5586,4.5586,4.5586,4.5586,4.5901,4.6267,4.6289,4.6308,4.6308,4.6308,4.6308,4.6308,4.6308,4.6308,4.6308,4.6308,4.6308,4.6308,4.6308,4.6308,4.6308,4.6308,4.6308,4.6308,4.6308,4.6308,4.6308,4.6308,4.6308,4.6308,4.6308,4.6308,4.6308,4.6308,4.6308,4.6308,4.6308,4.6308,4.6308,4.6308,4.6308,4.6308,4.6308,4.6308,4.6308,4.6308,4.6308,4.6308,1.4205,0.0,1.7811,1.7811,1.6103,1.4633,0.0,1.5815,0.0,0.0,0.0,0.0,0.0,0.0,0.0,0.0,0.0,0.0,0.0,0.0,0.0,0.0,0.0,0.0,0.0,4.3277,4.3497,4.3497,4.3497,4.3497,4.3497,4.3497,4.3497,4.3497,4.3497,4.3612,4.3881,4.4046,4.4308,4.4606,4.4757,4.4849,4.483,4.5096,4.5222,4.5222,4.5495,4.5586,4.5586,4.5586,4.5586,4.5586,4.5586,4.5586,4.5586,4.5586,4.5586,4.5586,4.5586,4.5586,4.5586,4.5586,4.5586,4.5586,4.5586,4.5586,4.5586,4.5586,4.5677,4.5836,4.6217,4.6308,4.6308,4.6308,4.6308,4.6308,4.6308,4.6308,4.6308,4.6308,4.6308,4.6308,4.6308,4.6308,4.6308,4.6308,4.6308,4.6308,4.6308,4.6308,4.6308,4.6308,4.6308,4.6308,4.6308,4.6308,4.6308,4.6308,4.6308,4.6308,4.6308,4.6308,4.6308,4.6308,4.6308,4.6308,4.6308,4.6308,4.6308,4.6308,4.6308,4.6308,1.2553,1.6122,1.9875,1.9875,1.7117,1.4412,1.4412,0.0,0.0,0.0,0.0,0.0,0.0,0.0,0.0,0.0,0.0,0.0,0.0,0.0,0.0,0.0,0.0,0.0,0.0,4.3497,4.3497,4.3497,4.3497,4.3497,4.3497,4.3497,4.3497,4.3497,4.3497,4.3597,4.3772,4.3772,4.3899,4.4095,4.4252,4.4318,4.4318,4.4707,4.4872,4.4896,4.5161,4.5283,4.5303,4.5513,4.5586,4.5586,4.5586,4.5586,4.5586,4.5586,4.5586,4.5586,4.5586,4.5586,4.5586,4.5586,4.5586,4.5586,4.5586,4.5586,4.5586,4.5586,4.5586,4.5665,4.5901,4.6136,4.6308,4.6308,4.6308,4.6308,4.6308,4.6308,4.6308,4.6308,4.6308,4.6308,4.6308,4.6308,4.6308,4.6308,4.6308,4.6308,4.6308,4.6308,4.6308,4.6308,4.6308,4.6308,4.6308,4.6308,4.6308,4.6308,4.6308,4.6308,4.6308,4.6308,4.6308,4.6308,4.6308,4.6308,4.6308,4.6308,4.6308,4.6308,4.6308,4.6308,1.3893,1.7897,2.1735,2.2192,1.9125,1.6051,0.0,0.0,0.0,0.0,0.0,0.0,0.0,0.0,0.0,0.0,0.0,0.0,0.0,0.0,0.0,0.0,0.0,0.0,4.3497,4.3497,4.3497,4.3497,4.3497,4.3497,4.3497,4.3497,4.3497,4.3497,4.3497,4.3497,4.3497,4.3497,4.3497,4.3479,4.3772,4.3924,4.3924,4.4337,4.4527,4.4553,4.4787,0.0,4.5036,4.5438,4.5586,4.5586,4.5586,4.5586,4.5586,4.5586,4.5586,4.5586,4.5586,4.5586,4.5586,4.5586,4.5586,4.5586,4.5586,4.5586,4.5586,4.5586,4.5586,4.5586,4.5586,4.5901,4.6195,4.6195,4.6246,4.6308,4.6308,4.6308,4.6308,4.6308,4.6308,4.6308,4.6308,4.6308,4.6308,4.6308,4.6308,4.6308,4.6308,4.6308,4.6308,4.6308,4.6308,4.6308,4.6308,4.6308,4.6308,4.6308,4.6308,4.6308,4.6308,4.6308,4.6308,4.6308,4.6308,4.6308,4.6308,4.6308,4.6308,4.6308,4.6308,4.6308,1.7455,1.8603,1.9113,2.1667,2.0123,1.8093,0.0,0.0,0.0,0.0,0.0,0.0,0.0,0.0,0.0,0.0,0.0,0.0,0.0,0.0,0.0,0.0,0.0,4.3497,4.3497,4.3497,4.3497,4.3497,4.3497,4.3497,4.3497,4.3497,4.3497,4.3497,4.3497,4.3497,4.3497,4.3497,4.3497,4.3497,4.3529,4.3563,4.3597,4.3924,4.4146,4.429,0.0,4.512,4.5513,4.5568,4.5586,4.5586,4.5586,4.5586,4.5586,4.5586,4.5586,4.5586,4.5586,4.5586,4.5586,4.5586,4.5586,4.5586,4.5586,4.5586,4.5586,4.5586,4.5586,4.5586,4.5586,4.5648,4.5718,4.5718,4.6013,4.6308,4.6308,4.6308,4.6308,4.6308,4.6308,4.6308,4.6308,4.6308,4.6308,4.6308,4.6308,4.6308,4.6308,4.6308,4.6308,4.6308,4.6308,4.6308,4.6308,4.6308,4.6308,4.6308,4.6308,4.6308,4.6308,4.6308,4.6308,4.6308,4.6308,4.6308,4.6308,4.6308,4.6308,4.6308,4.6308,4.6308,1.4767,1.6558,1.8358,2.0953,2.0822,2.0152,0.0,0.0,0.0,0.0,0.0,0.0,0.0,0.0,0.0,0.0,0.0,0.0,0.0,0.0,0.0,0.0,0.0,4.3178,4.3479,4.3497,4.3497,4.3497,4.3497,4.3497,4.3497,4.3497,4.3497,4.3497,4.3497,4.3497,4.3497,4.3497,4.3497,4.3497,4.3497,4.3497,4.3532,4.3679,4.374,4.3836,4.4046,4.4261,4.4463,4.4463,4.4905,4.5586,4.5586,4.5586,4.5586,4.5586,4.5586,4.5586,4.5586,4.5586,4.5586,4.5586,4.5586,4.5586,4.5586,4.5586,4.5586,4.5586,4.5586,4.5586,4.5586,4.5586,4.5586,4.5586,4.5764,4.591,4.591,4.6128,4.6308,4.6308,4.6308,4.6308,4.6308,4.6308,4.6308,4.6308,4.6308,4.6308,4.6308,4.6308,4.6308,4.6308,4.6308,4.6308,4.6308,4.6308,4.6308,4.6308,4.6308,4.6308,4.6308,4.6308,4.6308,4.6308,4.6308,4.6308,4.6308,4.6308,4.6308,4.6308,4.6308,4.6308,1.1805,1.4244,1.7302,0.0,0.0,0.0,0.0,0.0,0.0,0.0,0.0,0.0,0.0,0.0,0.0,0.0,0.0,0.0,0.0,0.0,0.0,0.0,4.1886,4.2864,4.325,4.341,4.3497,4.3497,4.3497,4.3497,4.3497,4.3497,4.3497,4.3497,4.3497,4.3497,4.3497,4.3497,4.3497,4.3497,4.3497,4.3497,4.3497,4.3497,4.3497,4.3497,4.3497,4.3497,4.3497,4.3497,4.4146,4.512,4.512,4.5303,4.5586,4.5586,4.5586,4.5586,4.5586,4.5586,4.5586,4.5586,4.5586,4.5586,4.5586,4.5586,4.5586,4.5586,4.5586,4.5586,4.5586,4.5586,4.5586,4.5586,4.5586,4.5586,4.5586,4.588,4.6132,4.6132,4.6221,4.6308,4.6308,4.6308,4.6308,4.6308,4.6308,4.6308,4.6308,4.6308,4.6308,4.6308,4.6308,4.6308,4.6308,4.6308,4.6308,4.6308,4.6308,4.6308,4.6308,4.6273,4.627,4.6308,4.6246,4.6246,4.6308,4.6269,4.6269,4.6308,4.6308,4.6308,1.1805,1.2927,1.4558,1.6533,0.0,0.0,0.0,0.0,0.0,0.0,0.0,0.0,0.0,0.0,0.0,0.0,0.0,0.0,0.0,0.0,4.0054,4.0793,4.1943,4.2711,4.2732,4.3214,4.3497,4.3497,4.3497,4.3497,4.3497,4.3497,4.3497,4.3497,4.3497,4.3497,4.3497,4.3497,4.3497,4.3497,4.3497,4.3497,4.3497,4.3497,4.3497,4.3497,4.3497,4.3497,4.3497,4.3497,4.3582,4.3646,4.3646,4.4463,4.5586,4.5586,4.5586,4.5586,4.5586,4.5586,4.5586,4.5586,4.5586,4.5586,4.5586,4.5586,4.5586,4.5586,4.5586,4.5586,4.5586,4.5586,4.5586,4.5586,4.5586,4.5586,4.5586,4.5618,4.5648,4.5648,4.6006,4.6308,4.6308,4.6308,4.6308,4.6308,4.6308,4.6308,4.6308,4.6308,4.6308,4.6308,4.6308,4.6308,4.6308,4.6308,4.6308,4.6308,4.6308,4.6308,4.6308,4.6182,4.6169,4.6308,4.6069,4.6045,4.6308,4.6172,4.6172,4.6308,4.6308,4.6308,1.1805,1.378,0.0,0.0,0.0,0.0,0.0,0.0,0.0,0.0,0.0,0.0,0.0,0.0,0.0,0.0,0.0,0.0,0.0,0.0,4.022,4.0839,4.1296,4.1895,4.2616,4.2902,4.3142,4.3479,4.3497,4.3497,4.3497,4.3497,4.3497,4.3497,4.3497,4.3497,4.3497,4.3497,4.3497,4.3497,4.3497,4.3497,4.3497,4.3497,4.3497,4.3497,4.3497,4.3497,4.3497,4.3497,4.3497,4.3497,4.3497,4.3836,4.4409,4.5283,4.5036,4.4409,4.5303,4.5586,4.5586,4.5586,4.5586,4.5586,4.5586,4.5586,4.5586,4.5586,4.5586,4.5586,4.5586,4.5586,4.5586,4.5586,4.5586,4.5586,4.5586,4.5586,4.5586,4.5586,4.5736,4.5859,4.5859,4.6119,4.6308,4.6308,4.6308,4.6308,4.6308,4.6308,4.6308,4.6308,4.6308,4.6308,4.6308,4.6308,4.6308,4.6308,4.6308,4.6308,4.6308,4.6249,4.6146,4.5986,4.6003,4.608,4.618,4.6124,4.6172,4.6308,4.6308,4.6308,1.2628,1.5007,0.0,0.0,0.0,0.0,0.0,0.0,0.0,0.0,0.0,0.0,0.0,0.0,0.0,0.0,0.0,0.0,0.0,3.8954,3.9999,4.059,4.078,4.1206,4.2038,4.248,4.2864,4.3214,4.341,4.3497,4.3497,4.3497,4.3497,4.3497,4.3497,4.3497,4.3497,4.3497,4.3497,4.3497,4.3497,4.3497,4.3497,4.3497,4.3497,4.3497,4.3497,4.3497,4.3497,4.3497,4.3497,4.3497,4.3497,4.3497,4.3631,4.4594,4.4327,4.3664,4.4594,4.5223,4.5586,4.5586,4.5586,4.5586,4.5586,4.5586,4.5586,4.5586,4.5586,4.5586,4.5586,4.5586,4.5586,4.5586,4.5586,4.5586,4.5586,4.5586,4.5586,4.5586,4.5586,4.5586,4.5586,4.5869,4.6084,4.6084,4.6217,4.6308,4.6308,4.6308,4.6308,4.6308,4.6308,4.6308,4.6308,4.6167,4.6084,4.6084,4.6084,4.6084,4.6084,4.6084,4.5998,4.5796,4.5892,4.5969,4.6026,4.6045,4.6106,4.623,4.6289,4.6308,1.4408,0.0,0.0,0.0,0.0,0.0,0.0,0.0,0.0,0.0,0.0,0.0,0.0,0.0,0.0,0.0,0.0,0.0,3.7787,3.8514,3.9242,3.9986,4.0559,4.0903,4.0903,4.1979,4.2711,4.2711,4.3178,4.3479,4.3497,4.3497,4.3497,4.3497,4.3497,4.3497,4.3497,4.3497,4.3497,4.3497,4.3497,4.3497,4.3497,4.3497,4.3497,4.3497,4.3497,4.3497,4.3497,4.3497,4.3497,4.3497,4.3497,4.3497,4.3497,4.3497,4.3497,4.3497,4.3497,4.4409,4.5586,4.5586,4.5586,4.5586,4.5586,4.5586,4.5586,4.5586,4.5586,4.5586,4.5586,4.5586,4.5586,4.5586,4.5586,4.5586,4.5586,4.5586,4.5586,4.5586,4.5586,4.5586,4.5586,4.5586,4.5586,4.5586,4.5998,4.6289,4.6308,4.6308,4.6308,4.6308,4.6308,4.6308,4.6289,4.5869,4.5586,4.5586,4.5586,4.5586,4.5586,4.5586,4.5643,4.5796,4.568,4.5699,4.5892,4.5902,4.5981,4.6113,4.623,4.6308,1.4109,0.0,0.0,0.0,0.0,0.0,0.0,0.0,0.0,0.0,0.0,0.0,0.0,0.0,0.0,0.0,0.0,3.6857,3.7094,3.7753,3.8497,3.9225,3.9489,3.9932,4.0804,4.1206,4.181,4.2616,4.2864,4.3105,4.3479,4.3497,4.3497,4.3497,4.3497,4.3497,4.3497,4.3497,4.3497,4.3497,4.3497,4.3497,4.3497,4.3497,4.3497,4.3497,4.3497,4.3497,4.3497,4.3497,4.3497,4.3497,4.3497,4.3497,4.3497,4.3497,4.3497,4.3497,4.3497,4.3772,4.4117,4.4117,4.4792,4.5586,4.5586,4.5586,4.5586,4.5586,4.5586,4.5586,4.5586,4.5586,4.5586,4.5586,4.5586,4.5586,4.5586,4.5586,4.5586,4.5586,4.5586,4.5586,4.5586,4.5586,4.5586,4.5586,4.5713,4.5939,4.6267,4.6308,4.6308,4.6308,4.6308,4.6167,4.5844,4.5677,4.5586,4.5586,4.5586,4.5586,4.5586,4.5586,4.5605,4.5643,4.5605,4.5624,4.5699,4.568,4.5881,4.623,4.6094,4.6113,0.0,0.0,0.0,0.0,0.0,0.0,0.0,0.0,0.0,0.0,0.0,0.0,0.0,0.0,0.0,0.0,3.5639,3.6315,3.6315,3.6721,3.7313,3.8142,3.843,3.8846,3.962,3.9882,4.0438,4.1458,4.1956,4.2502,4.316,4.3375,4.3497,4.3497,4.3497,4.3497,4.3497,4.3497,4.3497,4.3497,4.3497,4.3497,4.3497,4.3497,4.3497,4.3497,4.3497,4.3497,4.3497,4.3497,4.3497,4.3497,4.3497,4.3497,4.3497,4.3497,4.3497,4.3497,4.3497,4.3497,4.3497,4.3497,4.4058,4.4881,4.5438,4.5586,4.5586,4.5586,4.5586,4.5586,4.5586,4.5586,4.5586,4.5586,4.5586,4.5586,4.5586,4.5586,4.5586,4.5586,4.5586,4.5586,4.5586,4.5586,4.5586,4.5586,4.5586,4.5703,4.599,4.6173,4.6308,4.6308,4.6308,4.6099,4.5632,4.5586,4.5586,4.5586,4.5586,4.5586,4.5586,4.5586,4.5586,4.5586,4.5586,4.5586,4.5586,4.5586,4.5756,4.6027,4.6044,4.6152,0.0,0.0,0.0,0.0,0.0,0.0,0.0,0.0,0.0,0.0,0.0,0.0,0.0,0.0,0.0,0.0,3.5622,3.5622,3.5622,3.5622,3.596,3.684,3.7466,3.7838,3.7905,3.8362,3.8945,3.9638,4.0704,4.1665,4.2441,4.3068,4.3387,4.3387,4.3442,4.3497,4.3497,4.3497,4.3497,4.3497,4.3497,4.3497,4.3497,4.3497,4.3497,4.3497,4.3497,4.3497,4.3497,4.3497,4.3497,4.3497,4.3497,4.3497,4.3497,4.3497,4.3497,4.3497,4.3497,4.3497,4.3497,4.3497,4.3497,4.3726,4.5014,4.5513,4.5586,4.5586,4.5586,4.5586,4.5586,4.5586,4.5586,4.5586,4.5586,4.5586,4.5586,4.5586,4.5586,4.5586,4.5586,4.5586,4.5586,4.5586,4.5586,4.5586,4.5586,4.5586,4.5586,4.5963,4.6247,4.6308,4.6268,4.6053,4.5651,4.5586,4.5586,4.5586,4.5586,4.5586,4.5586,4.5586,4.5586,4.5586,4.5586,4.5586,4.5586,4.5586,4.5586,4.562,4.6034,4.6267,0.0,0.0,0.0,0.0,0.0,0.0,0.0,0.0,0.0,0.0,0.0,0.0,0.0,0.0,0.0,3.547,3.5622,3.5622,3.5622,3.5622,3.569,3.591,3.6569,3.7263,3.7838,3.8014,3.8311,3.8876,3.9559,4.0206,4.0781,4.1918,4.2561,4.2561,4.3167,4.3497,4.3497,4.3497,4.3497,4.3497,4.3497,4.3497,4.3497,4.3497,4.3497,4.3497,4.3497,4.3497,4.3497,4.3497,4.3497,4.3497,4.3497,4.3497,4.3497,4.3497,4.3497,4.3497,4.3497,4.3497,4.3497,4.3497,4.3497,4.3548,4.3868,4.4719,4.5586,4.5586,4.5586,4.5586,4.5586,4.5586,4.5586,4.5586,4.5586,4.5586,4.5586,4.5586,4.5586,4.5586,4.5586,4.5586,4.5586,4.5586,4.5586,4.5586,4.5586,4.5586,4.5586,4.5692,4.5901,4.6268,4.5982,4.5718,4.5603,4.5586,4.5586,4.5586,4.5586,4.5586,4.5586,4.5586,4.5586,4.5586,4.5586,4.5586,4.5586,4.5586,4.5586,4.5603,4.5703,4.5957,0.0,0.0,0.0,0.0,0.0,0.0,0.0,0.0,0.0,0.0,0.0,0.0,0.0,0.0,0.0,3.5532,3.5622,3.5622,3.5622,3.5622,3.5622,3.5622,3.5977,3.6383,3.6772,3.6806,3.7063,3.7751,3.8303,3.8964,3.9866,4.0836,4.1478,4.1735,4.2506,4.2928,4.2928,4.3296,4.3497,4.3497,4.3497,4.3497,4.3497,4.3497,4.3497,4.3497,4.3497,4.3497,4.3497,4.3497,4.3497,4.3497,4.3497,4.3497,4.3497,4.3497,4.3497,4.3497,4.3497,4.3497,4.3497,4.3497,4.3497,4.3497,4.3497,4.4016,4.4719,4.54,4.5586,4.5586,4.5586,4.5586,4.5586,4.5586,4.5586,4.5586,4.5586,4.5586,4.5586,4.5586,4.5586,4.5586,4.5586,4.5586,4.5586,4.5586,4.5586,4.5586,4.5586,4.5586,4.5688,4.5948,4.5756,4.5586,4.5586,4.5586,4.5586,4.5586,4.5586,4.5586,4.5586,4.5586,4.5586,4.5586,4.5586,4.5586,4.5586,4.5586,4.5586,4.5586,4.5586,4.5728,0.0,0.0,0.0,0.0,0.0,0.0,0.0,0.0,0.0,0.0,0.0,0.0,0.0,0.0,3.5115,3.5224,3.547,3.5622,3.5622,3.5622,3.5622,3.5622,3.5622,3.5622,3.5622,3.5622,3.5893,3.6535,3.6997,3.7781,3.8889,3.9689,4.0346,4.0781,4.1632,4.2139,4.2231,4.3057,4.3424,4.3277,4.3424,4.3497,4.3497,4.3497,4.3497,4.3497,4.3497,4.3497,4.3497,4.3497,4.3497,4.3497,4.3497,4.3497,4.3497,4.3497,4.3497,4.3497,4.3497,4.3497,4.3497,4.3497,4.3497,4.3497,4.3497,4.3497,4.3772,4.5203,4.5586,4.5586,4.5586,4.5586,4.5586,4.5586,4.5586,4.5586,4.5586,4.5586,4.5586,4.5586,4.5586,4.5586,4.5586,4.5586,4.5586,4.5586,4.5586,4.5586,4.5586,4.5586,4.5586,4.5586,4.5586,4.5586,4.5586,4.5586,4.5586,4.5586,4.5586,4.5586,4.5586,4.5586,4.5586,4.5586,4.5586,4.5586,4.5586,4.5586,4.5586,4.5586,4.5586,4.5586,0.0,0.0,0.0,0.0,0.0,0.0,0.0,0.0,0.0,0.0,0.0,0.0,0.0,3.2933,3.3198,3.3786,3.4864,3.5622,3.5622,3.5622,3.5622,3.5622,3.5622,3.5622,3.5622,3.5622,3.5656,3.5774,3.5847,3.6129,3.6793,3.8496,3.9463,3.9536,4.0643,4.1479,4.1937,4.2965,4.3149,4.247,4.3167,4.3497,4.3497,4.3497,4.3497,4.3497,4.3497,4.3497,4.3497,4.3497,4.3497,4.3497,4.3497,4.3497,4.3497,4.3497,4.3497,4.3497,4.3497,4.3497,4.3497,4.3497,4.3497,4.3497,4.3497,4.3497,4.3772,4.5203,4.5586,4.5586,4.5586,4.5586,4.5586,4.5586,4.5586,4.5586,4.5586,4.5586,4.5586,4.5586,4.5586,4.5586,4.5586,4.5586,4.5586,4.5586,4.5586,4.5586,4.5586,4.5586,4.5586,4.5586,4.5586,4.5586,4.5586,4.5586,4.5586,4.5586,4.5586,4.5586,4.5586,4.5586,4.5586,4.5586,4.5586,4.5586,4.5586,4.5586,4.5586,4.5586,4.5586,4.5586,0.0,0.0,0.0,0.0,0.0,0.0,0.0,0.0,0.0,0.0,0.0,0.0,0.0,3.2367,3.2695,3.2986,3.3853,3.4752,3.547,3.5622,3.5622,3.5622,3.5622,3.5622,3.5622,3.5622,3.5622,3.5622,3.5622,3.5694,3.5941,3.6772,3.7768,3.8943,3.9479,3.9882,4.0102,4.1167,4.1919,4.2304,4.2653,4.3057,4.3497,4.3497,4.3497,4.3497,4.3497,4.3497,4.3497,4.3497,4.3497,4.3497,4.3497,4.3497,4.3497,4.3497,4.3497,4.3497,4.3497,4.3497,4.3497,4.3497,4.3497,4.3497,4.3497,4.3497,4.3631,4.4261,4.4992,4.5586,4.5586,4.5586,4.5586,4.5586,4.5586,4.5586,4.5586,4.5586,4.5586,4.5586,4.5586,4.5586,4.5586,4.5586,4.5586,4.5586,4.5586,4.5586,4.5586,4.5586,4.5586,4.5586,4.5586,4.5586,4.5586,4.5586,4.5586,4.5586,4.5586,4.5586,4.5586,4.5586,4.5586,4.5586,4.5586,4.5586,4.5586,4.5586,4.5586,4.5586,4.5586,4.5586,0.0,0.0,0.0,0.0,0.0,0.0,0.0,0.0,0.0,0.0,0.0,0.0,3.0398,3.1339,3.2112,3.2296,3.2879,3.37,3.4704,3.527,3.5622,3.5622,3.5622,3.5622,3.5622,3.5622,3.5622,3.5622,3.5622,3.5622,3.5622,3.5622,3.6316,3.7843,3.8433,3.8707,3.8707,3.9698,4.0799,4.2011,4.2121,4.2506,4.3094,4.3369,4.3497,4.3497,4.3497,4.3497,4.3497,4.3497,4.3497,4.3497,4.3497,4.3497,4.3497,4.3497,4.3497,4.3497,4.3497,4.3497,4.3497,4.3497,4.3497,4.3497,4.3497,4.3497,4.3497,4.3497,4.4261,4.5077,4.5077,4.5323,4.5586,4.5586,4.5586,4.5586,4.5586,4.5586,4.5586,4.5586,4.5586,4.5586,4.5586,4.5586,4.5586,4.5586,4.5586,4.5586,4.5586,4.5586,4.5586,4.5586,4.5586,4.5586,4.5586,4.5586,4.5586,4.5586,4.5586,4.5586,4.5586,4.5586,4.5586,4.5586,4.5586,4.5586,4.5586,4.5586,4.5586,4.5586,4.5586,4.5586,0.0,0.0,0.0,0.0,0.0,0.0,0.0,0.0,0.0,0.0,0.0,0.0,2.7993,2.9326,3.0833,3.1477,3.216,3.2695,3.2749,3.4415,3.5622,3.5622,3.5622,3.5622,3.5622,3.5622,3.5622,3.5622,3.5622,3.5622,3.5622,3.5622,3.5667,3.5783,3.7667,3.8707,3.8707,3.9515,4.0341,4.1185,4.168,4.1919,4.2044,4.302,4.3497,4.3497,4.3497,4.3497,4.3497,4.3497,4.3497,4.3497,4.3497,4.3497,4.3497,4.3497,4.3497,4.3497,4.3497,4.3497,4.3497,4.3497,4.3497,4.3497,4.3497,4.3497,4.3497,4.3497,4.3529,4.3597,4.3597,4.4594,4.5586,4.5586,4.5586,4.5586,4.5586,4.5586,4.5586,4.5586,4.5586,4.5586,4.5586,4.5586,4.5586,4.5586,4.5586,4.5586,4.5586,4.5586,4.5586,4.5586,4.5586,4.5586,4.5586,4.5586,4.5586,4.5586,4.5586,4.5586,4.5586,4.5586,4.5586,4.5586,4.5586,4.5586,4.5586,4.5586,4.5586,4.5586,4.5586,4.5586,0.0,0.0,0.0,0.0,0.0,0.0,0.0,0.0,0.0,0.0,0.0,2.8282,2.8271,2.9463,3.0426,3.0278,3.082,3.1393,3.1882,3.2966,3.4153,3.5424,3.5622,3.5622,3.5622,3.5622,3.5622,3.5622,3.5622,3.5622,3.5622,3.5622,3.5622,3.5622,3.6316,3.7155,3.805,3.8757,3.9533,4.0322,4.0506,4.1056,4.1901,4.247,4.2635,4.2488,4.3185,4.3497,4.3497,4.3497,4.3497,4.3497,4.3497,4.3497,4.3497,4.3497,4.3497,4.3497,4.3497,4.3497,4.3497,4.3497,4.3497,4.3497,4.3497,4.3497,4.3497,4.3497,4.3497,4.3497,4.3497,4.3881,4.4489,4.5381,4.5586,4.5586,4.5586,4.5586,4.5586,4.5586,4.5586,4.5586,4.5586,4.5586,4.5586,4.5586,4.5586,4.5586,4.5586,4.5586,4.5586,4.5586,4.5586,4.5586,4.5586,4.5586,4.5586,4.5586,4.5586,4.5586,4.5586,4.5586,4.5586,4.5586,4.5586,4.5586,4.5586,4.5586,4.5586,4.5586,4.5586,4.5586,0.0,0.0,0.0,0.0,0.0,0.0,0.0,0.0,0.0,0.0,0.0,2.7098,2.7715,2.8763,2.95,2.9567,2.9924,3.0358,3.0884,3.172,3.2893,3.4528,3.5207,3.5622,3.5622,3.5622,3.5622,3.5622,3.5622,3.5622,3.5622,3.5622,3.5622,3.5622,3.5622,3.6274,3.7703,3.8016,3.8456,3.9,3.9101,3.9641,4.0516,4.1125,4.1307,4.1196,4.2541,4.3286,4.3497,4.3497,4.3497,4.3497,4.3497,4.3497,4.3497,4.3497,4.3497,4.3497,4.3497,4.3497,4.3497,4.3497,4.3497,4.3497,4.3497,4.3497,4.3497,4.3497,4.3497,4.3497,4.3497,4.3497,4.3726,4.4669,4.4905,4.5014,4.5513,4.5586,4.5586,4.5586,4.5586,4.5586,4.5586,4.5586,4.5586,4.5586,4.5586,4.5586,4.5586,4.5586,4.5586,4.5586,4.5586,4.5586,4.5586,4.5586,4.5586,4.5586,4.5586,4.5586,4.5586,4.5586,4.5586,4.5586,4.5586,4.5586,4.5586,4.5586,4.5586,4.5586,4.5586,4.5586,0.0,0.0,0.0,0.0,0.0,0.0,0.0,0.0,0.0,0.0,0.0,2.558,2.6123,2.6885,2.7919,2.9267,2.952,2.9549,2.9549,3.0723,3.1887,3.2723,3.4382,3.5509,3.5509,3.5509,3.5571,3.5622,3.5622,3.5622,3.5622,3.5622,3.5622,3.5622,3.5622,3.6232,3.7614,3.734,3.719,3.7173,3.7524,3.7703,3.7739,3.9077,3.9645,3.9682,4.1622,4.2846,4.3497,4.3497,4.3497,4.3497,4.3497,4.3497,4.3497,4.3497,4.3497,4.3497,4.3497,4.3497,4.3497,4.3497,4.3497,4.3497,4.3497,4.3497,4.3497,4.3497,4.3497,4.3497,4.3497,4.3497,4.3497,4.3497,4.3497,4.3881,4.5244,4.5568,4.5586,4.5586,4.5586,4.5586,4.5586,4.5586,4.5586,4.5586,4.5586,4.5586,4.5586,4.5586,4.5586,4.5586,4.5586,4.5586,4.5586,4.5586,4.5586,4.5586,4.5586,4.5586,4.5586,4.5586,4.5586,4.5586,4.5586,4.5586,4.5586,4.5586,4.5586,4.5586,4.5586,4.5586,0.9935,0.0,0.0,0.0,0.0,0.0,0.0,0.0,0.0,0.0,0.0,2.3573,2.4821,2.5664,2.6436,2.7295,2.8233,2.8876,2.8876,2.9629,3.0403,3.1156,3.2062,3.2842,3.3288,3.3722,3.4455,0.0,3.5622,3.5622,3.5622,3.5622,3.5622,3.5622,3.5622,3.5766,3.6165,3.6603,3.686,3.6843,3.719,3.734,3.7376,3.8768,3.9417,3.9512,4.2087,4.3321,4.3497,4.3497,4.3497,4.3497,4.3497,4.3497,4.3497,4.3497,4.3497,4.3497,4.3497,4.3497,4.3497,4.3497,4.3497,4.3497,4.3497,4.3497,4.3497,4.3497,4.3497,4.3497,4.3497,4.3497,4.3497,4.3497,4.3497,4.3597,4.3986,4.4881,4.5586,4.5586,4.5586,4.5586,4.5586,4.5586,4.5586,4.5586,4.5586,4.5586,4.5586,4.5586,4.5586,4.5586,4.5586,4.5586,4.5586,4.5586,4.5586,4.5586,4.5586,4.5586,4.5586,4.5586,4.5586,4.5586,4.5586,4.5586,4.5586,4.5586,4.5586,4.5586,4.5586,4.5586,0.0,0.0,0.0,0.0,0.0,0.0,0.0,1.6368,0.0,0.0,2.0872,2.1774,2.3505,2.4133,2.4687,2.5615,2.6437,2.723,2.8053,2.8742,2.9448,3.0092,3.0725,3.1486,3.2406,3.284,3.3487,3.458,3.4895,3.5199,3.5605,3.5622,3.5622,3.5622,3.5622,3.5622,3.5622,3.6028,3.6224,3.6249,3.644,3.6522,3.6597,3.7796,3.8146,3.7923,4.0819,4.2639,4.3497,4.3497,4.3497,4.3497,4.3497,4.3497,4.3497,4.3497,4.3497,4.3497,4.3497,4.3497,4.3497,4.3497,4.3497,4.3497,4.3497,4.3497,4.3497,4.3497,4.3497,4.3497,4.3497,4.3497,4.3497,4.3497,4.3497,4.3497,4.3497,4.4146,4.4905,4.5495,4.5586,4.5586,4.5586,4.5586,4.5586,4.5586,4.5586,4.5586,4.5586,4.5586,4.5586,4.5586,4.5586,4.5586,4.5586,4.5586,4.5586,4.5586,4.5586,4.5586,4.5586,4.5586,4.5586,4.5586,4.5586,4.5586,4.5586,4.5586,4.5586,4.5586,4.5586,4.5586,0.0,0.0,0.0,0.0,0.0,0.0,1.6395,1.6621,1.6585,0.0,0.0,2.0092,2.1969,2.2394,2.2862,2.4103,2.4373,2.5196,2.7235,2.7934,2.855,2.928,2.9909,3.0732,3.1962,3.2114,3.2431,3.3043,3.3685,3.4336,3.5081,3.5436,3.5622,3.5622,3.5622,3.5622,3.5622,3.5622,3.5622,3.5622,3.5622,3.5622,3.5656,3.6535,3.6451,3.5774,3.8683,4.1304,4.3497,4.3497,4.3497,4.3497,4.3497,4.3497,4.3497,4.3497,4.3497,4.3497,4.3497,4.3497,4.3497,4.3497,4.3497,4.3497,4.3497,4.3497,4.3497,4.3497,4.3497,4.3497,4.3497,4.3497,4.3497,4.3497,4.3497,4.3497,4.3497,4.3497,4.3868,4.512,4.5475,4.5586,4.5586,4.5586,4.5586,4.5586,4.5586,4.5586,4.5586,4.5586,4.5586,4.5586,4.5586,4.5586,4.5586,4.5586,4.5586,4.5586,4.5586,4.5586,4.5586,4.5586,4.5586,4.5586,4.5586,4.5586,4.5586,4.5586,4.5586,4.5586,4.5586,4.5586,0.0,0.0,0.0,0.0,0.0,0.0,1.5033,1.6,1.6841,0.0,0.0,1.8789,1.9722,2.0533,2.135,2.2143,2.3131,2.4507,2.6497,2.6437,2.6621,2.7871,2.8086,2.8404,2.9218,2.9715,3.0319,3.1005,3.224,3.273,3.2087,3.432,3.5622,3.5622,3.5622,3.5622,3.5622,3.5622,3.5622,3.5622,3.5622,3.5622,3.5622,3.5825,3.5808,3.5728,3.8,4.0702,4.3497,4.3497,4.3497,4.3497,4.3497,4.3497,4.3497,4.3497,4.3497,4.3497,4.3497,4.3497,4.3497,4.3497,4.3497,4.3497,4.3497,4.3497,4.3497,4.3497,4.3497,4.3497,4.3497,4.3497,4.3497,4.3497,4.3497,4.3497,4.3497,4.3497,4.3563,4.3868,4.4815,4.5586,4.5586,4.5586,4.5586,4.5586,4.5586,4.5586,4.5586,4.5586,4.5586,4.5586,4.5586,4.5586,4.5586,4.5586,4.5586,4.5586,4.5586,4.5586,4.5586,4.5586,4.5586,4.5586,4.5586,4.5586,4.5586,4.5586,4.5586,4.5586,4.5586,4.5586,0.0,0.0,0.0,1.7303,0.0,0.0,0.0,0.0,1.7003,0.0,0.0,0.0,0.0,0.0,1.9929,2.0587,2.1515,2.2742,2.4403,2.5196,2.5854,2.6512,2.6559,2.6796,2.7442,2.8089,2.8896,2.987,3.0631,3.1091,3.1168,3.2611,3.3406,3.3406,3.4844,3.5622,3.5622,3.5622,3.5622,3.5622,3.5622,3.5622,3.5622,3.5622,3.5622,3.5739,3.7808,3.9625,4.1222,4.2837,4.3497,4.3497,4.3497,4.3497,4.3497,4.3497,4.3497,4.3497,4.3497,4.3497,4.3497,4.3497,4.3497,4.3497,4.3497,4.3497,4.3497,4.3497,4.3497,4.3497,4.3497,4.3497,4.3497,4.3497,4.3497,4.3497,4.3497,4.3497,4.3497,4.3497,4.4076,4.4787,4.5475,4.5586,4.5586,4.5586,4.5586,4.5586,4.5586,4.5586,4.5586,4.5586,4.5586,4.5586,4.5586,4.5586,4.5586,4.5586,4.5586,4.5586,4.5586,4.5586,4.5586,4.5586,4.5586,4.5586,4.5586,4.5586,4.5586,4.5586,4.5586,4.5586,0.0,0.0,0.0,0.0,0.0,1.838,0.0,0.0,0.0,0.0,0.0,0.0,0.0,0.0,0.0,0.0,0.0,0.0,0.0,2.3505,0.0,2.5181,2.5121,2.5349,2.6057,2.6486,2.733,2.8764,2.8618,2.9113,3.0587,3.101,3.119,3.119,3.3525,3.5047,3.556,3.5622,3.5622,3.5622,3.5622,3.5622,3.5622,3.5622,3.5622,3.5694,3.7379,3.8318,3.8909,4.1497,4.2928,4.3497,4.3497,4.3497,4.3497,4.3497,4.3497,4.3497,4.3497,4.3497,4.3497,4.3497,4.3497,4.3497,4.3497,4.3497,4.3497,4.3497,4.3497,4.3497,4.3497,4.3497,4.3497,4.3497,4.3497,4.3497,4.3497,4.3497,4.3497,4.3497,4.3497,4.3943,4.5362,4.5586,4.5586,4.5586,4.5586,4.5586,4.5586,4.5586,4.5586,4.5586,4.5586,4.5586,4.5586,4.5586,4.5586,4.5586,4.5586,4.5586,4.5586,4.5586,4.5586,4.5586,4.5586,4.5586,4.5586,4.5586,4.5586,4.5586,4.5586,4.5586,0.0,0.0,0.0,0.0,2.016,0.0,0.0,0.0,1.939,1.9142,0.0,0.0,0.0,0.0,0.0,0.0,0.0,0.0,1.9211,2.0378,2.1904,2.3625,2.334,2.3503,2.4702,2.4327,2.483,2.6707,2.5722,2.6109,2.8592,3.0292,3.119,3.119,3.1529,3.2966,3.5588,3.5622,3.5622,3.5622,3.5622,3.5622,3.5622,3.5622,3.5622,3.5622,3.5854,3.7002,3.8726,3.9093,4.0928,4.3497,4.3497,4.3497,4.3497,4.3497,4.3497,4.3497,4.3497,4.3497,4.3497,4.3497,4.3497,4.3497,4.3497,4.3497,4.3497,4.3497,4.3497,4.3497,4.3497,4.3497,4.3497,4.3497,4.3497,4.3497,4.3497,4.3497,4.3497,4.3497,4.3497,4.3943,4.5362,4.5586,4.5586,4.5586,4.5586,4.5586,4.5586,4.5586,4.5586,4.5586,4.5586,4.5586,4.5586,4.5586,4.5586,4.5586,4.5586,4.5586,4.5586,4.5586,4.5586,4.5586,4.5586,4.5586,4.5586,4.5586,4.5586,4.5586,4.5586,4.5586,0.0,0.0,0.0,0.0,0.0,0.0,1.9737,0.0,1.9682,0.0,0.0,0.0,0.0,0.0,0.0,0.0,1.8194,0.0,0.0,0.0,1.9101,0.0,0.0,0.0,2.337,2.2892,2.3152,2.4694,2.4283,2.4779,2.6619,2.825,2.9745,3.1151,3.119,3.2205,3.432,3.5182,3.5622,3.5622,3.5622,3.5622,3.5622,3.5622,3.5622,3.5622,3.5622,3.6768,3.8707,3.8707,3.9496,4.0891,4.2763,4.3497,4.3497,4.3497,4.3497,4.3497,4.3497,4.3497,4.3497,4.3497,4.3497,4.3497,4.3497,4.3497,4.3497,4.3497,4.3497,4.3497,4.3497,4.3497,4.3497,4.3497,4.3497,4.3497,4.3497,4.3497,4.3497,4.3497,4.3497,4.3679,4.4271,4.5058,4.5586,4.5586,4.5586,4.5586,4.5586,4.5586,4.5586,4.5586,4.5586,4.5586,4.5586,4.5586,4.5586,4.5586,4.5586,4.5586,4.5586,4.5586,4.5586,4.5586,4.5586,4.5586,4.5586,4.5586,4.5586,4.5586,4.5586,4.5586,2.125,0.0,0.0,0.0,0.0,0.0,0.0,0.0,0.0,0.0,0.0,0.0,0.0,0.0,0.0,0.0,0.0,1.7399,0.0,0.0,0.0,0.0,0.0,0.0,0.0,2.1754,2.1919,2.2488,2.2188,2.2858,2.4887,2.6196,2.8015,3.0444,3.0797,3.1537,3.278,3.4421,3.5368,3.5622,3.5622,3.5622,3.5622,3.5622,3.5622,3.5622,3.5622,3.6768,3.8707,3.8707,3.8707,3.8927,4.1258,4.2708,4.3497,4.3497,4.3497,4.3497,4.3497,4.3497,4.3497,4.3497,4.3497,4.3497,4.3497,4.3497,4.3497,4.3497,4.3497,4.3497,4.3497,4.3497,4.3497,4.3497,4.3497,4.3497,4.3497,4.3497,4.3497,4.3497,4.3497,4.3497,4.3497,4.4669,4.5586,4.5586,4.5586,4.5586,4.5586,4.5586,4.5586,4.5586,4.5586,4.5586,4.5586,4.5586,4.5586,4.5586,4.5586,4.5586,4.5586,4.5586,4.5586,4.5586,4.5586,4.5586,4.5586,4.5586,4.5586,4.5586,4.5586,4.5586,0.0,0.0,0.0,2.1849,0.0,0.0,0.0,0.0,2.1852,0.0,0.0,0.0,0.0,0.0,0.0,0.0,0.0,0.0,0.0,0.0,0.0,0.0,0.0,0.0,0.0,2.0946,2.1171,0.0,1.8627,1.9585,2.3458,2.4582,2.6245,2.8779,2.9848,3.0634,3.1258,3.3237,3.4692,3.5622,3.5622,3.5622,3.5622,3.5622,3.5622,3.5622,3.5622,3.6768,3.8707,3.8707,3.8707,3.8707,3.8817,4.0763,4.3497,4.3497,4.3497,4.3497,4.3497,4.3497,4.3497,4.3497,4.3497,4.3497,4.3497,4.3497,4.3497,4.3497,4.3497,4.3497,4.3497,4.3497,4.3497,4.3497,4.3497,4.3497,4.3497,4.3497,4.3497,4.3497,4.3497,4.3497,4.3497,4.4669,4.5586,4.5586,4.5586,4.5586,4.5586,4.5586,4.5586,4.5586,4.5586,4.5586,4.5586,4.5586,4.5586,4.5586,4.5586,4.5586,4.5586,4.5586,4.5586,4.5586,4.5586,4.5586,4.5586,4.5586,4.5586,4.5586,4.5586,4.5586,2.301,2.3856,2.4287,2.3119,2.3178,0.0,0.0,0.0,0.0,0.0,0.0,0.0,0.0,0.0,0.0,0.0,0.0,0.0,0.0,0.0,0.0,0.0,0.0,0.0,0.0,0.0,1.9809,1.8493,1.7951,0.0,2.0887,2.2951,2.4867,2.6609,2.8643,3.0208,3.119,3.2831,3.432,3.5622,3.5622,3.5622,3.5622,3.5622,3.5622,3.5622,3.5622,3.6768,3.8707,3.8707,3.8707,3.8707,3.8707,3.9368,4.0579,4.2708,4.3497,4.3497,4.3497,4.3497,4.3497,4.3497,4.3497,4.3497,4.3497,4.3497,4.3497,4.3497,4.3497,4.3497,4.3497,4.3497,4.3497,4.3497,4.3497,4.3497,4.3497,4.3497,4.3497,4.3497,4.3497,4.3497,4.3497,4.3881,4.4516,4.5457,4.5586,4.5586,4.5586,4.5586,4.5586,4.5586,4.5586,4.5586,4.5586,4.5586,4.5586,4.5586,4.5586,4.5586,4.5586,4.5586,4.5586,4.5586,4.5586,4.5586,4.5586,4.5586,4.5586,4.5586,4.5586,4.5586,2.3646,2.4733,2.5378,2.4094,2.4155,2.3937,2.1579,0.0,2.1994,0.0,0.0,0.0,0.0,0.0,0.0,0.0,0.0,0.0,0.0,1.4423,0.0,0.0,0.0,0.0,0.0,0.0,1.6922,1.7026,1.7894,0.0,0.0,2.1739,2.3719,2.5474,2.7598,2.9507,3.119,3.2138,3.3372,3.4844,3.5368,3.5622,3.5622,3.5622,3.5622,3.5622,3.5622,3.6357,3.7649,3.8401,3.8707,3.8707,3.8707,3.8707,3.9093,4.2304,4.3497,4.3497,4.3497,4.3497,4.3497,4.3497,4.3497,4.3497,4.3497,4.3497,4.3497,4.3497,4.3497,4.3497,4.3497,4.3497,4.3497,4.3497,4.3497,4.3497,4.3497,4.3497,4.3497,4.3497,4.3497,4.3497,4.3497,4.3497,4.3974,4.5381,4.5586,4.5586,4.5586,4.5586,4.5586,4.5586,4.5586,4.5586,4.5586,4.5586,4.5586,4.5586,4.5586,4.5586,4.5586,4.5586,4.5586,4.5586,4.5586,4.5586,4.5586,4.5586,4.5586,4.5586,4.5586,4.5586]},{"header":{"parameterUnit":"m.s-1","parameterCategory":1,"la1":30.6,"la2":29.2853,"lo1":-89.7004,"lo2":-87.6739,"dy":0.0162,"dx":0.0183,"nx":112,"ny":82,"refTime":"2025-07-04T00:00:00:Z","depth":0,"parameterNumber":3,"parameterNumberName":"V-component_of_WINDS"},"data":[0.0,0.0,0.0,0.0,0.0,0.0,0.0,0.0,0.0,0.0,0.0,0.0,0.0,0.0,0.0,0.0,0.0,0.0,0.0,0.0,0.0,0.0,0.0,0.0,0.0,0.0,0.0,0.0,0.0,0.0,0.0,0.0,0.0,0.0,0.0,0.0,0.0,0.0,0.0,0.0,0.0,0.0,0.0,0.0,0.0,0.0,0.0,0.0,0.0,0.0,0.0,0.0,0.0,0.0,0.0,0.0,0.0,0.0,0.0,0.0,0.0,0.0,0.0,0.0,0.0,0.0,0.0,0.0,0.0,0.0,0.0,0.0,0.0,0.0,0.0,0.0,0.0,0.0,0.0,0.0,0.0,0.0,0.0,0.0,0.0,0.0,0.0,0.0,0.0,0.0,0.0,0.7062,0.8176,0.9361,1.0669,1.0442,1.0097,0.9787,0.0,0.0,0.0,0.0,0.0,0.0,0.0,0.0,0.0,0.0,0.0,0.0,0.0,0.0,0.0,0.0,0.0,0.0,0.0,0.0,0.0,0.0,0.0,0.0,0.0,0.0,0.0,0.0,0.0,0.0,0.0,0.0,0.0,0.0,0.0,0.0,0.0,0.0,0.0,0.0,0.0,0.0,0.0,0.0,0.0,0.0,0.0,0.0,0.0,0.0,0.0,0.0,0.0,0.0,0.0,0.0,0.0,0.0,0.0,0.0,0.0,0.0,0.0,0.0,0.0,0.0,0.0,0.0,0.0,0.0,0.0,0.0,0.0,0.0,0.0,0.0,0.0,0.0,0.0,0.0,0.0,0.0,0.0,0.0,0.0,0.0,0.0,0.0,0.0,0.0,0.0,0.0,0.0,0.0,0.0,0.0,0.0,0.0,0.0,0.0,0.0,0.0,0.0,0.0,0.5996,0.7996,0.855,0.9361,1.0669,1.0442,1.0327,1.0619,0.0,0.0,0.0,0.0,0.0,0.0,0.0,0.0,0.0,0.0,0.0,0.0,0.0,0.0,0.0,0.0,0.0,0.0,0.0,0.0,0.0,0.0,0.0,0.0,0.0,0.0,0.0,0.0,0.0,0.0,0.0,0.0,0.0,0.0,0.0,0.0,0.0,0.0,0.0,0.0,0.0,0.0,0.0,0.0,0.0,0.0,0.0,0.0,0.0,0.0,0.0,0.0,0.0,0.0,0.0,0.0,0.0,0.0,0.0,0.0,0.0,0.0,0.0,0.0,0.0,0.0,0.0,0.0,0.0,0.0,0.0,0.0,0.0,0.0,0.0,0.0,0.0,0.0,0.0,0.0,0.0,0.0,0.0,0.0,0.0,0.0,0.0,0.0,0.0,0.0,0.0,0.0,0.0,0.0,0.0,0.0,0.0,0.0,0.0,0.0,0.0,0.0,0.0,0.5567,0.6855,0.845,0.8731,0.9361,1.0669,1.0442,1.0271,1.0537,0.9185,0.0,0.0,0.0,0.0,0.0,0.0,0.0,0.0,0.0,0.0,0.0,0.0,0.0,0.0,0.0,0.0,0.0,0.0,0.0,0.0,0.0,0.0,0.0,0.0,0.0,0.0,0.0,0.0,0.0,0.0,0.0,0.0,0.0,0.0,0.0,0.0,0.0,0.0,0.0,0.0,0.0,0.0,0.0,0.0,0.0,0.0,0.0,0.0,0.0,0.0,0.0,0.0,0.0,0.0,0.0,0.0,0.0,0.0,0.0,0.0,0.0,0.0,0.0,0.0,0.0,0.0,0.0,0.0,0.0,0.0,0.0,0.0,0.0,0.0,0.0,0.0,0.0,0.0,0.0,0.0,0.0,0.0,0.0,0.0,0.0,0.0,0.0,0.0,0.0,0.0,0.0,0.0,0.0,0.0,0.0,0.0,0.0,0.0,0.0,0.0,0.0,0.0,0.6587,0.7642,0.8697,0.8804,0.9361,1.0669,1.0311,1.0131,1.0381,0.9052,0.0,0.0,0.0,0.0,0.0,0.0,0.0,0.0,0.0,0.0,0.0,0.0,0.0,0.0,0.0,0.0,0.0,0.0,0.0,0.0,0.0,0.0,0.0,0.0,0.0,0.0,0.0,0.0,0.0,0.0,0.0,0.0,0.0,0.0,0.0,0.0,0.0,0.0,0.0,0.0,0.0,0.0,0.0,0.0,0.0,0.0,0.0,0.0,0.0,0.0,0.0,0.0,0.0,0.0,0.0,0.0,0.0,0.0,0.0,0.0,0.0,0.0,0.0,0.0,0.0,0.0,0.0,0.0,0.0,0.0,0.0,0.0,0.0,0.0,0.0,0.0,0.0,0.0,0.0,0.0,0.0,0.0,0.0,0.0,0.0,0.0,0.0,0.0,0.0,0.0,0.0,0.0,0.0,0.0,0.0,0.0,0.0,0.0,0.0,0.0,0.0,0.0,0.6959,0.8061,0.8744,0.8804,0.9361,1.0669,1.0034,0.9882,1.0718,0.8888,0.0,0.0,0.0,0.0,0.0,0.0,0.0,0.0,0.0,0.0,0.0,0.0,0.0,0.0,0.0,0.0,0.0,0.0,0.0,0.0,0.0,0.0,0.0,0.0,0.0,0.0,0.0,0.0,0.0,0.0,0.0,0.0,0.0,0.0,0.0,0.0,0.0,0.0,0.0,0.0,0.0,0.0,0.0,0.0,0.0,0.0,0.0,0.0,0.0,0.0,0.0,0.0,0.0,0.0,0.0,0.0,0.0,0.0,0.0,0.0,0.0,0.0,0.0,0.0,0.0,0.0,0.0,0.0,0.0,0.0,0.0,0.0,0.0,0.0,0.0,0.0,0.0,0.0,0.0,0.0,0.0,0.0,0.0,0.0,0.0,0.0,0.0,0.0,0.0,0.0,0.0,0.0,0.0,0.0,0.0,0.0,0.0,0.0,0.0,0.0,0.0,0.0,0.6282,0.7363,0.0,0.8804,0.9159,1.0115,1.0027,0.9891,0.9881,0.0,0.0,0.0,0.0,0.0,0.0,0.0,0.0,0.0,0.0,0.0,0.0,0.0,0.0,0.0,0.0,0.0,0.0,0.0,0.0,0.0,0.0,0.0,0.0,0.0,0.0,0.0,0.0,0.0,0.0,0.0,0.0,0.0,0.0,0.0,0.0,0.0,0.0,0.0,0.0,0.0,0.0,0.0,0.0,0.0,0.0,0.0,0.0,0.0,0.0,0.0,0.0,0.0,0.0,0.0,0.0,0.0,0.0,0.0,0.0,0.0,0.0,0.0,0.0,0.0,0.0,0.0,0.0,0.0,0.0,0.0,0.0,0.0,0.0,0.0,0.0,0.0,0.0,0.0,0.0,0.0,0.0,0.0,0.0,0.0,0.0,0.0,0.0,0.0,0.0,0.0,0.0,0.0,0.0,0.0,0.0,0.0,0.0,0.0,0.0,0.0,0.0,0.5108,0.6002,0.7093,0.0,0.8804,0.9061,0.9762,0.9614,0.94,0.9077,0.0,0.0,0.0,0.0,0.0,0.0,0.0,0.0,0.0,0.0,0.0,0.0,0.0,0.0,0.0,0.0,0.0,0.0,0.0,0.0,0.0,0.0,0.0,0.0,0.0,0.0,0.0,0.0,0.0,0.0,0.0,0.0,0.0,0.0,0.0,0.0,0.0,0.0,0.0,0.0,0.0,0.0,0.0,0.0,0.0,0.0,0.0,0.0,0.0,0.0,0.0,0.0,0.0,0.0,0.0,0.0,0.0,0.0,0.0,0.0,0.0,0.0,0.0,0.0,0.0,0.0,0.0,0.0,0.0,0.0,0.0,0.0,0.0,0.0,0.0,0.0,0.0,0.0,0.0,0.0,0.0,0.0,0.0,0.0,0.0,0.0,0.0,0.0,0.0,0.0,0.0,0.0,0.0,0.0,0.0,0.0,0.0,0.0,0.0,0.0,0.0,0.0,0.5137,0.6345,0.7548,0.8692,0.8804,0.9061,0.971,0.8736,0.825,0.0,0.0,0.0,0.0,0.0,0.0,0.0,0.0,0.0,0.0,0.0,0.0,0.0,0.0,0.0,0.0,0.0,0.0,0.0,0.0,0.0,0.0,0.0,0.0,0.0,0.0,0.0,0.0,0.0,0.0,0.0,0.0,0.0,0.0,0.0,0.0,0.0,0.0,0.0,0.0,0.0,0.0,0.0,0.0,0.0,0.0,0.0,0.0,0.0,0.0,0.0,0.0,0.0,0.0,0.0,0.0,0.0,0.0,0.0,0.0,0.0,0.0,0.0,0.0,0.0,0.0,0.0,0.0,0.0,0.0,0.0,0.0,0.0,0.0,0.0,0.0,0.0,0.0,0.0,0.0,0.0,0.0,0.0,0.0,0.0,0.0,0.0,0.0,0.0,0.0,0.0,0.0,0.0,0.0,0.0,0.0,0.0,0.0,0.0,0.0,0.0,0.0,0.0,0.4519,0.5739,0.6889,0.7935,0.848,0.8857,0.9061,0.8754,0.8505,0.8399,0.0,0.0,0.0,0.0,0.0,0.0,0.0,0.0,0.0,0.0,0.0,0.0,0.0,0.0,0.0,0.0,0.0,0.0,0.0,0.0,0.0,0.0,0.0,0.0,0.0,0.0,0.0,0.0,0.0,0.0,0.0,0.0,0.0,0.0,0.0,0.0,0.0,0.0,0.0,0.0,0.0,0.0,0.0,0.0,0.0,0.0,0.0,0.0,0.0,0.0,0.0,0.0,0.0,0.0,0.0,0.0,0.0,0.0,0.0,0.0,0.0,0.0,0.0,0.0,0.0,0.0,0.0,0.0,0.0,0.0,0.0,0.0,0.0,0.0,0.0,0.0,0.0,0.0,0.0,0.0,0.0,0.0,0.0,0.0,0.0,0.0,0.0,0.0,0.0,0.0,0.0,0.0,0.0,0.0,0.0,0.0,0.0,0.0,0.0,0.0,0.0,0.0,0.4257,0.5494,0.6649,0.7623,0.8374,0.8804,0.8804,0.8664,0.8385,0.7983,0.0,0.0,0.0,0.0,0.0,0.0,0.0,0.0,0.0,0.0,0.0,0.0,0.0,0.0,0.0,0.0,0.0,0.0,0.0,0.0,0.0,0.0,0.0,0.0,0.0,0.0,0.0,0.0,0.0,0.0,0.0,0.0,0.0,0.0,0.0,0.0,0.0,0.0,0.0,0.0,0.0,0.0,0.0,0.0,0.0,0.0,0.0,0.0,0.0,0.0,0.0,0.0,0.0,0.0,0.0,0.0,0.0,0.0,0.0,0.0,0.0,0.0,0.0,0.0,0.0,0.0,0.0,0.0,0.0,0.0,0.0,0.0,0.0,0.0,0.0,0.0,0.0,0.0,0.0,0.0,0.0,0.0,0.0,0.0,0.0,0.0,0.0,0.0,0.0,0.0,0.0,0.0,0.0,0.0,0.0,0.0,0.0,0.0,0.0,0.0,0.0,0.0,0.422,0.5481,0.6649,0.7481,0.8262,0.8752,0.8804,0.8544,0.8153,0.7525,0.0,0.0,0.0,0.0,0.0,0.0,0.0,0.0,0.0,0.0,0.0,0.0,0.0,0.0,0.0,0.0,0.0,0.0,0.0,0.0,0.0,0.0,0.0,0.0,0.0,0.0,0.0,0.0,0.0,0.0,0.0,0.0,0.0,0.0,0.0,0.0,0.0,0.0,0.0,0.0,0.0,0.0,0.0,0.0,0.0,0.0,0.0,0.0,0.0,0.0,0.0,0.0,0.0,0.0,0.0,0.0,0.0,0.0,0.0,0.0,-0.0563,0.0,0.0,0.0,0.0,0.0,0.0,0.0,0.0,0.0,0.0,0.0,0.0,0.0,0.0,0.0,0.0,0.0,0.0,0.0,0.0,0.0,0.0,0.0,0.0,0.0,0.0,0.0,0.0,0.0,0.0,0.0,0.0,0.0,0.0,0.0,0.0,0.0,0.0,0.0,0.0,0.0,0.3688,0.4811,0.5872,0.6725,0.7509,0.8156,0.8752,0.8544,0.8379,0.825,0.7414,0.0,0.0,0.0,0.0,0.0,0.0,0.0,0.0,0.0,0.0,0.0,0.0,0.0,0.0,0.0,0.0,0.0,0.0,0.0,0.0,0.0,0.0,0.0,0.0,0.0,0.0,0.0,0.0,0.0,0.0,0.0,0.0,0.0,0.0,0.0,0.0,0.0,0.0,0.0,0.0,0.0,0.0,0.0,0.0,0.0,0.0,0.0,0.0,0.0,0.0,0.0,0.0,0.0,0.0,0.0,0.0,0.0,0.0,0.0,0.0,0.0,0.0,0.0,0.0,0.0,0.0,0.0,0.0,0.0,0.0,0.0,0.0,0.0,0.0,0.0,0.0,0.0,0.0,0.0,0.0,0.0,0.0,0.0,0.0,0.0,0.0,0.0,0.0,0.0,0.0,0.0,0.0,0.0,0.0,0.0,0.0,0.0,0.0,0.0,0.0,0.0,0.3632,0.4665,0.5708,0.6519,0.7235,0.7996,0.8752,0.8671,0.8552,0.8442,0.7828,0.0,0.0,0.0,0.0,0.0,0.0,0.0,0.0,0.0,0.0,0.0,0.0,0.0,0.0,0.0,0.0,0.0,0.0,0.0,0.0,0.0,0.0,0.0,0.0,0.0,0.0,0.0,0.0,0.0,0.0,0.0,0.0,0.0,0.0,0.0,0.0,0.0,0.0,0.0,0.0,0.0,0.0,0.0,0.0,0.0,0.0,0.0,0.0,0.0,0.0,0.0,0.0,0.0,-0.448,-0.2897,0.0,0.0,0.0,0.0,0.0,0.0,0.0,0.0,0.0,0.0,0.0,0.0,0.0,0.0,0.0,0.0,0.0,0.0,0.0,0.0,0.0,0.0,0.0,0.0,0.0,0.0,0.0,0.0,0.0,0.0,0.0,0.0,0.4443,0.4629,0.4256,0.0,0.0,0.0,0.0,0.0,0.0,0.0,0.0,0.0,0.0,0.0,0.3792,0.471,0.5655,0.6534,0.7128,0.783,0.8752,0.8804,0.8704,0.8464,0.818,0.7785,0.0,0.0,0.0,0.0,0.0,0.0,0.0,0.0,0.0,0.0,0.0,0.0,0.0,0.0,0.0,0.0,0.0,0.0,0.0,0.0,0.0,0.0,0.0,0.0,0.0,0.0,0.0,0.0,0.0,0.0,0.0,0.0,-0.2791,-0.328,0.0,0.0,0.0,0.0,0.0,0.0,0.0,0.0,0.0,0.0,0.0,0.0,0.0,0.0,0.0,-0.0395,-0.0626,-0.0693,-0.0693,-0.0462,0.0,0.0,0.0,0.0,0.0,0.0,0.0,0.0,0.0,0.0,0.0,0.0,0.0,0.0,0.0,0.0,0.0,0.0,0.0,0.0,0.0,0.0,0.0,0.0,0.0,0.0,0.0,0.0,0.0,0.0,0.4741,0.4629,0.4748,0.4874,0.0,0.4284,0.3758,0.3544,0.3307,0.0,0.0,0.0,0.0,0.0,0.0,0.0,0.3951,0.4369,0.5117,0.648,0.6696,0.7289,0.8699,0.8804,0.8791,0.8751,0.8487,0.8338,0.8304,0.7169,0.0,0.0,0.0,0.0,0.0,0.0,0.0,0.0,0.0,0.0,0.0,0.0,0.0,0.0,0.0,0.0,0.0,0.0,0.0,0.0,0.0,0.0,0.0,0.0,0.0,0.0,0.0,0.0,0.0,-0.3151,-0.3451,-0.4055,-0.3155,-0.2159,0.0,0.0,0.0,0.0,0.0,0.0,0.0,0.0,0.0,-0.2047,-0.0664,0.0,0.0,0.0,0.0,0.0,0.0,0.0,0.0,0.0,0.0,0.0,0.0,0.0,0.0,0.0,0.0,0.0,0.0,0.0,0.0,0.0,0.0,0.0,0.0,0.1529,0.377,0.4999,0.0,0.0,0.0,0.0,0.0,0.0,0.0,0.4694,0.0,0.0,0.5172,0.5192,0.5308,0.5393,0.5311,0.4969,0.4555,0.0,0.3965,0.3724,0.3199,0.0,0.0,0.0,0.0,0.3904,0.407,0.4331,0.4897,0.5873,0.6367,0.702,0.8103,0.8586,0.8804,0.8804,0.8691,0.8585,0.8428,0.7727,0.7064,0.0,0.0,0.0,0.0,0.0,0.0,0.0,0.0,0.0,0.0,0.0,0.0,0.0,0.0,0.0,0.0,0.0,0.0,0.0,0.0,0.0,0.0,0.0,0.0,0.0,0.0,0.0,0.0,-0.3615,-0.4017,-0.4464,-0.4519,-0.3643,0.0,0.0,0.0,0.0,0.0,0.0,-0.3382,-0.3748,-0.2795,-0.007,0.0,0.0,0.0,0.0,0.0,0.0,0.0,0.0,0.0,0.0,0.0,0.0,0.0,0.0,0.0,0.0,0.0,0.0,0.0,0.0,0.0,0.0,0.0668,0.1635,0.1806,0.3887,0.6386,0.5786,0.5967,0.6338,0.6338,0.0,0.0,0.0,0.0,0.559,0.5288,0.5373,0.5501,0.5616,0.5725,0.5772,0.5667,0.5528,0.5264,0.0,0.4606,0.4392,0.3748,0.0,0.0,0.0,0.0,0.4246,0.4344,0.448,0.4797,0.5503,0.6178,0.6912,0.7616,0.8374,0.8804,0.8804,0.8804,0.8711,0.849,0.8203,0.7695,0.6947,0.0,0.0,0.0,0.0,0.0,0.0,0.0,0.0,0.0,0.0,0.0,0.0,0.0,0.0,0.0,0.0,0.0,0.0,0.0,0.0,0.0,0.0,0.0,0.0,0.0,0.0,0.0,0.0,0.0,-0.4515,-0.4519,0.0,0.0,0.0,0.0,-0.447,-0.5009,-0.3828,-0.04,-0.0222,-0.0156,-0.0,0.0,0.0,0.0,0.0,0.0,0.0,0.0,0.0,0.0,0.0,0.0,0.0,0.0,0.0,0.0,0.0,0.0,0.0,0.0,0.0,0.0,0.0,0.253,0.6061,0.6544,0.6916,0.7,0.6407,0.6314,0.6338,0.6338,0.5868,0.0,0.0,0.5799,0.6287,0.6266,0.5983,0.5783,0.5789,0.5796,0.58,0.5793,0.5677,0.5481,0.0,0.4989,0.4836,0.4657,0.0,0.4633,0.4623,0.4643,0.4711,0.4867,0.4765,0.4962,0.5702,0.6267,0.6912,0.7616,0.8374,0.8804,0.8804,0.8804,0.8798,0.8784,0.851,0.8196,0.7822,0.6994,0.0,0.0,0.0,0.0,0.0,0.0,0.0,0.0,0.0,0.0,0.0,0.0,0.0,0.0,0.0,0.0,0.0,0.0,0.0,0.0,0.0,0.0,0.0,0.0,0.0,0.0,0.0,0.0,-0.5058,-0.4755,0.0,-0.5064,-0.5102,-0.5267,-0.5658,-0.5892,-0.5417,-0.4156,-0.1468,0.0,0.0,0.0,0.0,0.0,0.0,0.0,0.0,0.0,0.0,0.0,0.0,0.0,0.0,0.0,0.0,0.0,0.0,0.0,0.0,0.0,0.1881,0.4603,0.4603,0.5543,0.6858,0.7068,0.7139,0.7105,0.6895,0.6827,0.6756,0.6376,0.6187,0.6012,0.6012,0.617,0.6338,0.6338,0.6179,0.6098,0.6098,0.6098,0.6071,0.5969,0.5908,0.5786,0.5484,0.5226,0.5009,0.4863,0.484,0.4806,0.4704,0.4775,0.4857,0.4911,0.487,0.4956,0.5191,0.5731,0.6178,0.6458,0.7051,0.7563,0.8049,0.8103,0.8321,0.8758,0.8704,0.8517,0.8223,0.7715,0.6974,0.0,0.0,0.0,0.0,0.0,0.0,0.0,0.0,0.0,0.0,0.0,0.0,0.0,0.0,0.0,0.0,0.0,0.0,0.0,0.0,0.0,0.0,0.0,0.0,0.0,0.0,-0.4745,-0.5356,-0.5253,-0.509,-0.5123,-0.5447,-0.5902,-0.6307,-0.6444,-0.6559,-0.6559,-0.243,0.0,0.0,0.0,0.0,0.0,0.0,0.0,0.0,0.0,0.0,0.0,0.0,0.0,0.0,0.0,0.0,0.0,0.0,0.1028,0.2697,0.2442,0.4285,0.7139,0.7139,0.7139,0.7139,0.7139,0.7139,0.7139,0.7139,0.7139,0.7068,0.6675,0.6559,0.6559,0.6559,0.6559,0.6512,0.6312,0.6338,0.6338,0.6338,0.6338,0.6234,0.6129,0.6067,0.5973,0.5776,0.5491,0.524,0.5094,0.5067,0.5033,0.4931,0.5003,0.5067,0.5067,0.5023,0.4989,0.4989,0.5505,0.5839,0.5776,0.6551,0.7209,0.7676,0.7943,0.8268,0.8758,0.8711,0.8617,0.8524,0.813,0.7442,0.6485,0.0,0.0,0.0,0.0,0.0,0.0,0.0,0.0,0.0,0.0,0.0,0.0,0.0,0.0,0.0,0.0,0.0,0.0,0.0,0.0,0.0,0.0,0.0,-0.8691,-0.6311,-0.4773,-0.5384,-0.5978,-0.586,-0.4673,-0.5622,-0.6345,-0.6288,-0.6817,-0.7139,-0.7139,-0.2594,0.0,0.0,0.0,0.0,0.0,0.0,0.0,0.0,0.0,0.0,0.0,0.0,0.0,0.0,0.0,0.0,0.0,0.0,0.3118,0.7984,0.7377,0.7139,0.7139,0.7139,0.7139,0.7139,0.7139,0.7139,0.7139,0.7139,0.7139,0.7139,0.7139,0.7139,0.7139,0.7139,0.7139,0.7007,0.6437,0.6288,0.6285,0.6342,0.6338,0.6338,0.6338,0.6142,0.6034,0.603,0.58,0.5552,0.5396,0.5435,0.5432,0.5428,0.5428,0.0,0.5428,0.523,0.5138,0.5138,0.5616,0.5926,0.5806,0.7023,0.776,0.7639,0.8321,0.8752,0.8752,0.8537,0.8517,0.8798,0.823,0.7596,0.7005,0.0,0.0,0.0,0.0,0.0,0.0,0.0,0.0,0.0,0.0,0.0,0.0,0.0,0.0,0.0,0.0,0.0,0.0,0.0,0.0,0.0,0.0,-0.6484,-0.6954,-0.5914,-0.5404,-0.6016,-0.6235,-0.618,-0.586,-0.6099,-0.6437,-0.6865,-0.7048,-0.7139,-0.7139,-0.2594,0.0,0.0,0.0,0.0,0.0,0.0,0.0,0.0,0.0,0.0,0.0,0.0,0.0,0.0,0.0,0.0,0.0,0.0,0.3131,0.7959,0.7305,0.7139,0.7139,0.7139,0.7139,0.7139,0.7139,0.7139,0.7139,0.7139,0.7139,0.7139,0.7139,0.7139,0.7139,0.7139,0.7139,0.7102,0.6939,0.6898,0.679,0.6363,0.6338,0.6338,0.6338,0.6227,0.6166,0.6051,0.5966,0.5827,0.5569,0.5528,0.5491,0.5446,0.5428,0.0,0.5428,0.5325,0.5298,0.5298,0.535,0.5362,0.5319,0.5455,0.5808,0.6318,0.6892,0.745,0.799,0.8462,0.8724,0.8804,0.823,0.7802,0.0,0.0,0.0,0.0,0.0,0.0,0.0,0.0,0.0,0.0,0.0,0.0,0.0,0.0,0.0,0.0,0.0,0.0,0.0,0.0,0.0,0.0,-0.612,-0.5641,-0.6252,-0.6033,-0.594,-0.6297,-0.6338,-0.6338,-0.6338,-0.6485,-0.677,-0.7112,-0.7139,-0.7139,-0.7139,-0.2594,0.0,0.0,0.0,0.0,0.0,0.0,0.0,0.0,0.0,0.0,0.0,0.0,0.0,0.0,0.0,0.0,0.0,0.0,0.1819,0.0,0.0,0.0,0.0,0.0,0.7356,0.7139,0.7139,0.7139,0.7139,0.7139,0.7139,0.7139,0.7139,0.7139,0.7139,0.7139,0.7139,0.7139,0.7139,0.7139,0.7054,0.6712,0.6441,0.6338,0.6338,0.6338,0.6234,0.6142,0.6125,0.0,0.5817,0.5722,0.563,0.5481,0.5457,0.5433,0.5435,0.5428,0.5428,0.5428,0.5281,0.5203,0.5135,0.5214,0.0,0.0,0.0,0.6965,0.7518,0.8364,0.0,0.0,0.0,0.0,0.0,0.0,0.0,0.0,0.5202,0.5457,0.0,0.0,0.0,0.0,0.0,0.0,0.0,0.0,0.0,0.0,0.0,0.0,0.0,0.0,0.0,0.0,-0.5133,-0.572,-0.6263,-0.6338,-0.6338,-0.6338,-0.6338,-0.6288,-0.6352,-0.6834,-0.7139,-0.7139,-0.7139,-0.7139,-0.7139,0.0,0.0,0.0,0.0,0.0,0.0,0.0,0.0,0.0,0.0,0.0,0.0,0.0,0.0,0.0,0.0,0.0,0.0,0.0,0.0,0.0505,0.5275,0.7494,0.8038,0.8038,0.7702,0.7241,0.7241,0.0,0.0,0.7241,0.7241,0.7227,0.716,0.7139,0.7139,0.7139,0.7139,0.7139,0.7139,0.7139,0.7139,0.7139,0.6742,0.6346,0.6295,0.6285,0.6281,0.6264,0.6338,0.6217,0.6078,0.5928,0.5779,0.5637,0.5613,0.5566,0.543,0.5463,0.5456,0.5456,0.0,0.0,0.5169,0.5702,0.5994,0.5739,0.6386,0.6941,0.7281,0.8125,0.819,0.7321,0.7631,0.7507,0.6944,0.6969,0.6657,0.6005,0.5333,0.5765,0.0,0.0,0.0,0.0,0.0,0.0,0.0,0.0,0.0,0.0,0.0,0.0,0.0,0.0,0.0,-0.5736,-0.5765,-0.6201,-0.6321,-0.6338,-0.6338,-0.6338,-0.6338,-0.6447,-0.6922,-0.7075,-0.7139,-0.7139,-0.7139,-0.7139,-0.7139,-0.6248,-0.3959,-0.0099,0.0,0.0,0.0,0.0,0.0,0.0,0.0,0.0,0.0,0.0,0.0,0.0,0.0,0.0,0.0,0.0,0.0,0.0101,0.1111,0.4227,0.8038,0.8038,0.7967,0.7865,0.7865,0.7865,0.7865,0.7865,0.7865,0.7773,0.7288,0.7139,0.0,0.7139,0.7139,0.7139,0.7139,0.7139,0.7139,0.7139,0.7051,0.6871,0.6508,0.643,0.6396,0.6285,0.6338,0.6251,0.622,0.6088,0.5935,0.5783,0.5762,0.5749,0.5722,0.5616,0.5545,0.5545,0.5437,0.5415,0.5318,0.5328,0.529,0.5234,0.5836,0.6434,0.7112,0.7327,0.7327,0.717,0.7188,0.7175,0.7057,0.651,0.6185,0.6195,0.6611,0.7081,0.0,0.0,0.0,0.0,0.0,0.0,0.0,0.0,0.0,0.0,0.0,-0.6035,-0.6958,0.0,-0.7513,-0.6115,-0.6139,-0.6338,-0.6338,-0.6338,-0.6338,-0.6338,-0.6338,-0.6491,-0.7082,-0.7139,-0.7139,-0.7139,-0.7139,-0.7272,-0.7573,-0.759,-0.6469,-0.4116,-0.1411,0.0,0.0,0.0,0.0,0.0,0.0,0.0,0.0,0.0,0.0,0.0,0.0,0.0,0.0,0.0,0.0,0.0,0.0,0.1612,0.4021,0.4021,0.5724,0.8038,0.8038,0.8038,0.8038,0.8038,0.8038,0.7984,0.7682,0.759,0.7529,0.7224,0.7139,0.7139,0.7139,0.7139,0.7139,0.7139,0.7139,0.7051,0.6725,0.6658,0.6597,0.6407,0.6366,0.6342,0.6352,0.6196,0.6091,0.5939,0.5915,0.5888,0.5813,0.5739,0.5694,0.5694,0.5627,0.5552,0.5481,0.5264,0.5131,0.5131,0.5666,0.6169,0.6529,0.6883,0.6947,0.6529,0.6623,0.6533,0.6262,0.5977,0.5847,0.5996,0.6832,0.7502,0.0,0.0,0.0,0.0,0.0,0.0,0.0,0.0,-0.4113,-0.4594,-0.4694,-0.4882,-0.5494,-0.5603,-0.5765,-0.6259,-0.6338,-0.6338,-0.6338,-0.6338,-0.6302,-0.6417,-0.643,-0.6617,-0.7095,-0.7139,-0.7139,-0.7139,-0.7248,-0.7526,-0.8014,-0.8038,-0.8038,-0.8038,-0.382,-0.1009,-0.0,0.0,0.0,0.0,0.0,0.0,0.0,0.0,0.0,0.0,0.0,0.0,0.0,0.0,0.0,0.0,0.0,0.0,0.0,0.0,0.2716,0.6429,0.6429,0.7132,0.8038,0.8038,0.8038,0.8038,0.8038,0.8038,0.794,0.7451,0.7231,0.7139,0.7139,0.7139,0.7139,0.7139,0.7139,0.7088,0.6898,0.6858,0.679,0.6563,0.6491,0.6434,0.6322,0.6278,0.6217,0.6095,0.6074,0.603,0.5908,0.5864,0.5844,0.5844,0.582,0.5755,0.564,0.5403,0.526,0.526,0.5717,0.5954,0.5954,0.6511,0.6568,0.5954,0.6085,0.5905,0.5447,0.5572,0.5691,0.5803,0.6546,0.7403,-0.8314,-0.7758,0.0,-0.933,-0.7325,-0.4863,0.0,0.0,-0.5246,-0.5312,-0.5325,-0.5511,-0.6125,-0.6235,-0.6259,-0.6328,-0.6338,-0.6338,-0.6338,-0.6338,-0.6454,-0.698,-0.7041,-0.7068,-0.7132,-0.7139,-0.7139,-0.7139,-0.7634,-0.797,-0.8035,-0.8038,-0.8038,-0.8038,-0.7434,-0.4822,-0.0,0.0,0.0,0.0,0.0,0.0,0.0,0.0,0.0,0.0,0.0,0.0,0.0,0.0,0.0,0.0,0.0,0.0,0.0,0.0,0.0404,0.0908,0.0908,0.4021,0.8038,0.8038,0.8038,0.8038,0.8038,0.8038,0.8024,0.7957,0.7553,0.7139,0.7139,0.7139,0.7139,0.7139,0.7139,0.7099,0.6953,0.6919,0.6871,0.6709,0.6566,0.6468,0.6451,0.6342,0.6254,0.6237,0.6234,0.623,0.621,0.6088,0.6003,0.6003,0.5881,0.5793,0.5779,0.5745,0.5725,0.5725,0.5782,0.5842,0.5842,0.5913,0.5909,0.5842,0.586,0.5803,0.5752,0.5769,0.5786,0.5806,0.6012,0.6651,-1.0458,0.0,0.0,0.0,-0.9427,-0.8083,-0.5784,-0.5576,-0.5957,-0.5957,-0.5957,-0.6036,-0.6213,-0.6338,-0.6338,0.0,-0.6338,-0.6338,-0.6338,-0.6556,-0.6736,-0.6641,-0.6627,-0.6763,-0.7105,-0.7139,-0.7139,-0.7139,-0.7699,-0.8038,-0.8038,-0.8038,-0.8038,-0.8038,-0.8038,-0.693,-0.4722,-0.4622,-0.4622,-0.4622,-0.1511,0.0,0.0,0.0,-0.1712,-0.4622,-0.4622,-0.2917,-0.0202,-0.3419,-0.4622,-0.4321,-0.121,0.0,0.0,0.0,0.0,0.0,0.0,0.1511,0.3318,0.3318,0.3318,0.392,0.7033,0.8038,0.8038,0.8038,0.7858,0.7584,0.7231,0.7227,0.7285,0.717,0.7139,0.7126,0.7065,0.7051,0.7007,0.6861,0.678,0.6709,0.662,0.6481,0.6383,0.6383,0.6315,0.6338,0.6338,0.6203,0.6166,0.6166,0.6027,0.5935,0.5935,0.585,0.58,0.58,0.58,0.58,0.58,0.58,0.58,0.58,0.58,0.5844,0.5935,0.5935,0.5979,0.6071,0.622,0.6514,-1.2258,0.0,0.0,-1.1113,-1.11,-1.0497,-0.7748,-0.6565,-0.6136,-0.6304,-0.6338,-0.6338,-0.6338,-0.6338,-0.6338,-0.6338,-0.6338,-0.6318,-0.6481,-0.6871,-0.6922,-0.6332,-0.6338,-0.6491,-0.7082,-0.7139,-0.7139,-0.7139,-0.7699,-0.8038,-0.8038,-0.8038,-0.8038,-0.8038,-0.8038,-0.8038,-0.8038,-0.8038,-0.8038,-0.7939,-0.4019,-0.2215,-0.2215,-0.2215,-0.4321,-0.8038,-0.8038,-0.5824,-0.2516,-0.6429,-0.8038,-0.7637,-0.3718,-0.2215,-0.2215,-0.2215,-0.131,0.0,0.0,0.0,0.0,0.0,0.0,0.0706,0.4622,0.5824,0.5824,0.5824,0.6845,0.7868,0.7506,0.7326,0.7322,0.7168,0.718,0.7139,0.7139,0.7139,0.7109,0.7007,0.6956,0.6895,0.6783,0.6637,0.6536,0.6536,0.6447,0.6352,0.6271,0.6338,0.6338,0.6338,0.6162,0.6095,0.6095,0.5993,0.5928,0.5928,0.5928,0.5932,0.5932,0.5932,0.5932,0.5932,0.5928,0.5983,0.6095,0.6132,0.621,0.6322,0.6468,0.6559,0.0,0.0,-1.1851,-1.3325,-1.2151,-1.0588,-1.0454,-0.7862,-0.5624,-0.6218,-0.6338,-0.6338,-0.6338,-0.6338,-0.6338,-0.6338,-0.6338,-0.6461,-0.7034,-0.7129,-0.6922,-0.6332,-0.6338,-0.6491,0.0,-0.7139,-0.7139,-0.7139,-0.7699,-0.8038,-0.8038,-0.8038,-0.8038,-0.8038,-0.8038,-0.8038,-0.8038,-0.8038,-0.8038,-0.8038,-0.7836,-0.7736,-0.7736,-0.7736,-0.7839,-0.8038,-0.8038,-0.7939,-0.7736,-0.7939,-0.8038,-0.7939,-0.7839,-0.7736,-0.7736,-0.7736,-0.4422,0.0,0.0,0.0,0.0,0.0,0.0,0.0,0.0202,0.0202,0.0202,0.0202,0.3947,0.8032,0.7939,0.7558,0.7194,0.7346,0.7282,0.7139,0.7139,0.7139,0.7139,0.7136,0.7021,0.6926,0.6922,0.6797,0.6695,0.6695,0.6688,0.6583,0.6298,0.6338,0.6338,0.6338,0.6257,0.6254,0.6254,0.6251,0.6247,0.6247,0.6257,0.6264,0.6264,0.6264,0.6264,0.6264,0.6251,0.6247,0.6254,0.639,0.6461,0.6468,0.6624,0.6773,0.0,0.0,-1.3024,-1.3005,-1.2045,-1.1027,-1.049,-0.9134,-0.7699,-0.6524,-0.6338,-0.6338,-0.6338,-0.6009,-0.5868,-0.6273,-0.6338,-0.6468,-0.7058,-0.7139,-0.6922,-0.6332,-0.6338,0.0,0.0,0.0,0.0,-0.7139,-0.7699,-0.8038,-0.8038,-0.8038,-0.8038,-0.8038,-0.8038,-0.8038,-0.8038,-0.8038,-0.8038,-0.8038,-0.8038,-0.8038,-0.8038,-0.8038,-0.8038,-0.8038,-0.8038,-0.8038,-0.8038,-0.8038,-0.8038,-0.8038,-0.8038,-0.8038,-0.8038,-0.8038,-0.683,-0.4822,-0.121,0.0,0.0,0.0,0.0,0.0,0.0,0.0,0.0,0.0,0.1313,0.2729,0.2719,0.5228,0.7597,0.728,0.7177,0.7098,0.7074,0.7139,0.7139,0.7139,0.7102,0.7068,0.7068,0.6949,0.6817,0.6715,0.6702,0.6627,0.6427,0.6403,0.6366,0.6271,0.6338,0.6338,0.6338,0.6268,0.6274,0.6274,0.6285,0.5689,0.4239,0.4163,0.4844,0.6257,0.6335,0.6335,0.6335,0.6456,0.6647,0.6733,0.679,0.6878,0.0,-1.4168,-1.3702,-1.3769,-1.2947,-1.188,-1.1143,-0.9463,-0.7693,-0.6542,-0.6167,-0.5947,-0.5727,-0.5367,-0.5301,-0.5913,-0.6194,-0.6468,-0.7058,-0.7139,-0.7,-0.662,-0.6576,-0.6722,0.0,0.0,0.0,-0.7139,-0.7699,-0.8038,-0.8038,-0.8038,-0.8038,-0.8038,-0.8038,-0.8038,-0.8038,-0.8038,-0.8038,-0.8038,-0.8038,-0.8038,-0.8038,-0.8038,-0.8038,-0.8038,-0.8038,-0.8038,-0.8038,-0.8038,-0.8038,-0.8038,-0.8038,-0.8038,-0.8038,-0.8038,-0.8038,-0.7232,-0.1813,0.0,0.0,0.0,0.0,0.0,0.0,0.0,0.0,0.0,0.0,0.0,0.0,0.26,0.5321,0.5857,0.6575,0.7099,0.7082,0.7104,0.7064,0.7064,0.7058,0.7139,0.7139,0.7065,0.697,0.6871,0.6858,0.6783,0.658,0.6505,0.6437,0.6346,0.6291,0.6338,0.6338,0.6322,0.6277,0.6277,0.6261,0.5684,0.4272,0.2786,0.264,0.4028,0.4789,0.5129,0.5129,0.5249,0.5867,0.6814,0.6953,0.701,-1.5703,-1.4914,-1.3989,-1.5482,-1.4521,-1.306,-1.2329,-0.8968,-0.6051,-0.6276,-0.5878,-0.5277,0.0,0.0,-0.4707,-0.5288,-0.5919,-0.6468,-0.7058,-0.7139,-0.7139,0.0,0.0,0.0,0.0,0.0,0.0,-0.7187,0.0,-0.8038,-0.8038,-0.8038,-0.8038,-0.8038,-0.8038,-0.8038,-0.8038,-0.8038,-0.8038,-0.8038,-0.8038,-0.8038,-0.8038,-0.8038,-0.8038,-0.8038,-0.8038,-0.8038,-0.8038,-0.8038,-0.8038,-0.8038,-0.8038,-0.8038,-0.8038,-0.8038,-0.8038,-0.7232,-0.2214,-0.0202,0.0,0.0,0.0,0.0,0.0,0.0,0.0,0.0,0.0,0.0,0.0,0.0,0.0606,0.3226,0.5422,0.6888,0.6964,0.6934,0.6917,0.7098,0.7071,0.7139,0.7139,0.7139,0.7139,0.7139,0.7139,0.7037,0.6749,0.6583,0.6491,0.6485,0.6363,0.6285,0.6285,0.6344,0.627,0.6273,0.6083,0.5999,0.6005,0.2101,0.0,0.0,0.1933,0.2941,0.2941,0.2918,0.4163,0.6433,0.6926,0.7074,-1.4092,-1.4541,-1.5233,-1.4698,-1.3925,-1.2765,-1.109,-0.952,-0.8036,-0.6626,-0.6215,-0.5782,0.0,0.0,0.0,-0.4725,-0.5645,0.0,-0.7058,-0.7139,0.0,0.0,0.0,-0.7316,-0.7767,-0.7811,0.0,0.0,-0.7953,-0.8038,-0.8038,-0.8038,-0.8038,-0.8038,-0.8038,-0.8038,-0.8038,-0.8038,-0.8038,-0.8038,-0.8038,-0.8038,-0.8038,-0.8038,-0.8038,-0.8038,-0.8038,-0.8038,-0.8038,-0.8038,-0.8038,-0.8038,-0.8038,-0.8038,-0.8038,-0.8038,-0.8038,-0.7839,-0.6429,-0.3318,0.0,0.0,0.0,0.0,0.0,0.0,0.0,0.0,0.0,0.0,0.0,0.0,0.0202,0.0808,0.2797,0.4514,0.4464,0.4455,0.5031,0.6788,0.7141,0.7139,0.7139,0.7139,0.7139,0.7139,0.7139,0.7075,0.6895,0.6834,0.677,0.6654,0.661,0.6593,0.6528,0.6407,0.6268,0.6277,0.3355,0.1611,0.1638,0.0604,0.0,0.0,0.053,0.0795,0.0795,0.0797,0.1153,0.1861,0.5445,0.7081,-1.5869,-1.6392,-1.6814,-1.5786,-1.4903,-1.3843,-1.192,-1.0848,-1.0014,-0.9095,-0.7298,0.0,0.0,0.0,0.0,0.0,0.0,0.0,-0.7316,-0.7139,-0.7139,0.0,-0.7373,0.0,-0.8007,-0.8038,-0.8038,0.0,-0.8038,-0.8038,-0.8038,-0.8038,-0.8038,-0.8038,-0.8038,-0.8038,-0.8038,-0.8038,-0.8038,-0.8038,-0.8038,-0.8038,-0.8038,-0.8038,-0.8038,-0.8038,-0.8038,-0.8038,-0.8038,-0.8038,-0.8038,-0.8038,-0.8038,-0.8038,-0.8038,-0.8038,-0.8038,-0.8038,-0.8038,-0.6027,-0.3118,-0.0807,0.0,0.0,0.0,0.0,0.0,0.0,0.0,0.0,0.0,0.0,0.0,0.0,0.101,0.2008,0.2059,0.1988,0.3032,0.6485,0.7125,0.7139,0.7139,0.7139,0.7139,0.7139,0.7139,0.7112,0.7031,0.6966,0.6895,0.681,0.6742,0.6709,0.6646,0.5513,0.5294,0.626,0.2327,0.0,0.0,0.0,0.0,0.0,0.0,0.0,0.0,0.0,0.0,0.0089,0.2706,0.5167,-1.9082,-1.9058,-1.8559,-1.7908,-1.6557,-1.5001,-1.3659,-1.2405,-1.155,-1.159,0.0,0.0,-0.681,0.0,-0.6748,-0.5984,0.0,-1.1093,-0.8199,-0.7435,-0.717,-0.7248,-0.7719,-0.8038,-0.8038,-0.8038,-0.8038,-0.8038,-0.8038,-0.8038,-0.8038,-0.8038,-0.8038,-0.8038,-0.8038,-0.8038,-0.8038,-0.8038,-0.8038,-0.8038,-0.8038,-0.8038,-0.8038,-0.8038,-0.8038,-0.8038,-0.8038,-0.8038,-0.8038,-0.8038,-0.8038,-0.8038,-0.8038,-0.8038,-0.8038,-0.8038,-0.8038,-0.8038,-0.8038,-0.8038,-0.7232,-0.2615,-0.0605,0.0,0.0,0.0,0.0,0.0,0.0,0.0,0.0,0.0,0.0,0.0,0.0,0.0,0.0,0.0,0.12,0.5325,0.6646,0.7078,0.7061,0.7058,0.7058,0.7058,0.7058,0.7058,0.7058,0.7037,0.6956,0.6956,0.6841,0.6773,0.6706,0.4827,0.4185,0.5428,0.2044,0.0,0.0,0.0,0.0,0.0,0.0,0.0,0.0,0.0,0.0,0.0,0.0,0.2499,-2.0088,-2.0294,-2.0157,-2.0079,-1.6814,-1.3694,-1.3917,-1.3006,0.0,0.0,0.0,-0.6772,-0.6967,-0.6979,0.0,-0.8063,0.0,0.0,0.0,0.0,-0.7326,0.0,0.0,0.0,0.0,0.0,0.0,0.0,0.0,-0.8038,-0.8038,-0.8038,-0.8038,-0.8038,-0.8038,-0.8038,-0.8038,-0.8038,-0.8038,-0.8038,-0.8038,-0.8038,-0.8038,-0.8038,-0.8038,-0.8038,-0.8038,0.0,-0.8038,-0.8038,-0.8038,-0.8038,-0.8038,-0.8038,-0.8038,-0.8038,-0.8038,-0.8038,-0.8038,-0.8038,-0.7839,-0.693,-0.3618,0.0,0.0,0.0,0.0,0.0,0.0,0.0,0.0,0.0,0.0,0.0,0.0,0.0,0.0,0.0,0.0288,0.1109,0.4402,0.7131,0.7101,0.7081,0.7081,0.7081,0.7088,0.7094,0.7094,0.7048,0.7102,0.7102,0.7011,0.7007,0.7021,0.6612,0.4919,0.134,0.0448,0.0,0.0,0.0,0.0,0.0,0.0,0.0,0.0,0.0,0.0,0.0,0.0,0.1607,-2.0293,-2.0566,-2.0566,-2.0566,-1.8816,-1.6199,-1.3047,0.0,0.0,0.0,0.0,-0.7284,-0.7031,0.0,0.0,0.0,0.0,0.0,0.0,0.0,0.0,0.0,0.0,0.0,0.0,0.0,0.0,0.0,0.0,-0.8038,-0.8038,-0.8038,-0.8038,-0.8038,-0.8038,-0.8038,-0.8038,-0.8038,-0.8038,-0.8038,-0.8038,-0.8038,-0.8038,-0.8038,-0.8038,-0.8038,-0.8038,-0.8038,-0.8038,-0.8038,-0.8038,-0.8038,-0.8038,-0.8038,-0.8038,-0.8038,-0.8038,-0.8038,-0.8038,-0.8038,-0.8038,-0.8038,-0.6226,-0.362,-0.0807,0.0,0.0,0.0,0.0,0.0,0.0,0.0,0.0,0.0,0.0,0.0,0.0,0.0,0.0,0.0,0.1862,0.4154,0.6672,0.7145,0.6726,0.5455,0.5277,0.528,0.528,0.527,0.5714,0.6986,0.7088,0.7101,0.7118,0.7128,0.5041,0.027,0.0,0.0,0.0,0.0,0.0,0.0,0.0,0.0,0.0,0.0,0.0,0.0,0.0,0.2223,-2.0225,-2.0566,-2.0566,-2.0566,-1.9725,-1.7299,-1.1531,-0.9646,0.0,0.0,0.0,-0.7689,-0.7714,0.0,0.0,0.0,0.0,0.0,0.0,0.0,0.0,0.0,0.0,0.0,0.0,0.0,0.0,0.0,0.0,-0.8428,-0.8038,-0.8038,-0.8038,-0.8038,-0.8038,-0.8038,-0.8038,-0.8038,-0.8038,-0.8038,-0.8038,-0.8038,-0.8038,-0.8038,-0.8038,-0.8038,-0.8038,-0.8038,-0.8038,-0.8038,-0.8038,-0.8038,-0.8038,-0.8038,-0.8038,-0.8038,-0.8038,-0.8038,-0.8038,-0.8038,-0.8038,-0.8038,-0.8038,-0.7232,-0.3017,-0.0908,0.0,0.0,0.0,0.0,0.0,0.0,0.0,0.0,0.0,0.0,0.0,0.0,0.0,0.0,0.0,0.122,0.4937,0.6418,0.6511,0.4595,0.3496,0.3038,0.3576,0.3578,0.4297,0.6112,0.6837,0.7118,0.7135,0.6132,0.3957,0.027,0.0,0.0,0.0,0.0,0.0,0.0,0.0,0.0,0.0,0.0,0.0,0.0,0.0,0.2271,-2.0117,-2.0566,-2.0566,-2.0566,-1.6784,-1.2332,-0.9613,0.0,0.0,0.0,-0.7812,-0.8189,-0.9725,0.0,0.0,0.0,0.0,0.0,0.0,0.0,0.0,0.0,0.0,0.0,0.0,0.0,0.0,0.0,0.0,-0.9698,-0.8038,-0.8038,-0.8038,-0.8038,-0.8038,-0.8038,-0.8038,-0.8038,-0.8038,-0.8038,-0.8038,-0.8038,-0.8038,-0.8038,-0.8038,-0.8038,-0.8038,-0.8038,0.0,-0.8038,-0.8038,-0.8038,-0.8038,-0.8038,-0.8038,-0.8038,-0.8038,-0.8038,-0.8038,-0.8038,-0.8038,-0.8038,-0.8038,-0.7939,-0.7434,-0.3819,0.0,0.0,0.0,0.0,0.0,0.0,0.0,0.0,0.0,0.0,0.0,0.0,0.0,0.0,0.0,0.0097,0.0571,0.421,0.7053,0.6774,0.309,0.1168,0.3329,0.36,0.3692,0.3873,0.586,0.7135,0.7135,0.3145,0.0449,0.0,0.0,0.0,0.0,0.0,0.0,0.0,0.0,0.0,0.0,0.0,0.0,0.0,0.0,0.0302,-2.0098,-2.0566,-2.0566,-2.0566,-1.8128,-1.4941,-1.1935,0.0,0.0,-0.9404,-0.8415,-0.8221,-0.9971,-0.9588,0.0,0.0,0.0,0.0,0.0,0.0,0.0,0.0,0.0,0.0,0.0,0.0,0.0,0.0,-1.1556,-1.1068,-1.0386,-0.8821,-0.8038,-0.8038,-0.8038,-0.8038,-0.8038,-0.8038,-0.8038,-0.8038,-0.8038,-0.8038,-0.8038,-0.8038,-0.8038,-0.8038,-0.8038,-0.8038,0.0,-0.8038,-0.8038,-0.8038,-0.8038,-0.8038,-0.8038,-0.8038,-0.8038,-0.8038,-0.8038,-0.8038,-0.8038,-0.8038,-0.8038,-0.8038,-0.8038,-0.6528,-0.4121,-0.0908,0.0,0.0,0.0,0.0,0.0,0.0,0.0,0.0,0.0,0.0,0.0,0.0,0.0,0.0,0.0,0.1527,0.2828,0.2828,0.1217,0.0371,0.1283,0.1464,0.1457,0.144,0.2247,0.2785,0.2785,0.1078,0.0,0.0,0.0,0.0,0.0,0.0,0.0,0.0,0.0,0.0,0.0,0.0,0.0,0.0,0.0,0.0,-1.9346,-1.9814,-1.9814,-1.9814,-1.8906,-1.7109,0.0,0.0,-1.0283,-1.0283,-0.9326,-0.8857,-1.0059,-1.0283,-1.0283,0.0,0.0,0.0,0.0,0.0,0.0,0.0,0.0,0.0,0.0,0.0,0.0,0.0,-1.3011,-1.3011,-1.3011,-1.0965,-0.9209,-0.8038,-0.8038,-0.8038,-0.8038,-0.8038,-0.8038,-0.8038,-0.8038,-0.8038,-0.8038,-0.8038,-0.8038,-0.8038,-0.8038,-0.8038,0.0,-0.8038,-0.8038,-0.8038,-0.8038,-0.8038,-0.8038,-0.8038,-0.8038,-0.8038,-0.8038,-0.8038,-0.8038,-0.8038,-0.8038,-0.8038,-0.8038,-0.8038,-0.7232,-0.3419,-0.121,0.0,0.0,0.0,0.0,0.0,0.0,0.0,0.0,0.0,0.0,0.0,0.0,0.0,0.0,0.0,0.0,0.0,0.0,0.0,0.0,0.0,0.0,0.0,0.0,0.0,0.0,0.0,0.0,0.0,0.0,0.0,0.0,0.0,0.0,0.0,0.0,0.0,0.0,0.0,0.0,0.0,0.0,0.0,-1.7568,-1.8037,-1.8037,-1.8037,-1.8018,-1.7109,0.0,-1.1533,-1.0283,-1.0283,-1.0273,-1.0302,-1.0312,-1.0283,-1.0283,-1.0283,0.0,0.0,0.0,0.0,0.0,0.0,0.0,0.0,0.0,0.0,0.0,-1.573,-1.573,0.0,-1.573,-1.4555,-1.2027,-0.8137,-0.8038,-0.8038,-0.8038,-0.8038,-0.8038,-0.8038,-0.8038,-0.8038,-0.8038,-0.8038,-0.8038,-0.8038,-0.8038,-0.8038,0.0,-0.8038,-0.8038,-0.8038,-0.8038,-0.8038,-0.8038,-0.8038,-0.8038,-0.8038,-0.8038,-0.8038,-0.8038,-0.8038,-0.8038,-0.8038,-0.8038,-0.8038,-0.7939,-0.7939,-0.4119,0.0,0.0,0.0,0.0,0.0,0.0,0.0,0.0,0.0,0.0,0.0,0.0,0.0,0.0,0.0,0.0,0.0,0.0,0.0,0.0,0.0,0.0,0.0,0.0,0.0,0.0,0.0,0.0,0.0,0.0,0.0,0.0,0.0,0.0,0.0,0.0,0.0,0.0,0.0,0.0,0.0,0.0,0.0,-1.5771,-1.623,-1.623,-1.623,-1.623,-1.5644,-1.3398,-1.1533,-1.0283,-1.0283,-1.0283,-1.0283,-1.0283,-1.0283,-1.0859,-1.2627,-1.3867,0.0,0.0,0.0,0.0,0.0,0.0,0.0,0.0,0.0,0.0,-1.5832,-1.5832,-1.5832,-1.5832,-1.5439,-1.4657,-1.3392,-1.1063,-0.9213,-0.8038,-0.8038,-0.8038,-0.8038,-0.8038,-0.8038,-0.8038,-0.8038,-0.8038,-0.8038,-0.8038,-0.8038,-0.8038,-0.8038,-0.8038,-0.8038,-0.8038,-0.8038,-0.8038,-0.8038,-0.8038,-0.8038,-0.8038,-0.8038,-0.8038,-0.8038,-0.8038,-0.8038,-0.8038,-0.8038,-0.8038,-0.8038,-0.4121,0.0,0.0,0.0,0.0,0.0,0.0,0.0,0.0,0.0,0.0,0.0,0.0,0.0,0.0,0.0,0.0,0.0,0.0,0.0,0.0,0.0,0.0,0.0,0.0,0.0,0.0,0.0,0.0,0.0,0.0,0.0,0.0,0.0,0.0,0.0,0.0,0.0,0.0,0.0,0.0,0.0,0.0,0.0,0.0,-1.3975,-1.3477,-1.3477,-1.3477,-1.3369,-1.2969,-1.1533,-1.0283,-1.0283,-1.0283,-1.0283,-1.0283,-1.0283,-1.0918,-1.2852,-1.4434,0.0,0.0,0.0,0.0,0.0,0.0,0.0,0.0,0.0,-1.5832,-1.5832,-1.5832,-1.5832,-1.5832,-1.5832,-1.5832,-1.5832,-1.3686,-1.2032,-1.096,-0.9993,-0.9505,-0.9509,-0.8432,-0.8038,-0.8038,-0.8038,-0.8038,-0.8038,-0.8038,-0.8038,0.0,-0.8038,-0.8038,-0.8038,-0.8038,-0.8038,-0.8038,-0.8038,-0.8038,-0.8038,-0.8038,-0.8038,-0.8038,-0.8038,-0.8038,-0.8038,-0.8038,-0.8038,-0.8038,-0.8038,-0.4121,0.0,0.0,0.0,0.0,0.0,0.0,0.0,0.0,0.0,0.0,0.0,0.0,0.0,0.0,0.0,0.0,0.0,0.0,0.0,0.0,0.0,0.0,0.0,0.0,0.0,0.0,0.0,0.0,0.0,0.0,0.0,0.0,0.0,0.0,0.0,0.0,0.0,0.0,0.0,0.0,0.0,0.0,0.0,0.0,-1.1502,-1.0283,-1.0283,-1.0195,-1.0527,-1.2148,-1.1309,0.0,-1.0273,-1.0283,-1.0303,-1.0391,-1.041,-1.0654,-1.1636,-1.3779,0.0,0.0,0.0,0.0,0.0,0.0,0.0,0.0,0.0,-1.5832,-1.5832,-1.5832,-1.5832,-1.5832,-1.5832,-1.5832,-1.5832,-1.5832,-1.573,-1.5635,-1.3307,-1.1945,-1.1853,-0.941,-0.8233,-0.8233,-0.8137,-0.8137,0.0,-0.8038,-0.8038,-0.8038,-0.8038,-0.8038,-0.8038,-0.8038,-0.8038,-0.8038,-0.8038,-0.8038,-0.8038,-0.8038,-0.8038,-0.8038,-0.8038,-0.8038,-0.8038,-0.8038,-0.8038,-0.8038,-0.8038,-0.442,-0.0505,-0.0101,0.0,0.0,0.0,0.0,0.0,0.0,0.0,0.0,0.0,0.0,0.0,0.0,0.0,0.0,0.0,0.0,0.0,0.0,0.0,0.0,0.0,0.0,0.0,0.0,0.0,0.0,0.0,0.0,0.0,0.0,0.0,0.0,0.0,0.0,0.0,0.0,0.0,0.0,0.0,0.0,0.0,-1.0321,0.0,-1.0283,-1.0283,-0.9297,-0.8406,0.0,-0.9131,0.0,0.0,0.0,0.0,0.0,0.0,0.0,0.0,0.0,0.0,0.0,0.0,0.0,0.0,0.0,0.0,0.0,-1.5752,-1.5832,-1.5832,-1.5832,-1.5832,-1.5832,-1.5832,-1.5832,-1.5832,-1.5832,-1.5337,-1.4364,-1.3782,-1.2915,-1.1848,-1.1263,-1.0974,-1.097,-0.9998,-0.9509,-0.9509,-0.8432,-0.8038,-0.8038,-0.8038,-0.8038,-0.8038,-0.8038,-0.8038,-0.8038,-0.8038,-0.8038,-0.8038,-0.8038,-0.8038,-0.8038,-0.8038,-0.8038,-0.8038,-0.8038,-0.8038,-0.8038,-0.8038,-0.7132,-0.5222,-0.1109,0.0,0.0,0.0,0.0,0.0,0.0,0.0,0.0,0.0,0.0,0.0,0.0,0.0,0.0,0.0,0.0,0.0,0.0,0.0,0.0,0.0,0.0,0.0,0.0,0.0,0.0,0.0,0.0,0.0,0.0,0.0,0.0,0.0,0.0,0.0,0.0,0.0,0.0,0.0,0.0,0.0,-0.8871,-1.0172,-1.1475,-1.1475,-0.9883,-0.8279,-0.8279,0.0,0.0,0.0,0.0,0.0,0.0,0.0,0.0,0.0,0.0,0.0,0.0,0.0,0.0,0.0,0.0,0.0,0.0,-1.5832,-1.5832,-1.5832,-1.5832,-1.5832,-1.5832,-1.5832,-1.5832,-1.5832,-1.5832,-1.5439,-1.4752,-1.4752,-1.437,-1.3692,-1.3108,-1.2813,-1.2813,-1.1458,-1.0877,-1.0779,-0.9702,-0.9213,-0.9114,-0.8333,-0.8038,-0.8038,-0.8038,-0.8038,-0.8038,-0.8038,-0.8038,-0.8038,-0.8038,-0.8038,-0.8038,-0.8038,-0.8038,-0.8038,-0.8038,-0.8038,-0.8038,-0.8038,-0.8038,-0.7335,-0.442,-0.1813,0.0,0.0,0.0,0.0,0.0,0.0,0.0,0.0,0.0,0.0,0.0,0.0,0.0,0.0,0.0,0.0,0.0,0.0,0.0,0.0,0.0,0.0,0.0,0.0,0.0,0.0,0.0,0.0,0.0,0.0,0.0,0.0,0.0,0.0,0.0,0.0,0.0,0.0,0.0,0.0,-0.9195,-1.0753,-1.2549,-1.2812,-1.1209,-0.9502,0.0,0.0,0.0,0.0,0.0,0.0,0.0,0.0,0.0,0.0,0.0,0.0,0.0,0.0,0.0,0.0,0.0,0.0,-1.5832,-1.5832,-1.5832,-1.5832,-1.5832,-1.5832,-1.5832,-1.5832,-1.5832,-1.5832,-1.5832,-1.5832,-1.5832,-1.5832,-1.5832,-1.5825,-1.4752,-1.4166,-1.4166,-1.2818,-1.2139,-1.2042,-1.1063,0.0,-1.0087,-0.8627,-0.8038,-0.8038,-0.8038,-0.8038,-0.8038,-0.8038,-0.8038,-0.8038,-0.8038,-0.8038,-0.8038,-0.8038,-0.8038,-0.8038,-0.8038,-0.8038,-0.8038,-0.8038,-0.8038,-0.8038,-0.8038,-0.4622,-0.121,-0.121,-0.0605,0.0,0.0,0.0,0.0,0.0,0.0,0.0,0.0,0.0,0.0,0.0,0.0,0.0,0.0,0.0,0.0,0.0,0.0,0.0,0.0,0.0,0.0,0.0,0.0,0.0,0.0,0.0,0.0,0.0,0.0,0.0,0.0,0.0,0.0,0.0,0.0,0.0,-1.4198,-1.2966,-1.1035,-1.251,-1.2392,-1.1694,0.0,0.0,0.0,0.0,0.0,0.0,0.0,0.0,0.0,0.0,0.0,0.0,0.0,0.0,0.0,0.0,0.0,-1.5832,-1.5832,-1.5832,-1.5832,-1.5832,-1.5832,-1.5832,-1.5832,-1.5832,-1.5832,-1.5832,-1.5832,-1.5832,-1.5832,-1.5832,-1.5832,-1.5832,-1.5629,-1.5534,-1.5439,-1.4166,-1.3392,-1.2909,0.0,-0.9797,-0.8333,-0.8137,-0.8038,-0.8038,-0.8038,-0.8038,-0.8038,-0.8038,-0.8038,-0.8038,-0.8038,-0.8038,-0.8038,-0.8038,-0.8038,-0.8038,-0.8038,-0.8038,-0.8038,-0.8038,-0.8038,-0.8038,-0.8038,-0.7434,-0.6731,-0.6731,-0.3318,0.0,0.0,0.0,0.0,0.0,0.0,0.0,0.0,0.0,0.0,0.0,0.0,0.0,0.0,0.0,0.0,0.0,0.0,0.0,0.0,0.0,0.0,0.0,0.0,0.0,0.0,0.0,0.0,0.0,0.0,0.0,0.0,0.0,0.0,0.0,0.0,0.0,-1.2391,-1.2878,-1.2974,-1.3672,-1.3587,-1.3149,0.0,0.0,0.0,0.0,0.0,0.0,0.0,0.0,0.0,0.0,0.0,0.0,0.0,0.0,0.0,0.0,0.0,-1.6574,-1.5825,-1.5832,-1.5832,-1.5832,-1.5832,-1.5832,-1.5832,-1.5832,-1.5832,-1.5832,-1.5832,-1.5832,-1.5832,-1.5832,-1.5832,-1.5832,-1.5832,-1.5832,-1.5737,-1.5146,-1.4848,-1.4561,-1.3782,-1.3006,-1.2226,-1.2226,-1.0574,-0.8038,-0.8038,-0.8038,-0.8038,-0.8038,-0.8038,-0.8038,-0.8038,-0.8038,-0.8038,-0.8038,-0.8038,-0.8038,-0.8038,-0.8038,-0.8038,-0.8038,-0.8038,-0.8038,-0.8038,-0.8038,-0.8038,-0.8038,-0.6126,-0.432,-0.432,-0.2014,0.0,0.0,0.0,0.0,0.0,0.0,0.0,0.0,0.0,0.0,0.0,0.0,0.0,0.0,0.0,0.0,0.0,0.0,0.0,0.0,0.0,0.0,0.0,0.0,0.0,0.0,0.0,0.0,0.0,0.0,0.0,0.0,0.0,0.0,-0.9905,-1.1952,-1.4199,0.0,0.0,0.0,0.0,0.0,0.0,0.0,0.0,0.0,0.0,0.0,0.0,0.0,0.0,0.0,0.0,0.0,0.0,0.0,-1.843,-1.7318,-1.6386,-1.6015,-1.5832,-1.5832,-1.5832,-1.5832,-1.5832,-1.5832,-1.5832,-1.5832,-1.5832,-1.5832,-1.5832,-1.5832,-1.5832,-1.5832,-1.5832,-1.5832,-1.5832,-1.5832,-1.5832,-1.5832,-1.5832,-1.5832,-1.5832,-1.5832,-1.3392,-0.9797,-0.9797,-0.9114,-0.8038,-0.8038,-0.8038,-0.8038,-0.8038,-0.8038,-0.8038,-0.8038,-0.8038,-0.8038,-0.8038,-0.8038,-0.8038,-0.8038,-0.8038,-0.8038,-0.8038,-0.8038,-0.8038,-0.8038,-0.8038,-0.8038,-0.8038,-0.4822,-0.1913,-0.1913,-0.0908,0.0,0.0,0.0,0.0,0.0,0.0,0.0,0.0,0.0,0.0,0.0,0.0,0.0,0.0,0.0,0.0,0.0,0.0,0.0,0.0,-0.1212,-0.1313,-0.0,-0.0605,-0.0605,0.0,0.0,0.0,0.0,0.0,0.0,-0.9905,-1.0847,-1.2215,-1.375,0.0,0.0,0.0,0.0,0.0,0.0,0.0,0.0,0.0,0.0,0.0,0.0,0.0,0.0,0.0,0.0,-2.0851,-2.1123,-1.9115,-1.7692,-1.7591,-1.648,-1.5832,-1.5832,-1.5832,-1.5832,-1.5832,-1.5832,-1.5832,-1.5832,-1.5832,-1.5832,-1.5832,-1.5832,-1.5832,-1.5832,-1.5832,-1.5832,-1.5832,-1.5832,-1.5832,-1.5832,-1.5832,-1.5832,-1.5832,-1.5832,-1.554,-1.5242,-1.5242,-1.2226,-0.8038,-0.8038,-0.8038,-0.8038,-0.8038,-0.8038,-0.8038,-0.8038,-0.8038,-0.8038,-0.8038,-0.8038,-0.8038,-0.8038,-0.8038,-0.8038,-0.8038,-0.8038,-0.8038,-0.8038,-0.8038,-0.8038,-0.8038,-0.7736,-0.7434,-0.7434,-0.3419,0.0,0.0,0.0,0.0,0.0,0.0,0.0,0.0,0.0,0.0,0.0,0.0,0.0,0.0,0.0,0.0,0.0,0.0,0.0,0.0,-0.4752,-0.5056,-0.0101,-0.2414,-0.2514,0.0,0.0,0.0,0.0,0.0,0.0,-0.9905,-1.1563,0.0,0.0,0.0,0.0,0.0,0.0,0.0,0.0,0.0,0.0,0.0,0.0,0.0,0.0,0.0,0.0,0.0,0.0,-2.1951,-2.1373,-2.0477,-1.9314,-1.787,-1.7225,-1.6669,-1.5825,-1.5832,-1.5832,-1.5832,-1.5832,-1.5832,-1.5832,-1.5832,-1.5832,-1.5832,-1.5832,-1.5832,-1.5832,-1.5832,-1.5832,-1.5832,-1.5832,-1.5832,-1.5832,-1.5832,-1.5832,-1.5832,-1.5832,-1.5832,-1.5832,-1.5832,-1.4561,-1.242,-0.9213,-1.0087,-1.242,-0.9114,-0.8038,-0.8038,-0.8038,-0.8038,-0.8038,-0.8038,-0.8038,-0.8038,-0.8038,-0.8038,-0.8038,-0.8038,-0.8038,-0.8038,-0.8038,-0.8038,-0.8038,-0.8038,-0.8038,-0.8038,-0.8038,-0.6326,-0.5022,-0.5022,-0.2215,0.0,0.0,0.0,0.0,0.0,0.0,0.0,0.0,0.0,0.0,0.0,0.0,0.0,0.0,0.0,0.0,0.0,-0.1918,-0.3632,-0.4935,-0.5954,-0.5964,-0.4956,-0.1611,0.0,0.0,0.0,0.0,-1.0596,-1.2592,0.0,0.0,0.0,0.0,0.0,0.0,0.0,0.0,0.0,0.0,0.0,0.0,0.0,0.0,0.0,0.0,0.0,-2.249,-2.263,-2.1924,-2.1569,-2.0657,-1.9047,-1.8141,-1.7318,-1.648,-1.6015,-1.5832,-1.5832,-1.5832,-1.5832,-1.5832,-1.5832,-1.5832,-1.5832,-1.5832,-1.5832,-1.5832,-1.5832,-1.5832,-1.5832,-1.5832,-1.5832,-1.5832,-1.5832,-1.5832,-1.5832,-1.5832,-1.5832,-1.5832,-1.5832,-1.5832,-1.5343,-1.1741,-1.2711,-1.5248,-1.1741,-0.9406,-0.8038,-0.8038,-0.8038,-0.8038,-0.8038,-0.8038,-0.8038,-0.8038,-0.8038,-0.8038,-0.8038,-0.8038,-0.8038,-0.8038,-0.8038,-0.8038,-0.8038,-0.8038,-0.8038,-0.8038,-0.8038,-0.8038,-0.8038,-0.4922,-0.2516,-0.2516,-0.1109,0.0,0.0,0.0,0.0,0.0,0.0,0.0,0.0,-0.1511,-0.2516,-0.2516,-0.2516,-0.2516,-0.2516,-0.2516,-0.4227,-0.7972,-0.7989,-0.8002,-0.8012,-0.3422,-0.0805,0.0,0.0,0.0,-1.209,0.0,0.0,0.0,0.0,0.0,0.0,0.0,0.0,0.0,0.0,0.0,0.0,0.0,0.0,0.0,0.0,0.0,-2.1816,-2.2236,-2.2656,-2.3086,-2.2022,-2.1293,-2.1293,-1.9131,-1.7692,-1.7692,-1.6574,-1.5825,-1.5832,-1.5832,-1.5832,-1.5832,-1.5832,-1.5832,-1.5832,-1.5832,-1.5832,-1.5832,-1.5832,-1.5832,-1.5832,-1.5832,-1.5832,-1.5832,-1.5832,-1.5832,-1.5832,-1.5832,-1.5832,-1.5832,-1.5832,-1.5832,-1.5832,-1.5832,-1.5832,-1.5832,-1.5832,-1.242,-0.8038,-0.8038,-0.8038,-0.8038,-0.8038,-0.8038,-0.8038,-0.8038,-0.8038,-0.8038,-0.8038,-0.8038,-0.8038,-0.8038,-0.8038,-0.8038,-0.8038,-0.8038,-0.8038,-0.8038,-0.8038,-0.8038,-0.8038,-0.8038,-0.8038,-0.8038,-0.3519,-0.0101,-0.0,0.0,0.0,0.0,0.0,-0.0,-0.0101,-0.4922,-0.8038,-0.8038,-0.8038,-0.8038,-0.8038,-0.8038,-0.8048,-0.7972,-0.7952,-0.7955,-0.7989,-0.5331,-0.2611,0.0,0.0,0.0,-1.1839,0.0,0.0,0.0,0.0,0.0,0.0,0.0,0.0,0.0,0.0,0.0,0.0,0.0,0.0,0.0,0.0,-2.1279,-2.1416,-2.1797,-2.2227,-2.2646,-2.2342,-2.1907,-2.1355,-2.0657,-1.9497,-1.787,-1.7318,-1.6763,-1.5825,-1.5832,-1.5832,-1.5832,-1.5832,-1.5832,-1.5832,-1.5832,-1.5832,-1.5832,-1.5832,-1.5832,-1.5832,-1.5832,-1.5832,-1.5832,-1.5832,-1.5832,-1.5832,-1.5832,-1.5832,-1.5832,-1.5832,-1.5832,-1.5832,-1.5832,-1.5832,-1.5832,-1.5832,-1.4752,-1.3488,-1.3488,-1.096,-0.8038,-0.8038,-0.8038,-0.8038,-0.8038,-0.8038,-0.8038,-0.8038,-0.8038,-0.8038,-0.8038,-0.8038,-0.8038,-0.8038,-0.8038,-0.8038,-0.8038,-0.8038,-0.8038,-0.8038,-0.8038,-0.8038,-0.8038,-0.6628,-0.4221,-0.0505,0.0,0.0,0.0,0.0,-0.1511,-0.5325,-0.7132,-0.8038,-0.8038,-0.8038,-0.8038,-0.8038,-0.8038,-0.8041,-0.8048,-0.8041,-0.8045,-0.7955,-0.7235,-0.4418,0.0,0.0,0.0,0.0,0.0,0.0,0.0,0.0,0.0,0.0,0.0,0.0,0.0,0.0,0.0,0.0,0.0,0.0,0.0,-2.0576,-2.0967,-2.0967,-2.1201,-2.1543,-2.2021,-2.2187,-2.209,-2.1624,-2.1094,-2.0272,-1.9003,-1.8026,-1.7172,-1.6567,-1.6109,-1.5832,-1.5832,-1.5832,-1.5832,-1.5832,-1.5832,-1.5832,-1.5832,-1.5832,-1.5832,-1.5832,-1.5832,-1.5832,-1.5832,-1.5832,-1.5832,-1.5832,-1.5832,-1.5832,-1.5832,-1.5832,-1.5832,-1.5832,-1.5832,-1.5832,-1.5832,-1.5832,-1.5832,-1.5832,-1.5832,-1.368,-1.0672,-0.8627,-0.8038,-0.8038,-0.8038,-0.8038,-0.8038,-0.8038,-0.8038,-0.8038,-0.8038,-0.8038,-0.8038,-0.8038,-0.8038,-0.8038,-0.8038,-0.8038,-0.8038,-0.8038,-0.8038,-0.8038,-0.8038,-0.8038,-0.683,-0.362,-0.131,0.0,0.0,0.0,-0.2214,-0.7534,-0.8038,-0.8038,-0.8038,-0.8038,-0.8038,-0.8038,-0.8038,-0.8038,-0.8038,-0.8038,-0.8038,-0.8038,-0.8038,-0.6329,-0.3118,-0.1005,0.0,0.0,0.0,0.0,0.0,0.0,0.0,0.0,0.0,0.0,0.0,0.0,0.0,0.0,0.0,0.0,0.0,-2.0566,-2.0566,-2.0566,-2.0566,-2.0762,-2.1269,-2.1631,-2.1846,-2.1885,-2.0829,-2.0274,-2.0634,-1.8443,-1.7258,-1.7579,-1.6425,-1.5792,-1.5792,-1.5812,-1.5832,-1.5832,-1.5832,-1.5832,-1.5832,-1.5832,-1.5832,-1.5832,-1.5832,-1.5832,-1.5832,-1.5832,-1.5832,-1.5832,-1.5832,-1.5832,-1.5832,-1.5832,-1.5832,-1.5832,-1.5832,-1.5832,-1.5832,-1.5832,-1.5832,-1.5832,-1.5832,-1.5832,-1.4949,-1.0186,-0.8333,-0.8038,-0.8038,-0.8038,-0.8038,-0.8038,-0.8038,-0.8038,-0.8038,-0.8038,-0.8038,-0.8038,-0.8038,-0.8038,-0.8038,-0.8038,-0.8038,-0.8038,-0.8038,-0.8038,-0.8038,-0.8038,-0.8038,-0.8038,-0.3718,-0.0504,-0.0101,-0.0404,-0.2716,-0.7537,-0.8038,-0.8038,-0.8038,-0.8038,-0.8038,-0.8038,-0.8038,-0.8038,-0.8038,-0.8038,-0.8038,-0.8038,-0.8038,-0.8038,-0.7839,-0.3017,-0.0505,0.0,0.0,0.0,0.0,0.0,0.0,0.0,0.0,0.0,0.0,0.0,0.0,0.0,0.0,0.0,-2.0789,-2.0566,-2.0566,-2.0566,-2.0566,-2.0605,-2.0732,-2.1113,-2.1514,-2.1846,-2.1617,-2.1127,-2.0238,-1.8868,-1.7691,-1.6892,-1.5986,-1.5491,-1.5491,-1.5712,-1.5832,-1.5832,-1.5832,-1.5832,-1.5832,-1.5832,-1.5832,-1.5832,-1.5832,-1.5832,-1.5832,-1.5832,-1.5832,-1.5832,-1.5832,-1.5832,-1.5832,-1.5832,-1.5832,-1.5832,-1.5832,-1.5832,-1.5832,-1.5832,-1.5832,-1.5832,-1.5832,-1.5832,-1.5635,-1.4465,-1.1253,-0.8038,-0.8038,-0.8038,-0.8038,-0.8038,-0.8038,-0.8038,-0.8038,-0.8038,-0.8038,-0.8038,-0.8038,-0.8038,-0.8038,-0.8038,-0.8038,-0.8038,-0.8038,-0.8038,-0.8038,-0.8038,-0.8038,-0.8038,-0.7033,-0.4622,-0.0404,-0.372,-0.6731,-0.7939,-0.8038,-0.8038,-0.8038,-0.8038,-0.8038,-0.8038,-0.8038,-0.8038,-0.8038,-0.8038,-0.8038,-0.8038,-0.8038,-0.8038,-0.7939,-0.683,-0.4021,0.0,0.0,0.0,0.0,0.0,0.0,0.0,0.0,0.0,0.0,0.0,0.0,0.0,0.0,0.0,-2.0722,-2.0566,-2.0566,-2.0566,-2.0566,-2.0566,-2.0566,-2.0771,-2.1006,-2.123,-2.125,-2.1076,-2.0604,-1.9516,-1.8481,-1.7541,-1.6499,-1.5715,-1.519,-1.5471,-1.5625,-1.5625,-1.5758,-1.5832,-1.5832,-1.5832,-1.5832,-1.5832,-1.5832,-1.5832,-1.5832,-1.5832,-1.5832,-1.5832,-1.5832,-1.5832,-1.5832,-1.5832,-1.5832,-1.5832,-1.5832,-1.5832,-1.5832,-1.5832,-1.5832,-1.5832,-1.5832,-1.5832,-1.5832,-1.5832,-1.3878,-1.1253,-0.8722,-0.8038,-0.8038,-0.8038,-0.8038,-0.8038,-0.8038,-0.8038,-0.8038,-0.8038,-0.8038,-0.8038,-0.8038,-0.8038,-0.8038,-0.8038,-0.8038,-0.8038,-0.8038,-0.8038,-0.8038,-0.8038,-0.8038,-0.693,-0.4121,-0.6329,-0.8038,-0.8038,-0.8038,-0.8038,-0.8038,-0.8038,-0.8038,-0.8038,-0.8038,-0.8038,-0.8038,-0.8038,-0.8038,-0.8038,-0.8038,-0.8038,-0.8038,-0.8038,-0.6528,0.0,0.0,0.0,0.0,0.0,0.0,0.0,0.0,0.0,0.0,0.0,0.0,0.0,0.0,-2.1308,-2.1165,-2.0789,-2.0566,-2.0566,-2.0566,-2.0566,-2.0566,-2.0566,-2.0566,-2.0566,-2.0566,-2.0723,-2.1094,-2.0192,-1.925,-1.8549,-1.7361,-1.6199,-1.5349,-1.5359,-1.5337,-1.5371,-1.5671,-1.5805,-1.5752,-1.5805,-1.5832,-1.5832,-1.5832,-1.5832,-1.5832,-1.5832,-1.5832,-1.5832,-1.5832,-1.5832,-1.5832,-1.5832,-1.5832,-1.5832,-1.5832,-1.5832,-1.5832,-1.5832,-1.5832,-1.5832,-1.5832,-1.5832,-1.5832,-1.5832,-1.5832,-1.4752,-0.9505,-0.8038,-0.8038,-0.8038,-0.8038,-0.8038,-0.8038,-0.8038,-0.8038,-0.8038,-0.8038,-0.8038,-0.8038,-0.8038,-0.8038,-0.8038,-0.8038,-0.8038,-0.8038,-0.8038,-0.8038,-0.8038,-0.8038,-0.8038,-0.8038,-0.8038,-0.8038,-0.8038,-0.8038,-0.8038,-0.8038,-0.8038,-0.8038,-0.8038,-0.8038,-0.8038,-0.8038,-0.8038,-0.8038,-0.8038,-0.8038,-0.8038,-0.8038,-0.8038,-0.8038,0.0,0.0,0.0,0.0,0.0,0.0,0.0,0.0,0.0,0.0,0.0,0.0,0.0,-2.448,-2.412,-2.322,-2.168,-2.0566,-2.0566,-2.0566,-2.0566,-2.0566,-2.0566,-2.0566,-2.0566,-2.0566,-2.0586,-2.0654,-2.0488,-2.0027,-1.895,-1.7543,-1.6751,-1.6579,-1.5602,-1.5097,-1.5264,-1.5638,-1.5705,-1.5458,-1.5712,-1.5832,-1.5832,-1.5832,-1.5832,-1.5832,-1.5832,-1.5832,-1.5832,-1.5832,-1.5832,-1.5832,-1.5832,-1.5832,-1.5832,-1.5832,-1.5832,-1.5832,-1.5832,-1.5832,-1.5832,-1.5832,-1.5832,-1.5832,-1.5832,-1.5832,-1.4752,-0.9505,-0.8038,-0.8038,-0.8038,-0.8038,-0.8038,-0.8038,-0.8038,-0.8038,-0.8038,-0.8038,-0.8038,-0.8038,-0.8038,-0.8038,-0.8038,-0.8038,-0.8038,-0.8038,-0.8038,-0.8038,-0.8038,-0.8038,-0.8038,-0.8038,-0.8038,-0.8038,-0.8038,-0.8038,-0.8038,-0.8038,-0.8038,-0.8038,-0.8038,-0.8038,-0.8038,-0.8038,-0.8038,-0.8038,-0.8038,-0.8038,-0.8038,-0.8038,-0.8038,-0.8038,0.0,0.0,0.0,0.0,0.0,0.0,0.0,0.0,0.0,0.0,0.0,0.0,0.0,-2.5288,-2.4862,-2.4409,-2.3158,-2.1821,-2.0789,-2.0566,-2.0566,-2.0566,-2.0566,-2.0566,-2.0566,-2.0566,-2.0566,-2.0566,-2.0566,-2.0401,-1.9923,-1.9245,-1.7813,-1.534,-1.4761,-1.4516,-1.4596,-1.4983,-1.5257,-1.5398,-1.5524,-1.5671,-1.5832,-1.5832,-1.5832,-1.5832,-1.5832,-1.5832,-1.5832,-1.5832,-1.5832,-1.5832,-1.5832,-1.5832,-1.5832,-1.5832,-1.5832,-1.5832,-1.5832,-1.5832,-1.5832,-1.5832,-1.5832,-1.5832,-1.5832,-1.5832,-1.5343,-1.3006,-1.0284,-0.8038,-0.8038,-0.8038,-0.8038,-0.8038,-0.8038,-0.8038,-0.8038,-0.8038,-0.8038,-0.8038,-0.8038,-0.8038,-0.8038,-0.8038,-0.8038,-0.8038,-0.8038,-0.8038,-0.8038,-0.8038,-0.8038,-0.8038,-0.8038,-0.8038,-0.8038,-0.8038,-0.8038,-0.8038,-0.8038,-0.8038,-0.8038,-0.8038,-0.8038,-0.8038,-0.8038,-0.8038,-0.8038,-0.8038,-0.8038,-0.8038,-0.8038,-0.8038,0.0,0.0,0.0,0.0,0.0,0.0,0.0,0.0,0.0,0.0,0.0,0.0,-2.5848,-2.5605,-2.5202,-2.5346,-2.4552,-2.3379,-2.1897,-2.1088,-2.0566,-2.0566,-2.0566,-2.0566,-2.0566,-2.0566,-2.0566,-2.0566,-2.0566,-2.0566,-2.0566,-2.0566,-1.9107,-1.5869,-1.4657,-1.4088,-1.4088,-1.4449,-1.485,-1.5291,-1.5331,-1.5471,-1.5685,-1.5785,-1.5832,-1.5832,-1.5832,-1.5832,-1.5832,-1.5832,-1.5832,-1.5832,-1.5832,-1.5832,-1.5832,-1.5832,-1.5832,-1.5832,-1.5832,-1.5832,-1.5832,-1.5832,-1.5832,-1.5832,-1.5832,-1.5832,-1.5832,-1.5832,-1.3006,-0.9993,-0.9993,-0.9015,-0.8038,-0.8038,-0.8038,-0.8038,-0.8038,-0.8038,-0.8038,-0.8038,-0.8038,-0.8038,-0.8038,-0.8038,-0.8038,-0.8038,-0.8038,-0.8038,-0.8038,-0.8038,-0.8038,-0.8038,-0.8038,-0.8038,-0.8038,-0.8038,-0.8038,-0.8038,-0.8038,-0.8038,-0.8038,-0.8038,-0.8038,-0.8038,-0.8038,-0.8038,-0.8038,-0.8038,-0.8038,-0.8038,-0.8038,-0.8038,0.0,0.0,0.0,0.0,0.0,0.0,0.0,0.0,0.0,0.0,0.0,0.0,-2.4658,-2.5269,-2.5757,-2.6296,-2.5581,-2.4862,-2.4791,-2.2349,-2.0566,-2.0566,-2.0566,-2.0566,-2.0566,-2.0566,-2.0566,-2.0566,-2.0566,-2.0566,-2.0566,-2.0566,-2.0489,-2.0245,-1.6281,-1.4088,-1.4088,-1.4382,-1.4683,-1.499,-1.517,-1.5257,-1.5199,-1.5658,-1.5832,-1.5832,-1.5832,-1.5832,-1.5832,-1.5832,-1.5832,-1.5832,-1.5832,-1.5832,-1.5832,-1.5832,-1.5832,-1.5832,-1.5832,-1.5832,-1.5832,-1.5832,-1.5832,-1.5832,-1.5832,-1.5832,-1.5832,-1.5832,-1.5629,-1.5439,-1.5439,-1.1741,-0.8038,-0.8038,-0.8038,-0.8038,-0.8038,-0.8038,-0.8038,-0.8038,-0.8038,-0.8038,-0.8038,-0.8038,-0.8038,-0.8038,-0.8038,-0.8038,-0.8038,-0.8038,-0.8038,-0.8038,-0.8038,-0.8038,-0.8038,-0.8038,-0.8038,-0.8038,-0.8038,-0.8038,-0.8038,-0.8038,-0.8038,-0.8038,-0.8038,-0.8038,-0.8038,-0.8038,-0.8038,-0.8038,-0.8038,-0.8038,0.0,0.0,0.0,0.0,0.0,0.0,0.0,0.0,0.0,0.0,0.0,-2.28,-2.4039,-2.4288,-2.4529,-2.5294,-2.5406,-2.5196,-2.4575,-2.3841,-2.2713,-2.0867,-2.0566,-2.0566,-2.0566,-2.0566,-2.0566,-2.0566,-2.0566,-2.0566,-2.0566,-2.0566,-2.0566,-2.0566,-1.9107,-1.7326,-1.547,-1.4684,-1.4389,-1.4676,-1.4743,-1.4943,-1.5251,-1.5458,-1.5518,-1.5464,-1.5718,-1.5832,-1.5832,-1.5832,-1.5832,-1.5832,-1.5832,-1.5832,-1.5832,-1.5832,-1.5832,-1.5832,-1.5832,-1.5832,-1.5832,-1.5832,-1.5832,-1.5832,-1.5832,-1.5832,-1.5832,-1.5832,-1.5832,-1.5832,-1.5832,-1.4364,-1.2129,-0.8821,-0.8038,-0.8038,-0.8038,-0.8038,-0.8038,-0.8038,-0.8038,-0.8038,-0.8038,-0.8038,-0.8038,-0.8038,-0.8038,-0.8038,-0.8038,-0.8038,-0.8038,-0.8038,-0.8038,-0.8038,-0.8038,-0.8038,-0.8038,-0.8038,-0.8038,-0.8038,-0.8038,-0.8038,-0.8038,-0.8038,-0.8038,-0.8038,-0.8038,-0.8038,-0.8038,-0.8038,-0.8038,-0.8038,0.0,0.0,0.0,0.0,0.0,0.0,0.0,0.0,0.0,0.0,0.0,-2.1748,-2.3153,-2.2982,-2.3152,-2.4591,-2.5109,-2.5137,-2.4456,-2.456,-2.4008,-2.2103,-2.1155,-2.0566,-2.0566,-2.0566,-2.0566,-2.0566,-2.0566,-2.0566,-2.0566,-2.0566,-2.0566,-2.0566,-2.0566,-1.9186,-1.6198,-1.5553,-1.5245,-1.5461,-1.5205,-1.5217,-1.5553,-1.6511,-1.6689,-1.6228,-1.6543,-1.6292,-1.5832,-1.5832,-1.5832,-1.5832,-1.5832,-1.5832,-1.5832,-1.5832,-1.5832,-1.5832,-1.5832,-1.5832,-1.5832,-1.5832,-1.5832,-1.5832,-1.5832,-1.5832,-1.5832,-1.5832,-1.5832,-1.5832,-1.5832,-1.5832,-1.4949,-1.1448,-1.0574,-1.0186,-0.8333,-0.8038,-0.8038,-0.8038,-0.8038,-0.8038,-0.8038,-0.8038,-0.8038,-0.8038,-0.8038,-0.8038,-0.8038,-0.8038,-0.8038,-0.8038,-0.8038,-0.8038,-0.8038,-0.8038,-0.8038,-0.8038,-0.8038,-0.8038,-0.8038,-0.8038,-0.8038,-0.8038,-0.8038,-0.8038,-0.8038,-0.8038,-0.8038,-0.8038,-0.8038,-0.8038,0.0,0.0,0.0,0.0,0.0,0.0,0.0,0.0,0.0,0.0,0.0,-1.9985,-2.192,-2.1577,-2.1813,-2.4341,-2.477,-2.4795,-2.4795,-2.4439,-2.4247,-2.4435,-2.2221,-2.0605,-2.0605,-2.0605,-2.0537,-2.0566,-2.0566,-2.0566,-2.0566,-2.0566,-2.0566,-2.0566,-2.0566,-1.9265,-1.6355,-1.7017,-1.7342,-1.7334,-1.6609,-1.6198,-1.6312,-1.8744,-1.9229,-1.8189,-1.8206,-1.7311,-1.5832,-1.5832,-1.5832,-1.5832,-1.5832,-1.5832,-1.5832,-1.5832,-1.5832,-1.5832,-1.5832,-1.5832,-1.5832,-1.5832,-1.5832,-1.5832,-1.5832,-1.5832,-1.5832,-1.5832,-1.5832,-1.5832,-1.5832,-1.5832,-1.5832,-1.5832,-1.5832,-1.4364,-0.9308,-0.8137,-0.8038,-0.8038,-0.8038,-0.8038,-0.8038,-0.8038,-0.8038,-0.8038,-0.8038,-0.8038,-0.8038,-0.8038,-0.8038,-0.8038,-0.8038,-0.8038,-0.8038,-0.8038,-0.8038,-0.8038,-0.8038,-0.8038,-0.8038,-0.8038,-0.8038,-0.8038,-0.8038,-0.8038,-0.8038,-0.8038,-0.8038,-0.8038,-0.8038,-0.8038,-0.8336,0.0,0.0,0.0,0.0,0.0,0.0,0.0,0.0,0.0,0.0,-1.9519,-2.092,-2.125,-2.1696,-2.2802,-2.369,-2.423,-2.423,-2.4424,-2.4401,-2.3692,-2.245,-2.1328,-2.07,-2.0062,-1.9893,0.0,-2.0566,-2.0566,-2.0566,-2.0566,-2.0566,-2.0566,-2.0566,-2.0235,-1.9432,-1.855,-1.8078,-1.8069,-1.7342,-1.7017,-1.7033,-1.7464,-1.7447,-1.718,-1.6685,-1.6197,-1.5832,-1.5832,-1.5832,-1.5832,-1.5832,-1.5832,-1.5832,-1.5832,-1.5832,-1.5832,-1.5832,-1.5832,-1.5832,-1.5832,-1.5832,-1.5832,-1.5832,-1.5832,-1.5832,-1.5832,-1.5832,-1.5832,-1.5832,-1.5832,-1.5832,-1.5832,-1.5832,-1.5439,-1.3974,-1.0672,-0.8038,-0.8038,-0.8038,-0.8038,-0.8038,-0.8038,-0.8038,-0.8038,-0.8038,-0.8038,-0.8038,-0.8038,-0.8038,-0.8038,-0.8038,-0.8038,-0.8038,-0.8038,-0.8038,-0.8038,-0.8038,-0.8038,-0.8038,-0.8038,-0.8038,-0.8038,-0.8038,-0.8038,-0.8038,-0.8038,-0.8038,-0.8038,-0.8038,-0.8038,0.0,0.0,0.0,0.0,0.0,0.0,0.0,-1.3856,0.0,0.0,-1.7513,-1.8352,-1.9723,-2.025,-2.0715,-2.1493,-2.2184,-2.2849,-2.354,-2.4117,-2.406,-2.309,-2.2736,-2.2047,-2.0744,-2.0124,-1.9922,-2.0066,-2.0146,-2.0322,-2.0557,-2.0566,-2.0566,-2.0566,-2.0566,-2.0566,-2.0566,-1.9766,-1.9362,-1.9274,-1.8868,-1.8709,-1.8647,-1.8742,-1.8605,-1.8394,-1.871,-1.7662,-1.5832,-1.5832,-1.5832,-1.5832,-1.5832,-1.5832,-1.5832,-1.5832,-1.5832,-1.5832,-1.5832,-1.5832,-1.5832,-1.5832,-1.5832,-1.5832,-1.5832,-1.5832,-1.5832,-1.5832,-1.5832,-1.5832,-1.5832,-1.5832,-1.5832,-1.5832,-1.5832,-1.5832,-1.5832,-1.3392,-1.0574,-0.8432,-0.8038,-0.8038,-0.8038,-0.8038,-0.8038,-0.8038,-0.8038,-0.8038,-0.8038,-0.8038,-0.8038,-0.8038,-0.8038,-0.8038,-0.8038,-0.8038,-0.8038,-0.8038,-0.8038,-0.8038,-0.8038,-0.8038,-0.8038,-0.8038,-0.8038,-0.8038,-0.8038,-0.8038,-0.8038,-0.8038,-0.8038,-0.8038,0.0,0.0,0.0,0.0,0.0,0.0,-1.4065,-1.352,-1.3192,0.0,0.0,-1.671,-1.8271,-1.8707,-1.9183,-2.0225,-2.0542,-2.1142,-2.2752,-2.3439,-2.343,-2.2671,-2.2847,-2.243,-2.0855,-2.0656,-2.0265,-1.9561,-1.9546,-1.9824,-2.0254,-2.0459,-2.0566,-2.0566,-2.0566,-2.0566,-2.0566,-2.0566,-2.0566,-2.0566,-2.0566,-2.0566,-2.0586,-2.1094,-2.1045,-2.0654,-2.1663,-1.9701,-1.5832,-1.5832,-1.5832,-1.5832,-1.5832,-1.5832,-1.5832,-1.5832,-1.5832,-1.5832,-1.5832,-1.5832,-1.5832,-1.5832,-1.5832,-1.5832,-1.5832,-1.5832,-1.5832,-1.5832,-1.5832,-1.5832,-1.5832,-1.5832,-1.5832,-1.5832,-1.5832,-1.5832,-1.5832,-1.5832,-1.4465,-0.9797,-0.8428,-0.8038,-0.8038,-0.8038,-0.8038,-0.8038,-0.8038,-0.8038,-0.8038,-0.8038,-0.8038,-0.8038,-0.8038,-0.8038,-0.8038,-0.8038,-0.8038,-0.8038,-0.8038,-0.8038,-0.8038,-0.8038,-0.8038,-0.8038,-0.8038,-0.8038,-0.8038,-0.8038,-0.8038,-0.8038,-0.8038,-0.8038,0.0,0.0,0.0,0.0,0.0,0.0,-1.2953,-1.3015,-1.3277,0.0,0.0,-1.4812,-1.5617,-1.6851,-1.7915,-1.8581,-1.9409,-2.0564,-2.2234,-2.2184,-2.2239,-2.2873,-2.2042,-2.1502,-2.162,-2.1,-2.0643,-2.0815,-1.9757,-1.8896,-1.8525,-1.9814,-2.0566,-2.0566,-2.0566,-2.0566,-2.0566,-2.0566,-2.0566,-2.0566,-2.0566,-2.0566,-2.0566,-2.0684,-2.0674,-2.042,-1.7218,-1.5828,-1.5832,-1.5832,-1.5832,-1.5832,-1.5832,-1.5832,-1.5832,-1.5832,-1.5832,-1.5832,-1.5832,-1.5832,-1.5832,-1.5832,-1.5832,-1.5832,-1.5832,-1.5832,-1.5832,-1.5832,-1.5832,-1.5832,-1.5832,-1.5832,-1.5832,-1.5832,-1.5832,-1.5832,-1.5832,-1.5832,-1.5534,-1.4465,-1.0863,-0.8038,-0.8038,-0.8038,-0.8038,-0.8038,-0.8038,-0.8038,-0.8038,-0.8038,-0.8038,-0.8038,-0.8038,-0.8038,-0.8038,-0.8038,-0.8038,-0.8038,-0.8038,-0.8038,-0.8038,-0.8038,-0.8038,-0.8038,-0.8038,-0.8038,-0.8038,-0.8038,-0.8038,-0.8038,-0.8038,-0.8038,0.0,0.0,0.0,-1.4075,0.0,0.0,0.0,0.0,-1.3165,0.0,0.0,0.0,0.0,0.0,-1.6722,-1.7275,-1.8053,-1.9083,-2.0476,-2.1142,-2.1694,-2.2246,-2.17,-2.1219,-2.1057,-2.088,-2.0802,-2.0915,-2.0178,-1.924,-1.8086,-1.8828,-1.9287,-1.9287,-2.0117,-2.0566,-2.0566,-2.0566,-2.0566,-2.0566,-2.0566,-2.0566,-2.0566,-2.0566,-2.0566,-2.0323,-1.5951,-1.4422,-1.5003,-1.5591,-1.5832,-1.5832,-1.5832,-1.5832,-1.5832,-1.5832,-1.5832,-1.5832,-1.5832,-1.5832,-1.5832,-1.5832,-1.5832,-1.5832,-1.5832,-1.5832,-1.5832,-1.5832,-1.5832,-1.5832,-1.5832,-1.5832,-1.5832,-1.5832,-1.5832,-1.5832,-1.5832,-1.5832,-1.5832,-1.5832,-1.3686,-1.1063,-0.8428,-0.8038,-0.8038,-0.8038,-0.8038,-0.8038,-0.8038,-0.8038,-0.8038,-0.8038,-0.8038,-0.8038,-0.8038,-0.8038,-0.8038,-0.8038,-0.8038,-0.8038,-0.8038,-0.8038,-0.8038,-0.8038,-0.8038,-0.8038,-0.8038,-0.8038,-0.8038,-0.8038,-0.8038,-0.8038,0.0,0.0,0.0,0.0,0.0,-1.556,0.0,0.0,0.0,0.0,0.0,0.0,0.0,0.0,0.0,0.0,0.0,0.0,0.0,-1.9723,0.0,-2.1129,-2.1079,-2.0804,-2.0358,-2.0601,-2.0688,-2.0517,-2.0319,-1.9637,-1.8378,-1.8085,-1.8008,-1.8008,-1.9355,-2.0234,-2.0634,-2.0566,-2.0566,-2.0566,-2.0566,-2.0566,-2.0566,-2.0566,-2.0566,-2.0401,-1.6838,-1.4901,-1.4162,-1.5104,-1.5625,-1.5832,-1.5832,-1.5832,-1.5832,-1.5832,-1.5832,-1.5832,-1.5832,-1.5832,-1.5832,-1.5832,-1.5832,-1.5832,-1.5832,-1.5832,-1.5832,-1.5832,-1.5832,-1.5832,-1.5832,-1.5832,-1.5832,-1.5832,-1.5832,-1.5832,-1.5832,-1.5832,-1.5832,-1.5832,-1.5832,-1.4172,-0.892,-0.8038,-0.8038,-0.8038,-0.8038,-0.8038,-0.8038,-0.8038,-0.8038,-0.8038,-0.8038,-0.8038,-0.8038,-0.8038,-0.8038,-0.8038,-0.8038,-0.8038,-0.8038,-0.8038,-0.8038,-0.8038,-0.8038,-0.8038,-0.8038,-0.8038,-0.8038,-0.8038,-0.8038,-0.8038,0.0,0.0,0.0,0.0,-1.6842,0.0,0.0,0.0,-1.4413,-1.3591,0.0,0.0,0.0,0.0,0.0,0.0,0.0,0.0,-1.612,-1.7099,-1.838,-1.9823,-1.9585,-1.9634,-2.0544,-2.0232,-2.0018,-2.0217,-1.9383,-1.9057,-1.9467,-1.8563,-1.8008,-1.8008,-1.8203,-1.9033,-2.0547,-2.0566,-2.0566,-2.0566,-2.0566,-2.0566,-2.0566,-2.0566,-2.0566,-2.0566,-2.0079,-1.7649,-1.4095,-1.4229,-1.4897,-1.5832,-1.5832,-1.5832,-1.5832,-1.5832,-1.5832,-1.5832,-1.5832,-1.5832,-1.5832,-1.5832,-1.5832,-1.5832,-1.5832,-1.5832,-1.5832,-1.5832,-1.5832,-1.5832,-1.5832,-1.5832,-1.5832,-1.5832,-1.5832,-1.5832,-1.5832,-1.5832,-1.5832,-1.5832,-1.5832,-1.4172,-0.892,-0.8038,-0.8038,-0.8038,-0.8038,-0.8038,-0.8038,-0.8038,-0.8038,-0.8038,-0.8038,-0.8038,-0.8038,-0.8038,-0.8038,-0.8038,-0.8038,-0.8038,-0.8038,-0.8038,-0.8038,-0.8038,-0.8038,-0.8038,-0.8038,-0.8038,-0.8038,-0.8038,-0.8038,-0.8038,0.0,0.0,0.0,0.0,0.0,0.0,-1.6343,0.0,-1.4967,0.0,0.0,0.0,0.0,0.0,0.0,0.0,-1.5266,0.0,0.0,0.0,-1.6099,0.0,0.0,0.0,-1.961,-1.9208,-1.917,-1.9907,-1.9576,-1.936,-1.9518,-2.043,-2.0063,-1.8076,-1.8008,-1.8594,-1.9814,-2.0312,-2.0566,-2.0566,-2.0566,-2.0566,-2.0566,-2.0566,-2.0566,-2.0566,-2.0566,-1.8132,-1.4088,-1.4088,-1.4376,-1.4883,-1.5565,-1.5832,-1.5832,-1.5832,-1.5832,-1.5832,-1.5832,-1.5832,-1.5832,-1.5832,-1.5832,-1.5832,-1.5832,-1.5832,-1.5832,-1.5832,-1.5832,-1.5832,-1.5832,-1.5832,-1.5832,-1.5832,-1.5832,-1.5832,-1.5832,-1.5832,-1.5832,-1.5832,-1.5832,-1.5146,-1.2904,-0.9989,-0.8038,-0.8038,-0.8038,-0.8038,-0.8038,-0.8038,-0.8038,-0.8038,-0.8038,-0.8038,-0.8038,-0.8038,-0.8038,-0.8038,-0.8038,-0.8038,-0.8038,-0.8038,-0.8038,-0.8038,-0.8038,-0.8038,-0.8038,-0.8038,-0.8038,-0.8038,-0.8038,-0.8038,-1.7208,0.0,0.0,0.0,0.0,0.0,0.0,0.0,0.0,0.0,0.0,0.0,0.0,0.0,0.0,0.0,0.0,-1.4664,0.0,0.0,0.0,0.0,0.0,0.0,0.0,-1.8254,-1.8392,-1.8869,-1.8618,-1.8759,-1.9444,-2.1403,-2.14,-1.9023,-1.8596,-1.8577,-1.8926,-1.9873,-2.042,-2.0566,-2.0566,-2.0566,-2.0566,-2.0566,-2.0566,-2.0566,-2.0566,-1.8132,-1.4088,-1.4088,-1.4088,-1.4168,-1.5017,-1.5545,-1.5832,-1.5832,-1.5832,-1.5832,-1.5832,-1.5832,-1.5832,-1.5832,-1.5832,-1.5832,-1.5832,-1.5832,-1.5832,-1.5832,-1.5832,-1.5832,-1.5832,-1.5832,-1.5832,-1.5832,-1.5832,-1.5832,-1.5832,-1.5832,-1.5832,-1.5832,-1.5832,-1.5832,-1.5832,-1.1448,-0.8038,-0.8038,-0.8038,-0.8038,-0.8038,-0.8038,-0.8038,-0.8038,-0.8038,-0.8038,-0.8038,-0.8038,-0.8038,-0.8038,-0.8038,-0.8038,-0.8038,-0.8038,-0.8038,-0.8038,-0.8038,-0.8038,-0.8038,-0.8038,-0.8038,-0.8038,-0.8038,-0.8038,0.0,0.0,0.0,-1.8172,0.0,0.0,0.0,0.0,-1.692,0.0,0.0,0.0,0.0,0.0,0.0,0.0,0.0,0.0,0.0,0.0,0.0,0.0,0.0,0.0,0.0,-1.7576,-1.7765,0.0,-1.563,-1.6434,-1.9597,-2.0536,-2.1064,-2.1295,-1.9944,-1.8865,-1.8047,-1.9189,-2.0029,-2.0566,-2.0566,-2.0566,-2.0566,-2.0566,-2.0566,-2.0566,-2.0566,-1.8132,-1.4088,-1.4088,-1.4088,-1.4088,-1.4128,-1.4836,-1.5832,-1.5832,-1.5832,-1.5832,-1.5832,-1.5832,-1.5832,-1.5832,-1.5832,-1.5832,-1.5832,-1.5832,-1.5832,-1.5832,-1.5832,-1.5832,-1.5832,-1.5832,-1.5832,-1.5832,-1.5832,-1.5832,-1.5832,-1.5832,-1.5832,-1.5832,-1.5832,-1.5832,-1.5832,-1.1448,-0.8038,-0.8038,-0.8038,-0.8038,-0.8038,-0.8038,-0.8038,-0.8038,-0.8038,-0.8038,-0.8038,-0.8038,-0.8038,-0.8038,-0.8038,-0.8038,-0.8038,-0.8038,-0.8038,-0.8038,-0.8038,-0.8038,-0.8038,-0.8038,-0.8038,-0.8038,-0.8038,-0.8038,-1.8385,-1.8223,-1.8301,-1.9057,-1.8769,0.0,0.0,0.0,0.0,0.0,0.0,0.0,0.0,0.0,0.0,0.0,0.0,0.0,0.0,0.0,0.0,0.0,0.0,0.0,0.0,0.0,-1.6622,-1.5517,-1.513,0.0,-1.7526,-1.9258,-2.059,-2.1452,-2.062,-1.9431,-1.8008,-1.8955,-1.9814,-2.0566,-2.0566,-2.0566,-2.0566,-2.0566,-2.0566,-2.0566,-2.0566,-1.8132,-1.4088,-1.4088,-1.4088,-1.4088,-1.4088,-1.4329,-1.477,-1.5545,-1.5832,-1.5832,-1.5832,-1.5832,-1.5832,-1.5832,-1.5832,-1.5832,-1.5832,-1.5832,-1.5832,-1.5832,-1.5832,-1.5832,-1.5832,-1.5832,-1.5832,-1.5832,-1.5832,-1.5832,-1.5832,-1.5832,-1.5832,-1.5832,-1.5832,-1.5832,-1.5832,-1.4364,-1.2032,-0.8528,-0.8038,-0.8038,-0.8038,-0.8038,-0.8038,-0.8038,-0.8038,-0.8038,-0.8038,-0.8038,-0.8038,-0.8038,-0.8038,-0.8038,-0.8038,-0.8038,-0.8038,-0.8038,-0.8038,-0.8038,-0.8038,-0.8038,-0.8038,-0.8038,-0.8038,-0.8038,-1.8144,-1.8553,-1.9124,-1.9251,-1.93,-1.904,-1.7947,0.0,-1.8455,0.0,0.0,0.0,0.0,0.0,0.0,0.0,0.0,0.0,0.0,-1.2102,0.0,0.0,0.0,0.0,0.0,0.0,-1.4199,-1.4287,-1.5015,0.0,0.0,-1.8242,-1.9465,-1.9992,-2.0329,-1.9716,-1.8008,-1.8555,-1.9268,-2.0117,-2.042,-2.0566,-2.0566,-2.0566,-2.0566,-2.0566,-2.0566,-1.9027,-1.6273,-1.4741,-1.4088,-1.4088,-1.4088,-1.4088,-1.4229,-1.5398,-1.5832,-1.5832,-1.5832,-1.5832,-1.5832,-1.5832,-1.5832,-1.5832,-1.5832,-1.5832,-1.5832,-1.5832,-1.5832,-1.5832,-1.5832,-1.5832,-1.5832,-1.5832,-1.5832,-1.5832,-1.5832,-1.5832,-1.5832,-1.5832,-1.5832,-1.5832,-1.5832,-1.5832,-1.4076,-0.8821,-0.8038,-0.8038,-0.8038,-0.8038,-0.8038,-0.8038,-0.8038,-0.8038,-0.8038,-0.8038,-0.8038,-0.8038,-0.8038,-0.8038,-0.8038,-0.8038,-0.8038,-0.8038,-0.8038,-0.8038,-0.8038,-0.8038,-0.8038,-0.8038,-0.8038,-0.8038]}]]